[[{"header":{"parameterUnit":"m.s-1","parameterCategory":1,"la1":31.0,"la2":29.5877,"lo1":-88.7671,"lo2":-86.6584,"dy":0.0162,"dx":0.0185,"nx":115,"ny":88,"refTime":"2023-02-23T06:00:00:Z","depth":0,"parameterNumber":2,"parameterNumberName":"U-component_of_WINDS"},"data":[0.0,0.0,0.0,0.0,0.0,0.0,0.0,0.0,0.0,0.0,0.0,0.0,0.0,0.0,0.0,0.0,0.0,0.0,0.0,0.0,0.0,0.0,0.0,0.0,0.0,0.0,0.0,0.0,0.0,0.0,0.0,0.0,0.0,0.0,0.0,0.0,0.0,0.0,0.0,0.0,0.0,0.0,0.0,0.0,0.0,0.0,0.0,0.0,0.0,0.0,0.0,0.0,0.0,0.0,0.0,0.0,0.0,0.0,0.0,0.0,0.0,0.0,0.0,0.0,0.0,0.0,0.0,0.0,0.0,0.0,0.0,0.0,0.0,0.0,0.0,0.0,0.0,0.0,0.0,0.0,0.0,0.0,0.0,0.0,0.0,0.0,0.0,0.0,0.0,0.0,0.0,0.0,0.0,0.0,0.0,0.0,0.0,0.0,0.0,0.0,0.0,0.0,0.0,0.0,0.0,0.0,0.0,0.0,0.0,0.0,0.0,0.0,0.0,0.0,0.0,0.0,0.0,0.0,0.0,0.0,0.0,0.0,0.0,0.0,0.0,0.0,0.0,0.0,0.0,0.0,0.0,0.0,0.0,0.0,0.0,0.0,0.0,0.0,0.0,0.0,0.0,0.0,0.0,0.0,0.0,0.0,0.0,0.0,0.0,0.0,0.0,0.0,0.0,0.0,0.0,0.0,0.0,0.0,0.0,0.0,0.0,0.0,0.0,0.0,0.0,0.0,0.0,0.0,0.0,0.0,0.0,0.0,0.0,0.0,0.0,0.0,0.0,0.0,0.0,0.0,0.0,0.0,0.0,0.0,0.0,0.0,0.0,0.0,0.0,0.0,0.0,0.0,0.0,0.0,0.0,0.0,0.0,0.0,0.0,0.0,0.0,0.0,0.0,0.0,0.0,0.0,0.0,0.0,0.0,0.0,0.0,0.0,0.0,0.0,0.0,0.0,0.0,0.0,0.0,0.0,0.0,0.0,0.0,0.0,0.0,0.0,0.0,0.0,0.0,0.0,0.0,0.0,0.0,0.0,0.0,0.0,0.0,0.0,0.0,0.0,0.0,0.0,0.0,0.0,0.0,0.0,0.0,0.0,0.0,0.0,0.0,0.0,0.0,0.0,0.0,0.0,0.0,0.0,0.0,0.0,0.0,0.0,0.0,0.0,0.0,0.0,0.0,0.0,0.0,0.0,0.0,0.0,0.0,0.0,0.0,0.0,0.0,0.0,0.0,0.0,0.0,0.0,0.0,0.0,0.0,0.0,0.0,0.0,0.0,0.0,0.0,0.0,0.0,0.0,0.0,0.0,0.0,0.0,0.0,0.0,0.0,0.0,0.0,0.0,0.0,0.0,0.0,0.0,0.0,0.0,0.0,0.0,0.0,0.0,0.0,0.0,0.0,0.0,0.0,0.0,0.0,0.0,0.0,0.0,0.0,0.0,0.0,0.0,0.0,0.0,0.0,0.0,0.0,0.0,0.0,0.0,0.0,0.0,0.0,0.0,0.0,0.0,0.0,0.0,0.0,0.0,0.0,0.0,0.0,0.0,0.0,0.0,0.0,0.0,0.0,0.0,0.0,0.0,0.0,0.0,0.0,0.0,0.0,0.0,0.0,0.0,0.0,0.0,0.0,0.0,0.0,0.0,0.0,0.0,0.0,0.0,0.0,0.0,0.0,0.0,0.0,0.0,0.0,0.0,0.0,0.0,0.0,0.0,0.0,0.0,0.0,0.0,0.0,0.0,0.0,0.0,0.0,0.0,0.0,0.0,0.0,0.0,0.0,0.0,0.0,0.0,0.0,0.0,0.0,0.0,0.0,0.0,0.0,0.0,0.0,0.0,0.0,0.0,0.0,0.0,0.0,0.0,0.0,0.0,0.0,0.0,0.0,0.0,0.0,0.0,0.0,0.0,0.0,0.0,0.0,0.0,0.0,0.0,0.0,0.0,0.0,0.0,0.0,0.0,0.0,0.0,0.0,0.0,0.0,0.0,0.0,0.0,0.0,0.0,0.0,0.0,0.0,0.0,0.0,0.0,0.0,0.0,0.0,0.0,0.0,0.0,0.0,0.0,0.0,0.0,0.0,0.0,0.0,0.0,0.0,0.0,0.0,0.0,0.0,0.0,0.0,0.0,0.0,0.0,0.0,0.0,0.0,0.0,0.0,0.0,0.0,0.0,0.0,0.0,0.0,0.0,0.0,0.0,0.0,0.0,0.0,0.0,0.0,0.0,0.0,0.0,0.0,0.0,0.0,0.0,0.0,0.0,0.0,0.0,0.0,0.0,0.0,0.0,0.0,0.0,0.0,0.0,0.0,0.0,0.0,0.0,0.0,0.0,0.0,0.0,0.0,0.0,0.0,0.0,0.0,0.0,0.0,0.0,0.0,0.0,0.0,0.0,0.0,0.0,0.0,0.0,0.0,0.0,0.0,0.0,0.0,0.0,0.0,0.0,0.0,0.0,0.0,0.0,0.0,0.0,0.0,0.0,0.0,0.0,0.0,0.0,0.0,0.0,0.0,0.0,0.0,0.0,0.0,0.0,0.0,0.0,0.0,0.0,0.0,0.0,0.0,0.0,0.0,0.0,0.0,0.0,0.0,0.0,0.0,0.0,0.0,0.0,0.0,0.0,0.0,0.0,0.0,0.0,0.0,0.0,0.0,0.0,0.0,0.0,0.0,0.0,0.0,0.0,0.0,0.0,0.0,0.0,0.0,0.0,0.0,0.0,0.0,0.0,0.0,0.0,0.0,0.0,0.0,0.0,0.0,0.0,0.0,0.0,0.0,0.0,0.0,0.0,0.0,0.0,0.0,0.0,0.0,0.0,0.0,0.0,0.0,0.0,0.0,0.0,0.0,0.0,0.0,0.0,0.0,0.0,0.0,0.0,0.0,0.0,0.0,0.0,0.0,0.0,0.0,0.0,0.0,0.0,0.0,0.0,0.0,0.0,0.0,0.0,0.0,0.0,0.0,0.0,0.0,0.0,0.0,0.0,0.0,0.0,0.0,0.0,0.0,0.0,0.0,0.0,0.0,0.0,0.0,0.0,0.0,0.0,0.0,0.0,0.0,0.0,0.0,0.0,0.0,0.0,0.0,0.0,0.0,0.0,0.0,0.0,0.0,0.0,0.0,0.0,0.0,0.0,0.0,0.0,0.0,0.0,0.0,0.0,0.0,0.0,0.0,0.0,0.0,0.0,0.0,0.0,0.0,0.0,0.0,0.0,0.0,0.0,0.0,0.0,0.0,0.0,0.0,0.0,0.0,0.0,0.0,0.0,0.0,0.0,0.0,0.0,0.0,0.0,0.0,0.0,0.0,0.0,0.0,0.0,0.0,0.0,0.0,0.0,0.0,0.0,0.0,0.0,0.0,0.0,0.0,0.0,0.0,0.0,0.0,0.0,0.0,0.0,0.0,0.0,0.0,0.0,0.0,0.0,0.0,0.0,0.0,0.0,0.0,0.0,0.0,0.0,0.0,0.0,0.0,0.0,0.0,0.0,0.0,0.0,0.0,0.0,0.0,0.0,0.0,0.0,0.0,0.0,0.0,0.0,0.0,0.0,0.0,0.0,0.0,0.0,0.0,0.0,0.0,0.0,0.0,0.0,0.0,0.0,0.0,0.0,0.0,0.0,0.0,0.0,0.0,0.0,0.0,0.0,0.0,0.0,0.0,0.0,0.0,0.0,0.0,0.0,0.0,0.0,0.0,0.0,0.0,0.0,0.0,0.0,0.0,0.0,0.0,0.0,0.0,0.0,0.0,0.0,0.0,0.0,0.0,0.0,0.0,0.0,0.0,0.0,0.0,0.0,0.0,0.0,0.0,0.0,0.0,0.0,0.0,0.0,0.0,0.0,0.0,0.0,0.0,0.0,0.0,0.0,0.0,0.0,0.0,0.0,0.0,0.0,0.0,0.0,0.0,0.0,0.0,0.0,0.0,0.0,0.0,0.0,0.0,0.0,0.0,0.0,0.0,0.0,0.0,0.0,0.0,0.0,0.0,0.0,0.0,0.0,0.0,0.0,0.0,0.0,0.0,0.0,0.0,0.0,0.0,0.0,0.0,0.0,0.0,0.0,0.0,0.0,0.0,0.0,0.0,0.0,0.0,0.0,0.0,0.0,0.0,0.0,0.0,0.0,0.0,0.0,0.0,0.0,0.0,0.0,0.0,0.0,0.0,0.0,0.0,0.0,0.0,0.0,0.0,0.0,0.0,0.0,0.0,0.0,0.0,0.0,0.0,0.0,0.0,0.0,0.0,0.0,0.0,0.0,0.0,0.0,-2.4525,0.0,0.0,0.0,0.0,0.0,0.0,0.0,0.0,0.0,0.0,0.0,0.0,0.0,0.0,0.0,0.0,0.0,0.0,0.0,0.0,0.0,0.0,0.0,0.0,0.0,0.0,0.0,0.0,0.0,0.0,0.0,0.0,0.0,0.0,0.0,0.0,0.0,0.0,0.0,0.0,0.0,0.0,0.0,0.0,0.0,0.0,0.0,0.0,0.0,0.0,0.0,0.0,0.0,0.0,0.0,0.0,0.0,0.0,0.0,0.0,0.0,0.0,0.0,0.0,0.0,0.0,0.0,0.0,0.0,0.0,0.0,0.0,0.0,0.0,0.0,0.0,0.0,0.0,0.0,0.0,0.0,0.0,0.0,0.0,0.0,0.0,0.0,0.0,0.0,0.0,0.0,0.0,0.0,0.0,0.0,0.0,0.0,0.0,0.0,0.0,0.0,0.0,0.0,0.0,0.0,0.0,0.0,0.0,0.0,0.0,-2.6758,-2.6674,-2.5592,-2.4831,-2.4508,0.0,0.0,0.0,0.0,0.0,0.0,0.0,0.0,0.0,0.0,0.0,0.0,0.0,0.0,0.0,0.0,0.0,0.0,0.0,0.0,0.0,0.0,0.0,0.0,0.0,0.0,0.0,0.0,0.0,0.0,0.0,0.0,0.0,0.0,0.0,0.0,0.0,0.0,0.0,0.0,0.0,0.0,0.0,0.0,0.0,0.0,0.0,0.0,0.0,0.0,0.0,0.0,0.0,0.0,0.0,0.0,0.0,0.0,0.0,0.0,0.0,0.0,0.0,0.0,0.0,0.0,0.0,0.0,0.0,0.0,0.0,0.0,0.0,0.0,0.0,0.0,0.0,0.0,0.0,0.0,0.0,0.0,0.0,0.0,0.0,0.0,0.0,0.0,0.0,0.0,0.0,0.0,0.0,0.0,0.0,0.0,0.0,0.0,0.0,0.0,0.0,0.0,0.0,0.0,0.0,0.0,0.0,0.0,0.0,0.0,0.0,0.0,-2.5354,-2.4729,-2.4762,0.0,0.0,0.0,0.0,0.0,0.0,0.0,0.0,0.0,0.0,0.0,0.0,0.0,0.0,0.0,0.0,0.0,0.0,0.0,0.0,0.0,0.0,0.0,0.0,0.0,0.0,0.0,0.0,0.0,0.0,0.0,0.0,0.0,0.0,0.0,0.0,0.0,0.0,0.0,0.0,0.0,0.0,0.0,0.0,0.0,0.0,0.0,0.0,0.0,0.0,0.0,0.0,0.0,0.0,0.0,0.0,0.0,0.0,0.0,0.0,0.0,0.0,0.0,0.0,0.0,0.0,0.0,0.0,0.0,0.0,0.0,0.0,0.0,0.0,0.0,0.0,0.0,0.0,0.0,0.0,0.0,0.0,0.0,0.0,0.0,0.0,0.0,0.0,0.0,0.0,0.0,0.0,0.0,0.0,0.0,0.0,0.0,0.0,0.0,0.0,0.0,0.0,0.0,0.0,0.0,0.0,0.0,0.0,0.0,0.0,-2.571,-2.5694,-2.5558,0.0,-2.5507,0.0,0.0,0.0,0.0,0.0,0.0,0.0,0.0,0.0,0.0,0.0,0.0,0.0,0.0,0.0,0.0,0.0,0.0,0.0,0.0,0.0,0.0,0.0,0.0,0.0,0.0,0.0,0.0,0.0,0.0,0.0,0.0,0.0,0.0,0.0,0.0,0.0,0.0,0.0,0.0,0.0,0.0,0.0,0.0,0.0,0.0,0.0,0.0,0.0,0.0,0.0,0.0,0.0,0.0,0.0,0.0,0.0,0.0,0.0,0.0,0.0,0.0,0.0,0.0,0.0,0.0,0.0,0.0,0.0,0.0,0.0,0.0,0.0,0.0,0.0,0.0,0.0,0.0,0.0,0.0,0.0,0.0,0.0,0.0,0.0,0.0,0.0,0.0,0.0,0.0,0.0,0.0,0.0,0.0,0.0,0.0,0.0,0.0,0.0,0.0,0.0,0.0,0.0,0.0,0.0,0.0,0.0,0.0,0.0,0.0,-2.5609,-2.5609,-2.5186,-2.4965,0.0,0.0,0.0,0.0,0.0,0.0,0.0,0.0,0.0,0.0,0.0,0.0,0.0,0.0,0.0,0.0,0.0,0.0,0.0,0.0,0.0,0.0,0.0,0.0,0.0,0.0,0.0,0.0,0.0,0.0,0.0,0.0,0.0,0.0,0.0,0.0,0.0,0.0,0.0,0.0,0.0,0.0,0.0,0.0,0.0,0.0,0.0,0.0,0.0,0.0,0.0,0.0,0.0,0.0,0.0,0.0,0.0,0.0,0.0,0.0,0.0,0.0,0.0,0.0,0.0,0.0,0.0,0.0,0.0,0.0,0.0,0.0,0.0,0.0,0.0,0.0,0.0,0.0,0.0,0.0,0.0,0.0,0.0,0.0,0.0,0.0,0.0,0.0,0.0,0.0,0.0,0.0,0.0,0.0,0.0,0.0,0.0,0.0,0.0,0.0,0.0,0.0,0.0,0.0,0.0,0.0,0.0,0.0,0.0,0.0,-2.4915,-2.5373,-2.5559,-2.4897,-2.4508,-2.4508,0.0,0.0,0.0,0.0,0.0,0.0,0.0,0.0,0.0,0.0,0.0,0.0,0.0,0.0,0.0,0.0,0.0,0.0,0.0,0.0,0.0,0.0,0.0,0.0,0.0,0.0,0.0,0.0,0.0,0.0,0.0,0.0,0.0,0.0,0.0,0.0,0.0,0.0,0.0,0.0,0.0,0.0,0.0,0.0,0.0,0.0,0.0,0.0,0.0,0.0,0.0,0.0,0.0,0.0,0.0,0.0,0.0,0.0,0.0,0.0,0.0,0.0,0.0,0.0,0.0,0.0,0.0,0.0,0.0,0.0,0.0,0.0,0.0,0.0,0.0,0.0,0.0,0.0,0.0,0.0,0.0,0.0,0.0,0.0,0.0,0.0,0.0,0.0,0.0,0.0,0.0,0.0,0.0,0.0,0.0,0.0,0.0,0.0,0.0,0.0,0.0,0.0,0.0,0.0,0.0,0.0,0.0,0.0,-2.346,-2.4169,-2.488,-2.5525,-2.4881,-2.4491,0.0,0.0,0.0,0.0,0.0,0.0,0.0,0.0,0.0,0.0,0.0,0.0,0.0,0.0,0.0,0.0,0.0,0.0,0.0,0.0,0.0,0.0,0.0,0.0,0.0,0.0,0.0,0.0,0.0,0.0,0.0,0.0,0.0,0.0,0.0,0.0,0.0,0.0,0.0,0.0,0.0,0.0,0.0,0.0,0.0,0.0,0.0,0.0,0.0,0.0,0.0,0.0,0.0,0.0,0.0,0.0,0.0,0.0,0.0,0.0,0.0,0.0,0.0,0.0,0.0,0.0,0.0,0.0,0.0,0.0,0.0,0.0,0.0,0.0,0.0,0.0,0.0,0.0,0.0,0.0,0.0,0.0,0.0,0.0,0.0,0.0,0.0,0.0,0.0,0.0,0.0,0.0,0.0,0.0,0.0,0.0,0.0,0.0,0.0,0.0,0.0,0.0,0.0,0.0,0.0,0.0,0.0,0.0,0.0,-2.2733,-2.341,-2.4152,-2.4831,-2.4171,-2.3797,0.0,0.0,0.0,0.0,0.0,0.0,0.0,0.0,0.0,0.0,0.0,0.0,0.0,0.0,0.0,0.0,0.0,0.0,0.0,0.0,0.0,0.0,0.0,0.0,0.0,0.0,0.0,0.0,0.0,0.0,0.0,0.0,0.0,0.0,0.0,0.0,0.0,0.0,0.0,0.0,0.0,0.0,0.0,0.0,0.0,0.0,0.0,0.0,0.0,0.0,0.0,0.0,0.0,0.0,0.0,0.0,0.0,0.0,0.0,0.0,0.0,0.0,0.0,0.0,0.0,0.0,0.0,0.0,0.0,0.0,0.0,0.0,0.0,0.0,0.0,0.0,0.0,0.0,0.0,0.0,0.0,0.0,0.0,0.0,0.0,0.0,0.0,0.0,0.0,0.0,0.0,0.0,0.0,0.0,0.0,0.0,0.0,0.0,0.0,0.0,0.0,0.0,0.0,0.0,0.0,0.0,0.0,0.0,0.0,-2.2677,0.0,-2.3437,-2.4132,-2.3691,-2.3321,0.0,0.0,0.0,0.0,0.0,0.0,0.0,0.0,0.0,0.0,0.0,0.0,0.0,0.0,0.0,0.0,0.0,0.0,0.0,0.0,0.0,0.0,0.0,0.0,0.0,0.0,0.0,0.0,0.0,0.0,0.0,0.0,0.0,0.0,0.0,0.0,0.0,0.0,0.0,0.0,0.0,0.0,0.0,0.0,0.0,0.0,0.0,0.0,0.0,0.0,0.0,0.0,0.0,0.0,0.0,0.0,0.0,0.0,0.0,0.0,0.0,0.0,0.0,0.0,0.0,0.0,0.0,0.0,0.0,0.0,0.0,0.0,0.0,0.0,0.0,0.0,0.0,0.0,0.0,0.0,0.0,0.0,0.0,0.0,0.0,0.0,0.0,0.0,0.0,0.0,0.0,0.0,0.0,0.0,0.0,0.0,0.0,0.0,0.0,0.0,0.0,0.0,0.0,0.0,0.0,0.0,0.0,0.0,-2.266,-2.3393,-2.2765,-2.2799,-2.3476,-2.3478,-2.311,0.0,0.0,0.0,0.0,0.0,0.0,0.0,0.0,0.0,0.0,0.0,0.0,0.0,0.0,0.0,0.0,0.0,0.0,0.0,0.0,0.0,0.0,0.0,0.0,0.0,0.0,0.0,0.0,0.0,0.0,0.0,0.0,0.0,0.0,0.0,0.0,0.0,0.0,0.0,0.0,0.0,0.0,0.0,0.0,0.0,0.0,0.0,0.0,0.0,0.0,0.0,0.0,0.0,0.0,0.0,0.0,0.0,0.0,0.0,0.0,0.0,0.0,0.0,0.0,0.0,0.0,0.0,0.0,0.0,0.0,0.0,0.0,0.0,0.0,0.0,0.0,0.0,0.0,0.0,0.0,0.0,0.0,0.0,0.0,0.0,0.0,0.0,0.0,0.0,0.0,0.0,0.0,0.0,0.0,0.0,0.0,0.0,0.0,0.0,0.0,0.0,0.0,0.0,0.0,0.0,0.0,0.0,0.0,0.0,-2.266,-2.2457,-2.2677,-2.3371,-2.2931,-2.2781,0.0,0.0,0.0,0.0,0.0,0.0,0.0,0.0,0.0,0.0,0.0,0.0,0.0,0.0,0.0,0.0,0.0,0.0,0.0,0.0,0.0,0.0,0.0,0.0,0.0,0.0,0.0,0.0,0.0,0.0,0.0,0.0,0.0,0.0,0.0,0.0,0.0,0.0,0.0,0.0,0.0,0.0,0.0,0.0,0.0,0.0,0.0,0.0,0.0,0.0,0.0,0.0,0.0,0.0,0.0,0.0,0.0,0.0,0.0,0.0,0.0,0.0,0.0,0.0,0.0,0.0,0.0,0.0,0.0,0.0,0.0,0.0,0.0,0.0,0.0,0.0,0.0,0.0,0.0,0.0,0.0,0.0,0.0,0.0,0.0,0.0,0.0,0.0,0.0,0.0,0.0,0.0,0.0,0.0,0.0,0.0,0.0,0.0,0.0,0.0,0.0,0.0,0.0,0.0,0.0,0.0,0.0,0.0,0.0,-2.2716,-2.2745,-2.2965,-2.3437,-2.2996,-2.2948,-2.3359,0.0,0.0,0.0,0.0,0.0,0.0,0.0,0.0,0.0,0.0,0.0,0.0,0.0,0.0,0.0,0.0,0.0,0.0,0.0,0.0,0.0,0.0,0.0,0.0,0.0,0.0,0.0,0.0,0.0,0.0,0.0,0.0,0.0,0.0,0.0,0.0,0.0,0.0,0.0,0.0,0.0,0.0,0.0,0.0,0.0,0.0,0.0,0.0,0.0,0.0,0.0,0.0,0.0,0.0,0.0,0.0,0.0,0.0,0.0,0.0,0.0,0.0,0.0,0.0,0.0,0.0,0.0,0.0,0.0,0.0,0.0,0.0,0.0,0.0,0.0,0.0,0.0,0.0,0.0,0.0,0.0,0.0,0.0,0.0,0.0,0.0,0.0,0.0,0.0,0.0,0.0,0.0,0.0,0.0,0.0,0.0,0.0,0.0,0.0,0.0,0.0,0.0,0.0,0.0,0.0,0.0,0.0,0.0,-2.346,-2.3568,-2.3612,-2.3563,-2.3495,-2.3466,0.0,0.0,0.0,0.0,0.0,0.0,0.0,0.0,0.0,0.0,0.0,0.0,0.0,0.0,0.0,0.0,0.0,0.0,0.0,0.0,0.0,0.0,0.0,0.0,0.0,0.0,0.0,0.0,0.0,0.0,0.0,0.0,0.0,0.0,0.0,0.0,0.0,0.0,0.0,0.0,0.0,0.0,0.0,0.0,0.0,0.0,0.0,0.0,0.0,0.0,0.0,0.0,0.0,0.0,0.0,0.0,0.0,0.0,0.0,0.0,0.0,0.0,0.0,0.0,0.0,0.0,0.0,0.0,0.0,0.0,0.0,0.0,0.0,0.0,0.0,0.0,0.0,0.0,0.0,0.0,0.0,0.0,0.0,0.0,0.0,0.0,0.0,0.0,0.0,0.0,0.0,0.0,0.0,0.0,0.0,0.0,0.0,0.0,0.0,0.0,0.0,0.0,0.0,0.0,0.0,0.0,0.0,0.0,0.0,-2.4203,-2.4762,-2.4777,-2.425,-2.371,-2.3676,0.0,0.0,0.0,0.0,0.0,0.0,0.0,0.0,0.0,0.0,0.0,0.0,0.0,0.0,0.0,0.0,0.0,0.0,0.0,0.0,0.0,0.0,0.0,0.0,0.0,0.0,0.0,0.0,0.0,0.0,0.0,0.0,0.0,0.0,0.0,0.0,0.0,0.0,0.0,0.0,0.0,0.0,0.0,0.0,0.0,0.0,0.0,0.0,0.0,0.0,0.0,0.0,0.0,0.0,0.0,0.0,0.0,0.0,0.0,0.0,0.0,0.0,0.0,0.0,0.0,0.0,0.0,0.0,0.0,0.0,0.0,0.0,0.0,0.0,0.0,0.0,0.0,0.0,0.0,0.0,0.0,0.0,0.0,0.0,0.0,0.0,0.0,0.0,0.0,0.0,0.0,0.0,0.0,0.0,0.0,0.0,0.0,0.0,0.0,0.0,0.0,0.0,0.0,0.0,0.0,0.0,0.0,0.0,-2.4068,-2.4491,-2.5203,-2.5389,-2.4965,-2.4543,-2.4432,0.0,0.0,0.0,0.0,0.0,0.0,0.0,0.0,0.0,0.0,0.0,0.0,0.0,0.0,0.0,0.0,0.0,0.0,0.0,0.0,0.0,0.0,0.0,0.0,0.0,0.0,0.0,0.0,0.0,0.0,0.0,0.0,0.0,0.0,0.0,0.0,0.0,0.0,0.0,0.0,0.0,0.0,0.0,0.0,0.0,0.0,0.0,0.0,0.0,0.0,0.0,0.0,0.0,0.0,0.0,0.0,0.0,0.0,0.0,0.0,0.0,0.0,0.0,0.0,0.0,0.0,0.0,0.0,0.0,0.0,0.0,0.0,0.0,0.0,0.0,0.0,0.0,0.0,0.0,0.0,0.0,0.0,0.0,0.0,0.0,0.0,0.0,0.0,0.0,0.0,0.0,0.0,0.0,0.0,0.0,0.0,0.0,0.0,0.0,0.0,0.0,0.0,0.0,0.0,0.0,0.0,0.0,0.0,-2.4508,-2.4508,-2.5287,-2.571,-2.5711,-2.5642,-2.5429,0.0,0.0,0.0,0.0,0.0,0.0,0.0,0.0,0.0,0.0,0.0,0.0,0.0,0.0,0.0,0.0,0.0,0.0,0.0,0.0,0.0,0.0,0.0,0.0,0.0,0.0,0.0,0.0,0.0,0.0,0.0,0.0,0.0,0.0,0.0,0.0,0.0,0.0,0.0,0.0,0.0,0.0,0.0,0.0,0.0,0.0,0.0,0.0,0.0,0.0,0.0,0.0,0.0,0.0,0.0,0.0,0.0,0.0,0.0,0.0,0.0,0.0,0.0,0.0,0.0,0.0,0.0,0.0,0.0,0.0,0.0,0.0,0.0,0.0,0.0,0.0,0.0,0.0,0.0,0.0,0.0,0.0,0.0,0.0,0.0,0.0,0.0,0.0,0.0,0.0,0.0,0.0,0.0,0.0,0.0,0.0,0.0,0.0,0.0,0.0,0.0,0.0,0.0,0.0,0.0,0.0,0.0,0.0,-2.4508,-2.4525,-2.5794,-2.6454,-2.6454,-2.5913,-2.556,0.0,0.0,0.0,0.0,0.0,0.0,0.0,0.0,0.0,0.0,0.0,0.0,0.0,0.0,0.0,0.0,0.0,0.0,0.0,0.0,0.0,0.0,0.0,0.0,0.0,0.0,0.0,0.0,0.0,0.0,0.0,0.0,0.0,0.0,0.0,0.0,0.0,0.0,0.0,0.0,0.0,0.0,0.0,0.0,0.0,0.0,0.0,0.0,-1.6543,0.0,0.0,0.0,0.0,0.0,0.0,0.0,0.0,0.0,0.0,0.0,0.0,0.0,0.0,0.0,0.0,0.0,0.0,0.0,0.0,0.0,0.0,0.0,0.0,0.0,0.0,0.0,0.0,0.0,0.0,0.0,0.0,0.0,0.0,0.0,0.0,0.0,0.0,0.0,0.0,0.0,0.0,0.0,0.0,0.0,0.0,0.0,0.0,0.0,0.0,0.0,0.0,0.0,0.0,0.0,0.0,0.0,0.0,0.0,-2.4508,-2.4541,-2.5929,-2.6708,-2.6691,-2.6319,-2.5933,0.0,0.0,0.0,0.0,0.0,0.0,0.0,0.0,0.0,0.0,0.0,0.0,0.0,0.0,0.0,0.0,0.0,0.0,0.0,0.0,0.0,0.0,0.0,0.0,0.0,0.0,0.0,0.0,0.0,0.0,0.0,0.0,0.0,0.0,0.0,0.0,0.0,0.0,0.0,0.0,0.0,0.0,0.0,0.0,0.0,0.0,0.0,0.0,0.0,0.0,0.0,0.0,0.0,0.0,0.0,0.0,0.0,0.0,0.0,0.0,0.0,0.0,0.0,0.0,0.0,0.0,0.0,0.0,0.0,0.0,0.0,0.0,0.0,0.0,0.0,0.0,0.0,0.0,0.0,0.0,0.0,0.0,0.0,0.0,0.0,0.0,0.0,0.0,0.0,0.0,0.0,0.0,0.0,0.0,0.0,0.0,0.0,0.0,0.0,0.0,0.0,0.0,0.0,0.0,0.0,0.0,0.0,-2.3308,-2.4358,-2.448,-2.5812,-2.6556,-2.6624,-2.6607,-2.6228,-2.5446,0.0,0.0,0.0,0.0,0.0,0.0,0.0,0.0,0.0,0.0,0.0,0.0,0.0,0.0,0.0,0.0,0.0,0.0,0.0,0.0,0.0,0.0,0.0,0.0,0.0,0.0,0.0,0.0,0.0,0.0,0.0,0.0,0.0,0.0,0.0,0.0,0.0,0.0,-1.6918,-1.7219,0.0,0.0,0.0,0.0,0.0,0.0,0.0,0.0,-1.6513,0.0,0.0,0.0,0.0,0.0,0.0,0.0,0.0,0.0,0.0,0.0,0.0,0.0,0.0,0.0,0.0,0.0,0.0,0.0,0.0,0.0,0.0,0.0,0.0,0.0,0.0,0.0,0.0,0.0,0.0,0.0,0.0,0.0,0.0,0.0,0.0,0.0,0.0,0.0,0.0,0.0,0.0,0.0,0.0,0.0,0.0,0.0,0.0,0.0,0.0,0.0,0.0,0.0,0.0,0.0,0.0,-2.1308,-2.2809,-2.3745,-2.408,-2.5209,-2.5899,-2.6177,-2.621,-2.5817,-2.5079,0.0,0.0,0.0,0.0,0.0,0.0,0.0,0.0,0.0,0.0,0.0,0.0,0.0,0.0,0.0,0.0,0.0,0.0,0.0,0.0,0.0,0.0,0.0,0.0,0.0,0.0,0.0,0.0,0.0,0.0,0.0,0.0,0.0,0.0,0.0,0.0,0.0,0.0,0.0,-1.7188,-1.7267,0.0,0.0,0.0,0.0,0.0,0.0,0.0,0.0,-1.6244,0.0,0.0,0.0,0.0,0.0,0.0,0.0,0.0,0.0,0.0,0.0,0.0,0.0,0.0,0.0,0.0,0.0,0.0,0.0,0.0,0.0,0.0,0.0,0.0,0.0,0.0,0.0,0.0,0.0,0.0,0.0,0.0,0.0,0.0,0.0,0.0,0.0,0.0,0.0,0.0,0.0,0.0,0.0,0.0,0.0,0.0,0.0,0.0,0.0,0.0,0.0,0.0,0.0,0.0,0.0,-2.1388,-2.3042,-2.4059,-2.4272,-2.514,-2.5848,-2.6385,-2.6033,-2.5636,0.0,0.0,0.0,0.0,0.0,0.0,0.0,0.0,0.0,0.0,0.0,0.0,0.0,0.0,0.0,0.0,0.0,0.0,0.0,0.0,0.0,0.0,0.0,0.0,0.0,0.0,0.0,0.0,0.0,0.0,0.0,0.0,0.0,0.0,0.0,0.0,0.0,0.0,0.0,0.0,-1.6825,-1.6857,-1.6615,0.0,0.0,0.0,0.0,0.0,0.0,-1.633,-1.6164,0.0,0.0,0.0,0.0,0.0,0.0,0.0,0.0,0.0,0.0,0.0,0.0,0.0,0.0,0.0,0.0,0.0,0.0,0.0,0.0,0.0,0.0,0.0,0.0,0.0,0.0,0.0,0.0,0.0,0.0,0.0,0.0,0.0,0.0,0.0,0.0,0.0,0.0,0.0,0.0,0.0,0.0,0.0,0.0,0.0,0.0,0.0,0.0,0.0,0.0,0.0,0.0,0.0,0.0,0.0,-2.1151,-2.2986,-2.3965,-2.3991,-2.4625,-2.5262,-2.5899,-2.548,-2.5188,0.0,0.0,0.0,0.0,0.0,0.0,0.0,0.0,0.0,0.0,0.0,0.0,0.0,0.0,0.0,0.0,0.0,0.0,0.0,0.0,0.0,0.0,0.0,0.0,0.0,0.0,0.0,0.0,0.0,0.0,0.0,0.0,0.0,0.0,0.0,0.0,0.0,0.0,0.0,0.0,0.0,-1.6513,-1.65,-1.6423,0.0,0.0,0.0,0.0,-1.5879,-1.6272,0.0,0.0,0.0,0.0,0.0,0.0,0.0,0.0,0.0,0.0,0.0,0.0,0.0,0.0,0.0,0.0,0.0,0.0,0.0,0.0,0.0,0.0,0.0,0.0,0.0,0.0,0.0,0.0,0.0,0.0,0.0,0.0,0.0,0.0,0.0,0.0,0.0,0.0,0.0,0.0,0.0,0.0,0.0,0.0,0.0,0.0,0.0,0.0,0.0,0.0,0.0,0.0,0.0,0.0,0.0,0.0,-2.0477,-2.1533,-2.2127,-2.2226,-2.2573,-2.2962,-2.3343,-2.3816,-2.3926,0.0,0.0,0.0,0.0,0.0,0.0,0.0,0.0,0.0,0.0,0.0,0.0,0.0,0.0,0.0,0.0,0.0,0.0,0.0,0.0,0.0,0.0,0.0,0.0,0.0,0.0,0.0,0.0,0.0,0.0,0.0,0.0,0.0,0.0,0.0,0.0,0.0,0.0,0.0,0.0,0.0,-1.6513,-1.6513,-1.6129,-1.602,0.0,0.0,0.0,-1.5883,-1.6607,0.0,0.0,0.0,0.0,0.0,0.0,0.0,0.0,0.0,0.0,0.0,0.0,0.0,0.0,0.0,0.0,0.0,0.0,0.0,0.0,0.0,0.0,0.0,0.0,0.0,0.0,0.0,0.0,0.0,0.0,0.0,0.0,0.0,0.0,0.0,0.0,0.0,0.0,0.0,0.0,0.0,0.0,0.0,0.0,0.0,0.0,0.0,0.0,0.0,0.0,0.0,0.0,0.0,0.0,0.0,-2.0974,-2.0909,-2.1902,-2.2527,-2.2747,-2.289,-2.334,-2.407,-2.397,-2.3989,0.0,0.0,0.0,0.0,0.0,0.0,0.0,0.0,0.0,0.0,0.0,0.0,0.0,0.0,0.0,0.0,0.0,0.0,0.0,0.0,0.0,0.0,0.0,0.0,0.0,0.0,0.0,0.0,0.0,0.0,0.0,0.0,0.0,0.0,0.0,0.0,0.0,0.0,0.0,0.0,0.0,0.0,-1.6151,-1.5932,0.0,0.0,0.0,-1.5881,-1.512,0.0,0.0,0.0,0.0,0.0,0.0,0.0,0.0,0.0,0.0,0.0,0.0,0.0,0.0,0.0,0.0,0.0,0.0,0.0,0.0,0.0,0.0,0.0,0.0,0.0,0.0,0.0,0.0,0.0,0.0,0.0,0.0,0.0,0.0,0.0,0.0,0.0,0.0,0.0,0.0,0.0,0.0,0.0,0.0,0.0,0.0,0.0,0.0,0.0,0.0,0.0,0.0,0.0,0.0,0.0,0.0,0.0,-2.1071,-2.1922,-2.2535,-2.2874,-2.289,-2.3341,-2.4284,-2.4043,0.0,0.0,0.0,0.0,0.0,0.0,0.0,0.0,0.0,0.0,0.0,0.0,0.0,0.0,0.0,0.0,0.0,0.0,0.0,0.0,0.0,0.0,0.0,0.0,0.0,0.0,0.0,0.0,0.0,0.0,0.0,0.0,0.0,0.0,0.0,0.0,0.0,0.0,0.0,0.0,0.0,0.0,-1.6592,-1.6249,-1.585,-1.5656,0.0,0.0,-1.5352,-1.4543,-1.5157,-1.5498,0.0,0.0,0.0,0.0,0.0,0.0,0.0,0.0,0.0,0.0,0.0,0.0,0.0,0.0,0.0,0.0,0.0,0.0,0.0,0.0,0.0,0.0,0.0,0.0,0.0,0.0,0.0,0.0,0.0,0.0,0.0,0.0,0.0,0.0,0.0,0.0,0.0,0.0,0.0,0.0,0.0,0.0,0.0,0.0,0.0,0.0,0.0,0.0,0.0,0.0,0.0,0.0,0.0,0.0,0.0,-2.0405,-2.0726,-2.1139,-2.1437,-2.1432,-2.1771,-2.2465,-2.3403,-2.373,0.0,0.0,0.0,0.0,0.0,0.0,0.0,0.0,0.0,0.0,0.0,0.0,0.0,0.0,0.0,0.0,0.0,0.0,0.0,0.0,0.0,0.0,0.0,0.0,0.0,0.0,0.0,0.0,0.0,0.0,0.0,0.0,0.0,0.0,0.0,0.0,0.0,0.0,0.0,0.0,0.0,-1.7313,-1.7303,-1.6069,-1.53,0.0,0.0,-1.505,-1.4496,-1.5206,-1.5383,-1.3945,0.0,0.0,0.0,0.0,0.0,0.0,0.0,0.0,0.0,0.0,0.0,0.0,0.0,0.0,0.0,0.0,0.0,0.0,0.0,0.0,0.0,0.0,0.0,0.0,0.0,0.0,0.0,0.0,0.0,0.0,0.0,0.0,0.0,0.0,0.0,0.0,0.0,0.0,0.0,0.0,0.0,0.0,0.0,0.0,0.0,0.0,0.0,0.0,0.0,0.0,0.0,0.0,0.0,-2.1196,-2.0626,-2.1153,-2.157,-2.191,-2.2306,-2.2733,-2.3198,-2.3617,-2.3865,0.0,0.0,0.0,0.0,0.0,0.0,0.0,0.0,0.0,0.0,0.0,0.0,0.0,0.0,0.0,0.0,0.0,0.0,0.0,0.0,0.0,0.0,0.0,0.0,0.0,0.0,0.0,0.0,-1.6981,-1.7071,-1.7498,0.0,0.0,0.0,0.0,0.0,0.0,0.0,0.0,0.0,0.0,-1.716,-1.651,-1.591,0.0,0.0,-1.5193,-1.4798,-1.4039,-1.4479,-1.482,-1.453,-1.4914,0.0,0.0,0.0,0.0,0.0,0.0,0.0,0.0,0.0,0.0,0.0,0.0,0.0,0.0,0.0,0.0,0.0,0.0,0.0,0.0,0.0,0.0,0.0,0.0,0.0,0.0,0.0,0.0,0.0,0.0,0.0,0.0,0.0,0.0,0.0,0.0,0.0,0.0,0.0,0.0,0.0,0.0,0.0,0.0,0.0,0.0,0.0,0.0,0.0,0.0,0.0,0.0,-2.1585,-2.0957,-2.1598,-2.2051,-2.2314,-2.2964,-2.3423,-2.3646,-2.3962,-2.4174,0.0,0.0,0.0,0.0,0.0,0.0,0.0,0.0,0.0,0.0,0.0,0.0,0.0,0.0,0.0,0.0,0.0,0.0,0.0,0.0,0.0,0.0,0.0,0.0,0.0,0.0,0.0,0.0,-1.7021,-1.701,-1.7614,0.0,0.0,0.0,0.0,0.0,0.0,0.0,0.0,0.0,0.0,-1.7112,-1.6392,-1.5909,-1.5467,-1.5153,-1.48,-1.4336,-1.3696,-1.3979,-1.4428,-1.4738,0.0,0.0,0.0,0.0,0.0,0.0,0.0,0.0,0.0,0.0,0.0,0.0,0.0,0.0,0.0,0.0,0.0,0.0,0.0,0.0,0.0,0.0,0.0,0.0,0.0,0.0,0.0,0.0,0.0,0.0,0.0,0.0,0.0,0.0,0.0,0.0,0.0,0.0,0.0,0.0,0.0,0.0,0.0,0.0,0.0,0.0,0.0,0.0,0.0,0.0,0.0,0.0,0.0,0.0,-2.1337,-2.1969,-2.2308,-2.2324,-2.2956,-2.3326,-2.3372,-2.4323,-2.4684,-2.4302,0.0,0.0,0.0,0.0,0.0,0.0,0.0,0.0,0.0,0.0,0.0,0.0,0.0,0.0,0.0,0.0,0.0,0.0,0.0,0.0,0.0,0.0,0.0,0.0,0.0,0.0,-1.7718,-1.6979,-1.6559,0.0,0.0,0.0,0.0,0.0,0.0,0.0,0.0,0.0,0.0,-1.7687,-1.7398,-1.7315,-1.6059,-1.5142,-1.5108,-1.428,-1.3631,-1.3631,-1.4003,-1.4304,0.0,0.0,0.0,0.0,0.0,0.0,0.0,0.0,0.0,0.0,0.0,0.0,0.0,0.0,0.0,0.0,0.0,0.0,0.0,0.0,0.0,0.0,0.0,0.0,0.0,0.0,0.0,0.0,-2.7386,0.0,0.0,0.0,0.0,0.0,0.0,0.0,0.0,0.0,0.0,0.0,-2.5137,-2.537,0.0,0.0,0.0,0.0,0.0,0.0,0.0,0.0,0.0,0.0,0.0,0.0,-2.2855,-2.2043,-2.2624,-2.2963,-2.2978,-2.3625,-2.3979,-2.3963,-2.4322,-2.4431,-2.4317,0.0,0.0,0.0,0.0,0.0,0.0,0.0,0.0,0.0,0.0,0.0,0.0,0.0,0.0,0.0,0.0,0.0,0.0,0.0,0.0,0.0,0.0,0.0,0.0,0.0,-1.839,0.0,0.0,0.0,0.0,0.0,0.0,0.0,0.0,0.0,0.0,0.0,-1.7961,-1.7614,-1.7465,-1.7135,-1.6438,-1.5921,-1.5333,0.0,0.0,0.0,0.0,0.0,0.0,0.0,0.0,0.0,0.0,0.0,0.0,0.0,0.0,-1.5211,-1.4445,-1.4334,-1.4047,-1.2843,0.0,0.0,0.0,0.0,0.0,0.0,0.0,0.0,0.0,0.0,0.0,0.0,0.0,0.0,0.0,0.0,-2.8145,0.0,0.0,0.0,0.0,0.0,0.0,0.0,0.0,-2.6054,-2.596,-2.5484,-2.5979,-2.595,0.0,-2.5911,-2.5832,0.0,0.0,0.0,0.0,0.0,0.0,0.0,0.0,-2.3302,-2.2701,-2.3302,-2.3533,-2.3332,-2.3963,-2.4194,-2.3979,-2.4179,-2.4281,-2.4281,-2.4281,-2.4281,0.0,0.0,0.0,0.0,0.0,0.0,0.0,0.0,0.0,0.0,0.0,0.0,0.0,0.0,0.0,0.0,0.0,0.0,0.0,0.0,0.0,0.0,0.0,-1.8804,0.0,0.0,0.0,0.0,0.0,0.0,0.0,0.0,0.0,-1.8429,-1.8078,-1.7759,-1.7589,-1.7459,-1.7111,-1.6424,0.0,0.0,0.0,0.0,0.0,0.0,0.0,-1.4987,-1.5587,-1.5853,-1.6008,-1.6143,-1.5887,-1.5639,-1.5473,0.0,0.0,-1.4215,-1.4192,-1.4013,-1.3414,-1.3154,-1.2971,-1.267,-1.1987,-1.1328,0.0,0.0,0.0,0.0,0.0,0.0,0.0,0.0,-2.9094,-2.9093,0.0,-2.9056,0.0,0.0,0.0,0.0,0.0,0.0,0.0,0.0,-2.7068,-2.7183,-2.657,-2.7215,-2.755,-2.7566,-2.7602,-2.7027,-2.5947,-2.5542,0.0,0.0,0.0,0.0,0.0,0.0,-2.3979,-2.3363,-2.3963,-2.3979,-2.3394,-2.3963,-2.3994,-2.3394,-2.3979,-2.4281,-2.4281,-2.4281,-2.4281,-2.4281,-2.4281,0.0,0.0,0.0,0.0,0.0,0.0,0.0,0.0,0.0,0.0,0.0,0.0,0.0,0.0,0.0,0.0,0.0,0.0,0.0,0.0,-1.957,0.0,0.0,0.0,0.0,0.0,0.0,0.0,0.0,0.0,0.0,-1.9093,-1.809,-1.7528,-1.803,0.0,0.0,0.0,0.0,-1.7436,-1.7351,-1.6537,-1.584,-1.5862,-1.5754,-1.568,-1.5739,0.0,0.0,-1.5822,-1.5711,-1.5583,-1.5127,-1.4687,-1.4469,-1.4888,-1.4461,-1.4068,-1.4011,-1.3796,-1.3672,-1.3516,-1.2644,-1.1895,-3.1252,0.0,0.0,0.0,0.0,-3.0791,-3.0738,-3.0645,-3.0628,-3.042,-3.0082,-3.0066,0.0,0.0,0.0,0.0,0.0,0.0,-2.6725,-2.6693,-2.7026,-2.7074,-2.6867,-2.7074,-2.7014,-2.6764,-2.7264,-2.7072,-2.6286,-2.6139,-2.5472,-2.4317,0.0,0.0,0.0,0.0,-2.421,-2.404,-2.421,-2.4225,-2.4025,-2.4194,-2.421,-2.4025,-2.4194,-2.4281,-2.4281,-2.4281,-2.4281,-2.4281,-2.4281,0.0,0.0,0.0,0.0,0.0,0.0,0.0,0.0,0.0,0.0,0.0,0.0,0.0,0.0,0.0,0.0,0.0,0.0,0.0,-1.9865,-1.9644,-1.947,0.0,0.0,0.0,0.0,0.0,0.0,0.0,0.0,0.0,-1.954,-1.8954,-1.8409,0.0,0.0,-1.7497,-1.6314,-1.6564,-1.6589,-1.5818,0.0,0.0,0.0,-1.5706,-1.5804,-1.6153,-1.6319,-1.6361,-1.6236,-1.5936,-1.5649,-1.5504,-1.5111,-1.4842,-1.4899,-1.443,-1.4078,-1.4199,-1.3913,-1.3507,-1.332,-1.2761,-1.2105,-3.212,-3.2084,-3.1675,-3.1481,-3.1515,-3.1805,-3.1905,-3.1813,-3.1793,-3.1579,-3.1281,-3.0918,-3.0535,-3.0005,-2.8984,0.0,0.0,0.0,-2.7183,-2.717,-2.7413,-2.7576,-2.7554,-2.7561,-2.7557,-2.758,-2.7457,-2.718,-2.6765,-2.6226,-2.5549,-2.4697,0.0,0.0,-2.4281,-2.4281,-2.4281,-2.4281,-2.4281,-2.4281,-2.4281,-2.4281,-2.4281,-2.4281,-2.4281,-2.4281,-2.4281,-2.4281,-2.4281,-2.4281,-2.4281,-2.4281,0.0,0.0,0.0,0.0,0.0,0.0,0.0,0.0,0.0,0.0,0.0,-1.9407,0.0,0.0,0.0,0.0,-2.0347,-2.0294,-2.0152,-2.0054,0.0,0.0,0.0,0.0,0.0,0.0,0.0,-1.9321,-1.9302,-1.9448,-1.9734,-1.9509,-1.9107,-1.852,-1.8268,-1.7786,-1.6808,0.0,-1.6979,-1.6308,-1.6015,-1.596,-1.6246,-1.6116,-1.6091,-1.635,-1.6208,-1.6216,-1.6361,-1.5894,-1.5504,-1.5577,-1.5163,-1.478,-1.4966,-1.4404,-1.4133,-1.476,-1.4503,-1.4148,-1.4046,-1.324,-1.2263,-3.2938,-3.2902,-3.2006,-3.1621,-3.1673,-3.2356,-3.2647,-3.2696,-3.2633,-3.261,-3.2522,-3.1724,-3.116,-3.0651,-2.9108,0.0,0.0,-2.7628,-2.7574,-2.7574,-2.8143,-2.8411,-2.8411,-2.8396,-2.8735,-2.9279,-2.8073,-2.7442,-2.7319,-2.6057,-2.5358,-2.5281,-2.462,-2.4281,-2.4281,-2.4281,-2.4281,-2.4281,-2.4281,-2.4281,-2.4281,-2.4281,-2.4281,-2.4281,-2.4281,-2.4281,-2.4281,-2.4281,-2.4281,-2.4281,-2.4281,-2.4281,-2.4281,0.0,0.0,0.0,0.0,0.0,0.0,0.0,0.0,0.0,0.0,0.0,0.0,0.0,0.0,0.0,-1.9865,0.0,-2.066,-2.0574,0.0,0.0,0.0,-2.0156,-2.0067,-2.0016,-1.9952,-1.9824,0.0,0.0,0.0,0.0,-1.9618,-1.9131,-1.859,-1.8201,-1.8027,-1.8031,-1.8054,-1.7791,-1.7451,-1.7107,-1.6963,-1.6652,-1.6371,-1.6381,-1.6001,-1.5866,-1.6184,-1.5608,-1.5245,-1.5525,-1.4935,-1.45,-1.4925,-1.4461,-1.4337,-1.5361,-1.5246,-1.5017,-1.4859,-1.3644,-1.2357,-3.3266,-3.3731,-3.2915,-3.2552,-3.2586,-3.2758,-3.3132,-3.3585,-3.3582,-3.3464,-3.3322,-3.3111,-3.2903,-3.2648,-3.1725,-3.1056,-3.0549,-2.9639,-2.9041,-2.8684,-2.8496,-2.8411,-2.8411,-2.8411,-2.8488,-2.8627,-2.8319,-2.7904,-2.7365,-2.6534,-2.5857,-2.5281,-2.4641,-2.4281,-2.4281,-2.4281,-2.4281,-2.4281,-2.4281,-2.4281,-2.4281,-2.4281,-2.4281,-2.4281,-2.4281,-2.4281,-2.4281,-2.4281,-2.4281,-2.4281,-2.4281,-2.4281,-2.4281,-2.4281,0.0,0.0,0.0,0.0,0.0,0.0,0.0,0.0,0.0,-2.0478,-2.0491,0.0,-2.066,0.0,-2.0465,-2.0568,-2.0699,-2.0562,0.0,0.0,-2.0385,-2.0233,-2.036,-2.0169,-1.999,-1.9965,-1.9862,-1.9798,-1.9798,-1.9798,-1.9747,-1.963,-1.9488,-1.8924,-1.7672,-1.782,-1.7765,-1.7004,-1.6722,-1.662,-1.6591,-1.6488,-1.6402,-1.6402,-1.5991,-1.577,-1.5853,-1.539,-1.5038,-1.5132,-1.5007,-1.4883,-1.4956,-1.4826,-1.4779,-1.4922,-1.4413,-1.3863,-1.3714,-1.3058,-1.2352,-3.418,-3.451,-3.3369,-3.3283,-3.3921,-3.3921,-3.4123,-3.4479,-3.4455,-3.435,-3.415,-3.3722,-3.3178,-3.2609,-3.2509,-3.1874,-3.0789,-3.0206,-2.9651,-2.909,-2.8605,-2.8565,-2.8842,-2.8526,-2.8565,-2.8842,-2.855,-2.8057,-2.738,-2.6741,-2.601,-2.5296,-2.462,-2.4281,-2.4281,-2.4281,-2.4281,-2.4281,-2.4281,-2.4281,-2.4281,-2.4281,-2.4281,-2.4281,-2.4281,-2.4281,-2.4281,-2.4281,-2.4281,-2.4281,-2.4281,-2.4281,-2.4281,-2.4281,-2.4281,0.0,0.0,0.0,0.0,0.0,0.0,0.0,0.0,0.0,0.0,0.0,-2.0699,0.0,0.0,0.0,-2.0699,-2.0637,-2.0612,-2.0687,-2.0549,-2.041,-2.0385,-2.0195,-2.0029,-1.9926,-1.9837,-1.9798,-1.9798,-1.9798,-1.9798,-1.9798,-1.9798,-1.9267,-1.7918,-1.7672,-1.7379,-1.6563,-1.6402,-1.6402,-1.6402,-1.6402,-1.6402,-1.6322,-1.5815,-1.5442,-1.5645,-1.4956,-1.4438,-1.4624,-1.4521,-1.4386,-1.4386,-1.4326,-1.425,-1.4058,-1.3691,-1.3383,-1.3394,-1.2976,-1.2392,-3.5249,-3.5214,-3.3783,-3.4024,-3.5335,-3.5335,-3.5356,-3.5335,-3.5287,-3.5183,-3.4989,-3.413,-3.3136,-3.2207,-3.274,-3.199,-3.0353,-3.0353,-2.9995,-2.9182,-2.8724,-2.8793,-2.9258,-2.8688,-2.8704,-2.9233,-2.8704,-2.8057,-2.7396,-2.6795,-2.6164,-2.5435,-2.4764,-2.4425,-2.4441,-2.442,-2.4394,-2.4297,-2.4281,-2.4281,-2.4281,-2.4281,-2.4281,-2.4281,-2.4281,-2.4281,-2.4281,-2.4281,-2.4281,-2.4281,-2.4281,-2.4281,-2.4281,-2.4281,-2.4281,0.0,-2.4281,0.0,0.0,0.0,0.0,0.0,0.0,0.0,0.0,-2.0947,-2.0699,-2.0699,-2.0699,-2.0699,-2.0699,-2.0699,-2.0699,-2.0699,-2.0699,-2.0574,-2.0322,-2.0258,-2.0156,-1.9888,-1.9837,-1.9837,-1.9798,-1.9798,-1.9798,-1.9798,-1.9798,-1.9397,-1.8417,-1.7847,-1.7335,-1.662,-1.6431,-1.6402,-1.6402,-1.6402,-1.6371,-1.6247,-1.5587,-1.5132,-1.5401,-1.4469,-1.3741,-1.4086,-1.3931,-1.3648,-1.3586,-1.3522,-1.3368,-1.3288,-1.3187,-1.3199,-1.3406,-1.3119,-1.2445,-3.5542,-3.599,-3.5128,-3.5266,-3.6094,-3.6094,-3.6094,-3.6094,-3.6073,-3.6027,-3.5938,-3.5638,-3.5394,-3.5142,-3.4678,-3.3939,-3.2916,-3.1992,-3.093,-2.9745,-2.9271,-2.8889,-2.8605,-2.8458,-2.8449,-2.8596,-2.8473,-2.8057,-2.7396,-2.7272,-2.6857,-2.618,-2.5472,-2.5112,0.0,0.0,0.0,0.0,-2.4281,-2.4281,-2.4281,-2.4281,-2.4281,-2.4281,-2.4281,0.0,-2.4281,-2.4281,-2.4281,-2.4281,-2.4281,0.0,0.0,0.0,0.0,0.0,0.0,0.0,0.0,0.0,0.0,0.0,-2.2095,-2.1253,-2.0873,-2.0762,-2.0699,-2.0699,-2.0699,-2.0699,-2.0699,-2.0699,-2.0699,-2.0699,-2.0699,-2.0674,-2.0599,-2.0498,-2.0347,-2.0156,-2.0029,-1.9926,-1.9798,-1.9798,-1.9798,-1.9798,-1.9798,-1.954,-1.8922,-1.8682,-1.824,-1.7268,-1.6722,-1.642,-1.6402,-1.6392,-1.6278,-1.5894,-1.538,-1.4925,-1.4624,-1.4093,-1.3607,-1.3765,-1.3648,-1.3563,-1.3467,-1.342,-1.3348,-1.3162,-1.3099,-1.3105,-1.3052,-1.2949,-1.2787,-3.5973,0.0,-3.5508,-3.5611,0.0,-3.5904,-3.5973,-3.6284,-3.6284,-3.6255,-3.6204,-3.6079,-3.5809,-3.545,-3.545,-3.4592,-3.3134,-3.266,-3.1683,-3.0335,-2.9546,-2.9081,-2.8881,-2.8549,-2.8436,-2.8493,-2.8436,-2.8057,-2.7411,-2.7396,-2.6872,-2.5857,-2.5841,-2.5672,-2.5312,-2.5296,-2.5149,-2.481,-2.4471,-2.4281,-2.4281,-2.4281,-2.4281,-2.4281,0.0,0.0,0.0,0.0,0.0,0.0,0.0,0.0,0.0,0.0,0.0,-2.4281,-2.4276,-2.425,-2.425,-2.3931,-2.3702,-2.3573,-2.2581,-2.1589,-2.0787,-2.0699,-2.0699,-2.0699,-2.0699,-2.0699,-2.0699,-2.0699,-2.0699,-2.0699,-2.0699,-2.0674,-2.0612,-2.0537,-2.0398,-2.0131,-2.0042,-1.9952,-1.9824,-1.9798,-1.9798,-1.9798,-1.9798,-1.9695,-1.9448,-1.916,-1.8655,-1.7781,-1.7168,-1.6814,-1.6758,-1.6524,-1.6257,-1.579,-1.5308,-1.4842,-1.4386,-1.3896,-1.361,-1.361,-1.361,-1.3563,-1.3515,-1.3491,-1.3443,-1.3296,-1.32,-1.3113,-1.3027,-1.2954,-1.2798,-3.6284,-3.6249,-3.5645,-3.5732,-3.6249,-3.5666,-3.5732,-3.6284,0.0,0.0,0.0,-3.5985,-3.56,-3.5189,-3.5531,-3.4727,-3.3091,-3.3143,-3.2496,-3.1189,-3.0228,-2.9774,-2.9767,-2.9005,-2.8726,-2.8807,-2.8578,-2.8206,-2.7666,-2.7651,-2.708,-2.6061,-2.6416,-2.6301,-2.5725,-2.5564,-2.5542,-2.5619,-2.4764,-2.4281,-2.4281,-2.4281,-2.4343,-2.4405,-2.4323,-2.4323,-2.4405,-2.4343,-2.4281,-2.4281,-2.4281,-2.4281,-2.4281,-2.4281,-2.4281,-2.4281,-2.4281,-2.4281,-2.4281,-2.4281,-2.4036,-2.3406,-2.2793,-2.1978,-2.0923,-2.0823,-2.0774,-2.0699,-2.0699,-2.0699,-2.0699,-2.0699,-2.0699,-2.0699,-2.0699,-2.0662,-2.0562,-2.0537,-2.041,-2.0118,-2.0067,-1.9978,-1.9837,-1.9798,-1.9798,-1.9798,-1.9798,-1.9798,-1.9759,-1.9317,-1.8827,-1.8321,-1.7765,-1.7368,-1.7285,-1.6927,-1.6385,-1.5972,-1.5404,-1.4842,-1.4386,-1.3931,-1.3652,-1.361,-1.361,-1.3586,-1.3563,-1.3549,-1.3515,-1.3396,-1.3256,-1.318,-1.3104,-1.3027,-1.2808,-3.6284,-3.6284,-3.618,-3.6197,-3.6284,-3.618,-3.6197,-3.6284,-3.6284,-3.6301,-3.6245,-3.5608,-3.5604,-3.6035,-3.4898,-3.4556,-3.4794,-3.42,-3.3564,0.0,-3.2293,-3.1753,-3.1238,-3.013,-2.9612,-2.959,-2.9051,-2.87,-2.8622,-2.8591,-2.8482,-2.8233,-2.7797,-2.7402,-2.7225,-2.6586,-2.6518,-2.7042,-2.5256,-2.4281,-2.4281,-2.4281,-2.4451,-2.4764,-2.4472,-2.4451,-2.4799,-2.4472,-2.4281,-2.4281,-2.4281,-2.4281,-2.4281,-2.4281,-2.4281,-2.4281,-2.4281,-2.4281,-2.4281,-2.4281,-2.3994,-2.3304,-2.3076,-2.2503,-2.141,-2.1302,-2.1131,-2.0749,-2.0699,-2.0699,-2.0699,-2.0699,-2.0699,-2.0699,-2.0699,-2.0674,-2.0649,-2.0662,-2.0524,-2.0233,-2.0182,-2.008,-1.9888,-1.9824,-1.9798,-1.9798,-1.9798,-1.9798,-1.9721,-1.9356,-1.9025,-1.8827,-1.8375,-1.8038,-1.7929,-1.7462,-1.6923,-1.6456,-1.5595,-1.4899,-1.4399,-1.391,-1.3631,-1.361,-1.361,-1.3563,-1.3467,-1.342,-1.3396,-1.329,-1.3242,-1.3194,-1.318,-1.3128,-1.2992,-3.6284,-3.6284,-3.6284,-3.6284,-3.6284,-3.6284,-3.6284,-3.6284,-3.6284,-3.6284,-3.6266,-3.5956,-3.599,-3.6215,-3.5594,-3.5232,-3.518,-3.4835,-3.4318,-3.3663,-3.3131,-3.2546,-3.194,-3.1021,-3.0392,-3.0061,-2.9688,-2.9506,-2.9467,-2.925,-2.9082,-2.8906,-2.8367,-2.814,-2.8186,-2.7488,-2.7384,-2.7888,-2.5883,-2.482,-2.482,-2.4481,-2.4492,-2.4883,-2.4719,-2.4684,-2.4883,-2.4719,-2.4533,-2.4302,-2.4281,-2.4281,-2.4281,-2.4281,-2.4281,-2.4281,-2.4281,-2.4281,-2.4281,-2.4281,-2.4156,-2.3745,-2.3631,-2.3238,-2.2388,-2.1746,-2.1204,-2.0749,-2.0699,-2.0699,-2.0699,-2.0699,-2.0699,-2.0699,-2.0699,-2.0699,-2.0699,-2.0699,-2.0612,-2.0398,-2.0347,-2.0271,-2.0042,-1.9939,-1.9926,-1.9901,-1.9875,-1.9798,-1.9798,-1.9592,-1.9422,-1.9384,-1.8975,-1.8629,-1.8536,-1.8054,-1.7423,-1.671,-1.5957,-1.5232,-1.4534,-1.3963,-1.3665,-1.361,-1.361,-1.3586,-1.3515,-1.3515,-1.3467,-1.3443,-1.3338,-1.3314,-1.329,-1.3238,-1.3104,-3.6422,-3.6559,-3.6387,-3.6284,-3.6284,-3.6284,-3.6284,-3.6284,-3.6284,-3.6284,-3.6266,-3.6128,-3.6146,-3.6266,-3.5956,-3.5663,-3.5439,-3.5266,-3.4956,-3.4571,-3.4015,-3.3499,-3.2959,-3.2038,-3.1259,-3.0825,-3.0585,-3.0345,-3.0187,-2.9973,-2.974,-2.942,-2.902,-2.8916,-2.9129,-2.853,-2.843,-2.864,-2.7057,-2.5988,-2.5649,-2.4957,-2.4799,-2.5121,-2.5098,-2.5098,-2.5141,-2.4985,-2.4759,-2.4467,-2.4343,-2.4281,-2.4281,-2.4281,-2.4281,-2.4281,-2.4281,-2.4281,-2.4281,-2.4281,-2.4276,-2.4208,-2.4082,-2.3732,-2.3127,-2.2273,-2.1482,-2.0972,-2.086,-2.0823,-2.0724,-2.0699,-2.0699,-2.0699,-2.0699,-2.0699,-2.0699,-2.0699,-2.0649,-2.0549,-2.0524,-2.0436,-2.0246,-2.0118,-2.0029,-1.999,-1.9901,-1.9798,-1.9798,-1.9798,-1.9798,-1.9721,-1.9436,-1.9212,-1.9121,-1.8528,-1.7836,-1.6995,-1.6305,-1.5606,-1.4887,-1.4318,-1.3918,-1.3871,-1.38,-1.3729,-1.3658,-1.361,-1.3586,-1.3563,-1.3491,-1.3443,-1.3386,-1.3324,-1.318,-3.6697,-3.7236,-3.6594,-3.6284,-3.6284,-3.6284,-3.6284,-3.6284,-3.6284,-3.6284,-3.6232,-3.5611,-3.5732,-3.6059,-3.4976,-3.5059,-3.6077,-3.549,-3.5508,-3.5983,-3.5589,-3.534,-3.5013,-3.3373,-3.2436,-3.2304,-3.1762,-3.1207,-3.0705,-3.1123,-3.1035,-3.0439,-3.0194,-3.0105,-3.0107,-2.9923,-2.9891,-2.9917,-2.9165,-2.807,-2.6717,-2.5948,-2.5721,-2.598,-2.5633,-2.5615,-2.5957,-2.5291,-2.4883,-2.4823,-2.4492,-2.4302,-2.4302,-2.4317,-2.4281,-2.4281,-2.4281,-2.4281,-2.4281,-2.4281,-2.4276,-2.4187,-2.4067,-2.3769,-2.3194,-2.2926,-2.2342,-2.163,-2.1364,-2.1131,-2.0787,-2.0699,-2.0699,-2.0699,-2.0699,-2.0699,-2.0699,-2.0699,-2.0662,-2.0524,-2.0524,-2.0436,-2.0283,-2.022,-2.0144,-2.0042,-1.9926,-1.985,-1.9824,-1.9824,-1.9837,-1.9798,-1.9721,-1.967,-1.953,-1.8788,-1.8117,-1.7814,-1.6745,-1.5923,-1.5484,-1.5164,-1.4834,-1.4373,-1.4326,-1.4176,-1.3834,-1.361,-1.3644,-1.361,-1.3563,-1.3539,-1.3443,-1.3396,-1.33,-3.649,-3.6732,-3.6439,-3.6284,-3.6284,-3.6284,-3.6284,-3.6284,-3.6284,-3.6284,-3.6335,-3.6477,-3.6456,-3.6266,-3.5645,-3.5749,-3.6301,-3.6494,-3.6439,-3.64,-3.7002,-3.6679,-3.5369,-3.5032,-3.4368,-3.3532,-3.3196,-3.2927,-3.2655,-3.2465,-3.1732,-3.0647,-3.0666,-3.0662,-3.0439,-3.0356,-3.0427,-3.0673,-3.0008,-2.9401,-2.891,-2.7758,-2.7281,-2.7511,-2.6982,-2.6712,-2.6755,-2.6063,-2.5503,-2.5256,-2.4879,-2.4659,-2.4623,-2.4431,-2.4281,-2.4281,-2.4281,-2.4281,-2.4281,-2.4281,-2.4297,-2.4255,-2.4187,-2.3982,-2.3698,-2.3874,-2.3699,-2.2909,-2.1976,-2.1302,-2.1144,-2.0873,-2.0699,-2.0699,-2.0699,-2.0699,-2.0699,-2.0699,-2.0662,-2.0612,-2.0612,-2.0599,-2.0524,-2.0423,-2.0322,-2.0156,-2.008,-2.0016,-1.9939,-1.9926,-1.9888,-1.9786,-1.956,-1.9334,-1.9309,-1.9008,-1.84,-1.7725,-1.6918,-1.6255,-1.5809,-1.5417,-1.5017,-1.4834,-1.4811,-1.4628,-1.4186,-1.4069,-1.4022,-1.38,-1.361,-1.3586,-1.3525,-1.3515,-1.342,-3.6439,-3.6577,-3.6387,-3.6404,-3.6611,-3.6387,-3.6284,-3.6284,-3.6284,-3.6284,-3.637,-3.715,-3.7185,-3.6697,-3.6818,-3.6835,-3.6715,-3.7236,-3.7202,-3.6732,-3.7594,-3.706,-3.5645,-3.5801,-3.5439,-3.4579,-3.4404,-3.4387,-3.432,-3.3611,-3.2527,-3.1389,-3.1447,-3.1328,-3.0902,-3.0828,-3.0985,-3.1225,-3.0751,-3.0609,-3.0652,-2.9711,-2.9049,-2.8831,-2.8254,-2.7915,-2.7862,-2.7164,-2.6512,-2.5999,-2.5483,-2.5108,-2.4883,-2.4513,-2.4281,-2.4281,-2.4281,-2.4281,-2.4281,-2.4281,-2.4281,-2.4312,-2.4388,-2.4349,-2.4213,-2.4517,-2.4492,-2.3826,-2.262,-2.1835,-2.164,-2.1213,-2.0873,-2.0724,-2.0699,-2.0699,-2.0699,-2.0699,-2.0699,-2.0699,-2.0674,-2.0699,-2.0674,-2.0574,-2.0436,-2.0322,-2.0233,-2.0195,-2.008,-2.0054,-1.9965,-1.9686,-1.9296,-1.9095,-1.897,-1.8607,-1.8191,-1.7656,-1.6911,-1.64,-1.6059,-1.5691,-1.5367,-1.539,-1.5322,-1.5096,-1.4674,-1.4512,-1.4233,-1.38,-1.3644,-1.3644,-1.3586,-1.3586,-1.3515,-3.6732,-3.7249,-3.6611,-3.6749,-3.7392,-3.6628,-3.6301,-3.637,-3.6335,-3.6318,-3.6508,-3.7232,-3.7512,-3.7512,-3.8163,-3.8134,-3.753,-3.7581,-3.7581,-3.7409,-3.6922,-3.6439,-3.6215,-3.5576,-3.5283,-3.5283,-3.5266,-3.52,-3.5076,-3.4387,-3.3628,-3.2775,-3.2706,-3.2416,-3.1774,-3.1653,-3.1744,-3.1691,-3.1605,-3.1677,-3.1678,-3.1607,-3.0756,-2.9535,-2.9244,-2.9123,-2.8965,-2.8622,-2.7977,-2.7129,-2.6373,-2.5643,-2.4997,-2.4538,-2.4323,-2.4302,-2.4281,-2.4281,-2.4281,-2.4281,-2.4281,-2.4358,-2.4725,-2.4845,-2.4288,-2.4568,-2.4535,-2.3889,-2.3282,-2.2751,-2.2393,-2.1719,-2.1169,-2.0812,-2.0712,-2.0699,-2.0699,-2.0699,-2.0699,-2.0699,-2.0699,-2.0699,-2.0687,-2.0587,-2.0549,-2.0461,-2.0322,-2.0207,-2.0207,-2.0207,-1.9927,-1.947,-1.9205,-1.9118,-1.8932,-1.8329,-1.7677,-1.7215,-1.6798,-1.6489,-1.6495,-1.638,-1.6129,-1.5932,-1.5822,-1.5591,-1.5142,-1.472,-1.4292,-1.3941,-1.3787,-1.3739,-1.3644,-1.361,-1.3539,-3.6749,-3.7461,-3.7202,-3.7254,-3.7409,-3.6628,-3.6594,-3.7064,-3.7042,-3.7335,-3.7836,-3.856,-3.8629,-3.8267,-3.9531,-3.9393,-3.8323,-3.8681,-3.8646,-3.8336,-3.891,-3.8715,-3.7818,-3.7939,-3.7525,-3.6766,-3.6667,-3.6128,-3.5232,-3.4924,-3.4145,-3.3076,-3.2904,-3.2541,-3.1921,-3.18,-3.18,-3.18,-3.18,-3.18,-3.18,-3.18,-3.1488,-3.0916,-3.0347,-3.0035,-2.9927,-2.9268,-2.8496,-2.7612,-2.7064,-2.642,-2.5712,-2.504,-2.4574,-2.4323,-2.4281,-2.4281,-2.4281,-2.4281,-2.4281,-2.4312,-2.4476,-2.4602,-2.434,-2.4667,-2.4869,-2.4563,-2.4297,-2.3935,-2.3302,-2.2273,-2.1337,-2.1169,-2.0898,-2.0724,-2.0699,-2.0699,-2.0699,-2.0699,-2.0699,-2.0699,-2.0699,-2.0662,-2.0637,-2.0637,-2.0587,-2.0473,-2.0398,-2.0372,-2.0116,-1.9441,-1.8959,-1.8545,-1.8057,-1.7748,-1.7322,-1.6936,-1.66,-1.6529,-1.6513,-1.65,-1.6272,-1.6228,-1.6185,-1.5976,-1.5546,-1.5164,-1.4674,-1.4303,-1.4116,-1.3858,-1.3668,-1.3668,-1.3586,-3.7284,-3.8116,-3.7961,-3.7858,-3.7749,-3.7025,-3.6991,-3.7495,-3.7512,-3.7909,-3.8629,-3.937,-3.9405,-3.9215,-4.0342,-4.0394,-3.9428,-3.9612,-3.9439,-3.9026,-3.9784,-3.9618,-3.8836,-3.9112,-3.8841,-3.7927,-3.7616,-3.6822,-3.5697,-3.5542,-3.4869,-3.3731,-3.3438,-3.2904,-3.2265,-3.1921,-3.18,-3.18,-3.18,-3.18,-3.18,-3.18,-3.18,-3.1714,-3.1211,-3.0863,-3.0787,-3.0199,-2.9342,-2.8367,-2.782,-2.7077,-2.5985,-2.5291,-2.4784,-2.4533,-2.4364,-2.4281,-2.4281,-2.4281,-2.4394,-2.4641,-2.4887,-2.4952,-2.4934,-2.5243,-2.5321,-2.5096,-2.4653,-2.432,-2.388,-2.2732,-2.1841,-2.1626,-2.1229,-2.0923,-2.0909,-2.0785,-2.0699,-2.0699,-2.0699,-2.0699,-2.0699,-2.0699,-2.0699,-2.0699,-2.0699,-2.0662,-2.0587,-2.0549,-2.02,-1.9392,-1.886,-1.8226,-1.7683,-1.7286,-1.7077,-1.6741,-1.6597,-1.6547,-1.6513,-1.6513,-1.6513,-1.6513,-1.6414,-1.6228,-1.5954,-1.5579,-1.5164,-1.4731,-1.4419,-1.4163,-1.3952,-1.3716,-1.3644,-3.838,-3.9473,-3.891,-3.8587,-3.841,-3.7702,-3.7461,-3.7581,-3.7599,-3.806,-3.8945,-3.9474,-3.9802,-3.9871,-4.0567,-4.0843,-4.0618,-4.0077,-3.9802,-3.9698,-3.9198,-3.8939,-3.8819,-3.8922,-3.8876,-3.8543,-3.7836,-3.715,-3.6456,-3.6266,-3.5783,-3.5128,-3.4404,-3.3697,-3.2921,-3.2283,-3.1869,-3.1869,-3.1869,-3.18,-3.18,-3.18,-3.18,-3.18,-3.1731,-3.1624,-3.1547,-3.1435,-3.0592,-2.9169,-2.8617,-2.7481,-2.5877,-2.5195,-2.4902,-2.4819,-2.4533,-2.4302,-2.4281,-2.4343,-2.4666,-2.5142,-2.5887,-2.6118,-2.5958,-2.5998,-2.5732,-2.5098,-2.4429,-2.39,-2.3909,-2.3334,-2.2672,-2.2165,-2.166,-2.1326,-2.1277,-2.0972,-2.0699,-2.0699,-2.0699,-2.0699,-2.0699,-2.0699,-2.0699,-2.0699,-2.0699,-2.0699,-2.0661,-2.0584,-2.0089,-1.9225,-1.8639,-1.8119,-1.747,-1.6901,-1.6752,-1.6599,-1.6556,-1.6522,-1.6513,-1.6513,-1.6513,-1.6513,-1.6513,-1.6349,-1.6173,-1.5822,-1.5601,-1.522,-1.4858,-1.4478,-1.421,-1.3975,-1.3739,-4.0091,-4.0219,-3.9975,-3.9355,-3.8548,-3.7823,-3.7771,-3.8254,-3.8272,-3.8996,-4.0066,-4.0405,-4.0532,-4.0567,-4.0808,-4.0894,-4.0877,-4.0636,-4.0515,-4.0463,-4.0256,-4.0135,-4.0152,-4.017,-3.9911,-3.9215,-3.8082,-3.7668,-3.7668,-3.6835,-3.6163,-3.5852,-3.5214,-3.4456,-3.3714,-3.2972,-3.2559,-3.249,-3.2041,-3.18,-3.18,-3.18,-3.18,-3.18,-3.18,-3.1781,-3.1727,-3.1634,-3.0787,-2.9261,-2.8996,-2.7978,-2.6292,-2.554,-2.5195,-2.4883,-2.4533,-2.4281,-2.4343,-2.4718,-2.5019,-2.5373,-2.5964,-2.6057,-2.5733,-2.5628,-2.5314,-2.4716,-2.4252,-2.4103,-2.4061,-2.3861,-2.3392,-2.2859,-2.1983,-2.1434,-2.1385,-2.1021,-2.0724,-2.0699,-2.0699,-2.0699,-2.0699,-2.0699,-2.0699,-2.0699,-2.0699,-2.0699,-2.066,-2.036,-1.9826,-1.9034,-1.8549,-1.805,-1.7385,-1.696,-1.6876,-1.6727,-1.6663,-1.6577,-1.6556,-1.6513,-1.6513,-1.6513,-1.6513,-1.6457,-1.6293,-1.6151,-1.5932,-1.5756,-1.5433,-1.5017,-1.4524,-1.4257,-1.4093,-4.1026,-4.0801,-4.1059,-4.0379,-3.9231,-3.8933,-3.8919,-3.9011,-3.9273,-3.9837,-4.047,-4.0838,-4.0918,-4.0912,-4.0894,-4.0894,-4.0894,-4.0894,-4.0894,-4.0894,-4.0894,-4.0894,-4.0894,-4.0894,-4.0498,-3.9698,-3.875,-3.841,-3.8508,-3.7663,-3.7025,-3.668,-3.5973,-3.5232,-3.449,-3.3749,-3.3352,-3.3266,-3.2904,-3.2507,-3.2283,-3.2214,-3.2076,-3.1852,-3.18,-3.18,-3.18,-3.1726,-3.1086,-2.9811,-2.909,-2.8027,-2.6799,-2.6125,-2.554,-2.5157,-2.4775,-2.4565,-2.4662,-2.4804,-2.5226,-2.561,-2.585,-2.5911,-2.5672,-2.5512,-2.5066,-2.4758,-2.4367,-2.4202,-2.4208,-2.4088,-2.3855,-2.3538,-2.2663,-2.1969,-2.1684,-2.124,-2.0983,-2.0934,-2.0823,-2.0724,-2.0699,-2.0699,-2.0699,-2.0699,-2.0699,-2.0699,-2.0581,-2.019,-1.9577,-1.8979,-1.8448,-1.7883,-1.7255,-1.7044,-1.6989,-1.6897,-1.6782,-1.6697,-1.6633,-1.6556,-1.6513,-1.6513,-1.6513,-1.6513,-1.638,-1.6414,-1.6306,-1.6129,-1.5932,-1.5522,-1.5085,-1.4811,-1.4581,-4.1355,-4.1424,-4.2181,-4.1566,-4.0324,-4.079,-4.0524,-3.9929,-4.0367,-4.0503,-4.0423,-4.1011,-4.1198,-4.1065,-4.1163,-4.1163,-4.1018,-4.1134,-4.1111,-4.1065,-4.1035,-4.1012,-4.0918,-4.0894,-4.0532,-3.9939,-3.9646,-3.9319,-3.8991,-3.8525,-3.8232,-3.7508,-3.6749,-3.599,-3.5249,-3.4527,-3.4096,-3.3955,-3.3906,-3.3404,-3.2766,-3.2731,-3.2472,-3.1834,-3.18,-3.18,-3.18,-3.1679,-3.1245,-3.0347,-2.8801,-2.7861,-2.7569,-2.6733,-2.5906,-2.5654,-2.5204,-2.5042,-2.5066,-2.4915,-2.5022,-2.5956,-2.5795,-2.5595,-2.598,-2.5595,-2.5204,-2.5004,-2.4526,-2.4229,-2.4255,-2.4151,-2.4067,-2.4067,-2.337,-2.2731,-2.2165,-2.1684,-2.1482,-2.1361,-2.1057,-2.0785,-2.0909,-2.086,-2.0785,-2.0761,-2.0749,-2.0699,-2.0517,-2.0124,-1.9538,-1.8963,-1.834,-1.7757,-1.7162,-1.7149,-1.7094,-1.7031,-1.691,-1.6782,-1.6675,-1.6577,-1.6513,-1.6513,-1.6513,-1.6513,-1.6513,-1.6513,-1.6513,-1.6371,-1.6163,-1.5932,-1.5645,-1.53,-1.4926,-4.2475,-4.2705,-4.285,-4.2194,-4.1084,-4.1227,-4.1153,-4.0894,-4.1056,-4.1423,-4.1726,-4.2011,-4.2056,-4.2077,-4.2038,-4.208,-4.2015,-4.2035,-4.1885,-4.1666,-4.1657,-4.1323,-4.0989,-4.0912,-4.0814,-4.0538,-4.0049,-3.9888,-4.017,-3.9203,-3.8582,-3.8284,-3.7542,-3.6766,-3.6008,-3.5266,-3.4611,-3.4059,-3.3507,-3.2972,-3.2352,-3.2196,-3.2007,-3.1852,-3.18,-3.18,-3.1731,-3.1265,-3.0574,-2.9678,-2.8201,-2.7571,-2.7827,-2.6923,-2.6406,-2.6467,-2.587,-2.524,-2.5138,-2.5268,-2.5498,-2.5586,-2.5795,-2.5971,-2.5595,-2.5441,-2.505,-2.4697,-2.4337,-2.4276,-2.4281,-2.4255,-2.4213,-2.4103,-2.3581,-2.2957,-2.2429,-2.2072,-2.1908,-2.1908,-2.1752,-2.167,-2.1589,-2.141,-2.1215,-2.1142,-2.0959,-2.0736,-2.0603,-1.9823,-1.912,-1.8728,-1.817,-1.7609,-1.7217,-1.7212,-1.7178,-1.7136,-1.701,-1.6854,-1.6727,-1.6599,-1.6534,-1.6513,-1.6513,-1.6513,-1.6513,-1.6513,-1.6513,-1.6513,-1.6414,-1.6185,-1.5932,-1.5623,-1.5198,-4.3167,-4.3063,-4.3344,-4.2876,-4.2044,-4.2283,-4.2176,-4.1851,-4.2069,-4.2085,-4.2187,-4.2436,-4.2523,-4.2521,-4.2501,-4.2501,-4.2521,-4.2521,-4.2344,-4.22,-4.2157,-4.1839,-4.1418,-4.1277,-4.1232,-4.1151,-4.0545,-4.0498,-4.0687,-3.9963,-3.9462,-3.8996,-3.8341,-3.7581,-3.6801,-3.6025,-3.5473,-3.5042,-3.4525,-3.3973,-3.3283,-3.2904,-3.2541,-3.23,-3.2007,-3.18,-3.1679,-3.0782,-3.004,-2.9575,-2.851,-2.7757,-2.793,-2.7453,-2.699,-2.6907,-2.6438,-2.6048,-2.5449,-2.5467,-2.542,-2.5311,-2.5549,-2.5287,-2.4995,-2.4887,-2.4635,-2.4394,-2.4297,-2.4281,-2.4281,-2.4281,-2.4261,-2.4193,-2.3818,-2.3377,-2.2965,-2.2694,-2.2512,-2.242,-2.2244,-2.2105,-2.2105,-2.1837,-2.1732,-2.1612,-2.1288,-2.1131,-2.0888,-1.973,-1.8881,-1.8678,-1.8122,-1.7512,-1.7251,-1.7212,-1.7212,-1.7178,-1.7094,-1.6939,-1.6791,-1.6641,-1.6577,-1.6534,-1.6534,-1.6513,-1.6513,-1.6513,-1.6513,-1.6513,-1.6513,-1.6436,-1.6185,-1.5998,-1.5579,-4.3596,-4.2965,-4.3708,-4.3578,-4.3064,-4.3636,-4.3317,-4.2732,-4.3125,-4.2828,-4.225,-4.2521,-4.283,-4.2658,-4.2848,-4.2697,-4.2734,-4.281,-4.2715,-4.2639,-4.26,-4.2422,-4.2139,-4.1864,-4.1799,-4.1735,-4.1277,-4.1151,-4.118,-4.1053,-4.0516,-3.9759,-3.9005,-3.8242,-3.7379,-3.6632,-3.6284,-3.5956,-3.5732,-3.5249,-3.4576,-3.4044,-3.3475,-3.2748,-3.2093,-3.1817,-3.1472,-3.0592,-2.992,-3.0502,-2.9042,-2.8253,-2.8135,-2.8203,-2.7725,-2.7075,-2.7167,-2.6918,-2.607,-2.546,-2.5111,-2.5201,-2.473,-2.4338,-2.44,-2.4404,-2.4358,-2.4297,-2.4281,-2.4281,-2.4281,-2.4281,-2.4281,-2.4276,-2.4193,-2.4067,-2.3818,-2.3458,-2.315,-2.3001,-2.2566,-2.2337,-2.2244,-2.2198,-2.2189,-2.2165,-2.1827,-2.1541,-2.1158,-2.0308,-1.9545,-1.9073,-1.8346,-1.7416,-1.7264,-1.7212,-1.7212,-1.7199,-1.7136,-1.6989,-1.6867,-1.674,-1.6641,-1.6577,-1.6556,-1.6534,-1.6513,-1.6513,-1.6513,-1.6513,-1.6513,-1.6513,-1.6457,-1.6349,-1.6032,-4.3893,-4.3745,-4.3931,-4.3912,-4.3782,-4.3931,-4.3862,-4.3616,-4.3783,-4.3631,-4.3506,-4.3603,-4.366,-4.3644,-4.3575,-4.3677,-4.3594,-4.3559,-4.3543,-4.3212,-4.3212,-4.3177,-4.2959,-4.26,-4.2344,-4.2284,-4.2223,-4.2139,-4.2077,-4.1707,-4.1261,-4.044,-3.9417,-3.8399,-3.7694,-3.6838,-3.6011,-3.5576,-3.549,-3.5235,-3.47,-3.4337,-3.3766,-3.2938,-3.2179,-3.1834,-3.1645,-3.092,-3.0541,-3.0127,-2.8886,-2.8165,-2.8768,-2.8613,-2.834,-2.8287,-2.7962,-2.7394,-2.6414,-2.5928,-2.557,-2.5104,-2.4916,-2.4639,-2.4302,-2.4323,-2.4302,-2.4302,-2.4281,-2.4281,-2.4281,-2.4281,-2.4281,-2.4281,-2.4297,-2.4234,-2.4109,-2.3903,-2.3711,-2.3566,-2.3465,-2.3363,-2.3231,-2.2875,-2.2777,-2.2686,-2.2397,-2.2025,-2.1457,-2.0826,-2.0175,-1.958,-1.868,-1.7803,-1.7376,-1.7282,-1.7212,-1.7212,-1.7157,-1.7094,-1.696,-1.6825,-1.6727,-1.6641,-1.6565,-1.6543,-1.6577,-1.6534,-1.6534,-1.6534,-1.6513,-1.6513,-1.6513,-1.6513,-1.6457,-4.4005,-4.4005,-4.4005,-4.4005,-4.4005,-4.4005,-4.4005,-4.4005,-4.4005,-4.4005,-4.4005,-4.4005,-4.4005,-4.4005,-4.4005,-4.3989,-4.4005,-4.4005,-4.3892,-4.3693,-4.3677,-4.3677,-4.366,-4.3353,-4.3105,-4.2848,-4.2562,-4.2503,-4.2442,-4.2266,-4.1861,-4.12,-3.9988,-3.9108,-3.8241,-3.7268,-3.6513,-3.6073,-3.5835,-3.559,-3.5261,-3.4806,-3.399,-3.3007,-3.2231,-3.18,-3.1731,-3.1111,-3.0766,-3.0317,-2.923,-2.8611,-2.9334,-2.9403,-2.9283,-2.8733,-2.8801,-2.7827,-2.6788,-2.6209,-2.5906,-2.5346,-2.5214,-2.4962,-2.4699,-2.4578,-2.4472,-2.4343,-2.4281,-2.4281,-2.4281,-2.4281,-2.4281,-2.4281,-2.4281,-2.4297,-2.425,-2.4166,-2.4024,-2.3925,-2.3861,-2.376,-2.3631,-2.3392,-2.329,-2.3179,-2.2844,-2.2475,-2.2204,-2.1524,-2.0712,-1.9987,-1.9052,-1.8259,-1.7661,-1.7385,-1.7233,-1.7212,-1.7212,-1.7157,-1.7107,-1.696,-1.6833,-1.6769,-1.6705,-1.6663,-1.6663,-1.662,-1.6543,-1.6522,-1.65,-1.65,-1.6513,-1.6513,-1.6479,-4.3819,-4.3819,-4.3819,-4.3819,-4.3838,-4.3949,-4.4005,-4.4005,-4.4005,-4.3893,-4.3819,-4.3819,-4.3615,-4.3615,-4.3726,-4.3838,-4.3986,-4.4005,-4.3958,-4.3958,-4.3923,-4.3942,-4.3908,-4.3841,-4.3677,-4.33,-4.3014,-4.2848,-4.281,-4.2622,-4.238,-4.1795,-4.0693,-3.9661,-3.8868,-3.7904,-3.7058,-3.6709,-3.6571,-3.6467,-3.6298,-3.5714,-3.4685,-3.3352,-3.249,-3.1972,-3.1765,-3.1282,-3.0921,-3.0835,-3.0213,-2.992,-2.9989,-3.0179,-3.011,-2.8664,-2.9042,-2.8323,-2.6978,-2.6453,-2.6243,-2.5848,-2.5705,-2.5427,-2.5121,-2.4981,-2.4799,-2.4533,-2.4385,-2.4281,-2.4281,-2.4281,-2.4281,-2.4281,-2.4281,-2.4281,-2.4297,-2.425,-2.413,-2.4046,-2.4024,-2.3982,-2.3897,-2.3732,-2.3732,-2.3631,-2.3268,-2.2958,-2.2701,-2.2277,-2.1461,-2.059,-1.9717,-1.858,-1.7894,-1.7598,-1.7427,-1.724,-1.724,-1.722,-1.7199,-1.7094,-1.6981,-1.6918,-1.6867,-1.6825,-1.6761,-1.6684,-1.662,-1.6543,-1.6522,-1.65,-1.6513,-1.6513,-1.6479,-4.3002,-4.3002,-4.3002,-4.3002,-4.3113,-4.367,-4.3931,-4.4005,-4.3912,-4.3596,-4.3039,-4.2983,-4.263,-4.2407,-4.2779,-4.3336,-4.3875,-4.4005,-4.4005,-4.4005,-4.4005,-4.4005,-4.4005,-4.4005,-4.3942,-4.3908,-4.3693,-4.3627,-4.3559,-4.3404,-4.2886,-4.2049,-4.0944,-3.9967,-3.9137,-3.8133,-3.7488,-3.7207,-3.7111,-3.6974,-3.6678,-3.6214,-3.5417,-3.3978,-3.3145,-3.249,-3.1955,-3.1714,-3.161,-3.1628,-3.1489,-3.1386,-3.1196,-3.0956,-3.03,-2.9593,-2.93,-2.8665,-2.7333,-2.6892,-2.6674,-2.6383,-2.6191,-2.5977,-2.5666,-2.5446,-2.5218,-2.4895,-2.4584,-2.4374,-2.4297,-2.4441,-2.4317,-2.4317,-2.4281,-2.4281,-2.4281,-2.4276,-2.4234,-2.4166,-2.4145,-2.4103,-2.404,-2.3961,-2.3919,-2.3839,-2.3653,-2.348,-2.3325,-2.2864,-2.2251,-2.1363,-2.0472,-1.9232,-1.8065,-1.7869,-1.7666,-1.7385,-1.7303,-1.7261,-1.724,-1.7199,-1.7115,-1.7044,-1.6981,-1.6931,-1.6846,-1.6782,-1.6727,-1.6684,-1.6599,-1.6534,-1.6534,-1.6556,-1.6522,-4.2166,-4.2184,-4.2184,-4.2426,-4.276,-4.2723,-4.3002,-4.328,-4.2927,-4.2537,-4.2259,-4.2184,-4.224,-4.2296,-4.2575,-4.3243,-4.3819,-4.4005,-4.4005,-4.4005,-4.4005,-4.4005,-4.4005,-4.4005,-4.4005,-4.3989,-4.3989,-4.4005,-4.3989,-4.3809,-4.3336,-4.2688,-4.156,-4.0567,-3.9711,-3.8731,-3.8071,-3.7738,-3.7578,-3.7395,-3.6978,-3.6454,-3.5446,-3.4814,-3.3943,-3.3181,-3.2524,-3.2369,-3.2162,-3.1869,-3.1783,-3.18,-3.1696,-3.1438,-3.092,-3.0231,-2.9713,-2.9007,-2.7873,-2.7395,-2.694,-2.6808,-2.6708,-2.6452,-2.6137,-2.5905,-2.567,-2.5359,-2.5532,-2.5237,-2.4722,-2.49,-2.4859,-2.4421,-2.4281,-2.4281,-2.4281,-2.4281,-2.4276,-2.425,-2.4234,-2.4193,-2.4124,-2.4082,-2.4046,-2.4003,-2.3961,-2.3882,-2.3839,-2.3424,-2.2869,-2.1861,-2.0889,-1.9634,-1.855,-1.825,-1.7988,-1.7679,-1.7427,-1.7372,-1.7282,-1.724,-1.7199,-1.7115,-1.7065,-1.7023,-1.696,-1.6897,-1.6833,-1.6791,-1.6748,-1.6705,-1.6654,-1.6611,-1.6543,-4.1349,-4.1349,-4.1349,-4.1739,-4.2203,-4.2017,-4.224,-4.2593,-4.2203,-4.185,-4.1571,-4.146,-4.1702,-4.224,-4.2686,-4.3169,-4.3782,-4.3875,-4.4005,-4.4005,-4.4005,-4.4005,-4.4005,-4.4005,-4.4005,-4.4005,-4.4005,-4.4005,-4.4005,-4.3974,-4.3719,-4.3065,-4.2171,-4.1305,-4.0319,-3.9444,-3.8784,-3.8281,-3.808,-3.786,-3.729,-3.6448,-3.5677,-3.5479,-3.4733,-3.3908,-3.2938,-3.28,-3.2438,-3.2007,-3.18,-3.18,-3.18,-3.18,-3.1524,-3.092,-3.0162,-2.942,-2.8679,-2.8129,-2.772,-2.7465,-2.7313,-2.6978,-2.6555,-2.6314,-2.6101,-2.5858,-2.5856,-2.5821,-2.5049,-2.5392,-2.5153,-2.4611,-2.4281,-2.4281,-2.4281,-2.4281,-2.4281,-2.4297,-2.4281,-2.4276,-2.4193,-2.4193,-2.4172,-2.4145,-2.4088,-2.404,-2.3982,-2.3897,-2.3308,-2.2256,-2.1173,-1.9972,-1.9103,-1.8673,-1.8383,-1.8068,-1.7781,-1.7598,-1.7447,-1.7282,-1.724,-1.7178,-1.7178,-1.7128,-1.7052,-1.6989,-1.6939,-1.691,-1.691,-1.6846,-1.6718,-1.6654,-1.6599,-4.0531,-4.0546,-4.0546,-4.0587,-4.0921,-4.2032,-4.263,-4.2667,-4.2519,-4.2222,-4.133,-4.0861,-4.0606,-4.1089,-4.2314,-4.2816,-4.315,-4.3708,-4.4005,-4.4005,-4.4005,-4.4005,-4.4005,-4.4005,-4.4005,-4.4005,-4.4005,-4.4005,-4.4005,-4.4005,-4.3599,-4.2959,-4.2569,-4.1902,-4.047,-4.0074,-3.9623,-3.8759,-3.8554,-3.8314,-3.7841,-3.7326,-3.6658,-3.5988,-3.5423,-3.454,-3.3302,-3.3024,-3.2645,-3.1921,-3.18,-3.18,-3.18,-3.18,-3.1783,-3.1489,-3.0972,-3.0213,-2.9523,-2.9075,-2.8714,-2.8284,-2.8097,-2.7721,-2.7215,-2.6707,-2.6465,-2.6242,-2.6081,-2.5675,-2.5291,-2.5104,-2.4778,-2.4559,-2.4364,-2.4343,-2.4323,-2.4281,-2.4281,-2.4281,-2.4281,-2.4281,-2.4276,-2.4276,-2.4297,-2.4255,-2.4229,-2.4181,-2.4042,-2.3897,-2.3383,-2.2254,-2.1361,-2.0224,-1.951,-1.9111,-1.8789,-1.8461,-1.8147,-1.7861,-1.7598,-1.7406,-1.724,-1.7199,-1.7212,-1.7199,-1.7136,-1.7073,-1.7023,-1.7002,-1.7002,-1.6888,-1.6731,-1.6697,-1.6684,-3.9658,-3.964,-3.9658,-3.9955,-4.0457,-4.1196,-4.1441,-4.1423,-4.1423,-4.0958,-4.0234,-3.9863,-3.99,-4.0639,-4.2073,-4.2779,-4.2983,-4.3633,-4.3986,-4.4005,-4.4005,-4.4005,-4.4005,-4.4005,-4.4005,-4.4005,-4.4005,-4.4005,-4.4005,-4.3931,-4.3578,-4.2853,-4.2333,-4.1534,-4.0587,-4.0434,-4.0121,-3.9697,-3.9399,-3.8939,-3.8372,-3.7893,-3.7345,-3.6675,-3.6427,-3.5281,-3.4038,-3.3559,-3.2938,-3.2127,-3.18,-3.18,-3.18,-3.18,-3.1783,-3.1784,-3.1542,-3.0955,-3.0265,-2.9799,-2.9403,-2.9007,-2.8645,-2.8147,-2.7773,-2.7504,-2.7299,-2.7316,-2.7493,-2.6932,-2.5964,-2.5812,-2.547,-2.512,-2.4634,-2.4553,-2.4492,-2.4323,-2.4281,-2.4281,-2.4281,-2.4281,-2.4281,-2.4281,-2.4281,-2.4276,-2.4255,-2.4229,-2.3931,-2.3604,-2.294,-2.2014,-2.1248,-2.043,-1.989,-1.9439,-1.9199,-1.8865,-1.8495,-1.8181,-1.7781,-1.755,-1.7365,-1.722,-1.7212,-1.7199,-1.7199,-1.7157,-1.7128,-1.7107,-1.7094,-1.6981,-1.6867,-1.6867,-1.6833,-3.9101,-3.9101,-3.9101,-3.9472,-4.0085,-4.029,-4.0453,-4.0434,-4.0471,-4.0081,-3.9584,-3.951,-3.9863,-4.0657,-4.1962,-4.2779,-4.2853,-4.3615,-4.3931,-4.4005,-4.4005,-4.4005,-4.4005,-4.4005,-4.4005,-4.4005,-4.4005,-4.4005,-4.4005,-4.3931,-4.3596,-4.2816,-4.2389,-4.1571,-4.1014,-4.1014,-4.1037,-4.0636,-4.0141,-3.9648,-3.9099,-3.8419,-3.7947,-3.7542,-3.7069,-3.6199,-3.4612,-3.412,-3.3375,-3.2438,-3.1869,-3.1886,-3.2093,-3.1938,-3.1817,-3.18,-3.1696,-3.1507,-3.0972,-3.0541,-3.0058,-2.9627,-2.9144,-2.8714,-2.8629,-2.8476,-2.8237,-2.8066,-2.827,-2.767,-2.6851,-2.6381,-2.601,-2.5496,-2.5001,-2.4938,-2.4819,-2.4655,-2.4426,-2.4281,-2.4281,-2.4281,-2.4281,-2.4281,-2.4281,-2.4281,-2.4297,-2.4276,-2.3978,-2.359,-2.2935,-2.2182,-2.1575,-2.0809,-2.0025,-1.965,-1.9487,-1.9273,-1.8879,-1.8514,-1.8127,-1.774,-1.7434,-1.7344,-1.724,-1.7199,-1.7199,-1.7199,-1.7212,-1.7178,-1.7136,-1.7107,-1.7044,-1.7049,-1.7012,-3.9101,-3.9101,-3.9115,-3.9152,-3.9287,-4.0067,-4.0397,-4.0304,-4.0378,-4.0308,-4.0048,-4.023,-4.0123,-4.0717,-4.1776,-4.2649,-4.2742,-4.3615,-4.3856,-4.3949,-4.4005,-4.4005,-4.4005,-4.4005,-4.4005,-4.4005,-4.4005,-4.4005,-4.3912,-4.3652,-4.3355,-4.2872,-4.2593,-4.2147,-4.1869,-4.1869,-4.1924,-4.1479,-4.083,-4.0366,-3.983,-3.9175,-3.8436,-3.8178,-3.7595,-3.6555,-3.4904,-3.4591,-3.4013,-3.3002,-3.2534,-3.2215,-3.2508,-3.2214,-3.2007,-3.1817,-3.18,-3.1696,-3.1455,-3.1369,-3.1179,-3.0593,-2.9955,-2.942,-2.942,-2.9369,-2.9042,-2.8579,-2.8733,-2.7913,-2.6976,-2.6311,-2.6145,-2.595,-2.5556,-2.531,-2.5176,-2.4981,-2.4759,-2.4426,-2.4323,-2.4385,-2.4281,-2.4281,-2.4281,-2.4281,-2.4281,-2.4276,-2.4199,-2.383,-2.3223,-2.2598,-2.2078,-2.1258,-2.0131,-1.9786,-1.9669,-1.949,-1.918,-1.8846,-1.8519,-1.8108,-1.7557,-1.7393,-1.7303,-1.7261,-1.7212,-1.7212,-1.7212,-1.7212,-1.7243,-1.7397,-1.7385,-1.7346,-1.7278,-3.9543,-3.9543,-3.9531,-3.9364,-3.9157,-4.0025,-4.01,-3.9765,-4.0141,-4.0067,-3.9621,-3.9602,-3.9602,-4.0085,-4.12,-4.1757,-4.1664,-4.3299,-4.3522,-4.3578,-4.367,-4.3949,-4.4005,-4.3968,-4.4005,-4.4005,-4.4005,-4.4005,-4.3968,-4.3336,-4.2927,-4.2667,-4.2853,-4.2259,-4.211,-4.2426,-4.2519,-4.224,-4.1516,-4.0958,-4.022,-3.948,-3.8744,-3.8371,-3.8259,-3.7301,-3.6146,-3.5811,-3.5066,-3.4302,-3.3772,-3.3432,-3.3035,-3.265,-3.2232,-3.1886,-3.18,-3.18,-3.18,-3.1765,-3.1455,-3.0851,-3.0386,-3.0231,-3.0231,-3.023,-3.0109,-2.9713,-2.9179,-2.8442,-2.776,-2.691,-2.633,-2.6296,-2.612,-2.5797,-2.5575,-2.5408,-2.5118,-2.4819,-2.4655,-2.4614,-2.4467,-2.4281,-2.4281,-2.4281,-2.4281,-2.4281,-2.4204,-2.4066,-2.3472,-2.2896,-2.2373,-2.1812,-2.0728,-2.0282,-1.9944,-1.9717,-1.9531,-1.9282,-1.8984,-1.8167,-1.77,-1.7537,-1.7499,-1.7542,-1.7479,-1.7285,-1.7251,-1.7342,-1.763,-1.7935,-1.7857,-1.7717,-1.7708,-3.9838,-3.9808,-3.9808,-3.9618,-3.9419,-3.9954,-4.0048,-3.9805,-3.9968,-3.9765,-3.912,-3.9324,-3.9472,-3.9918,-4.0884,-4.1627,-4.1791,-4.2828,-4.3277,-4.3426,-4.3553,-4.3816,-4.3763,-4.3578,-4.3355,-4.3745,-4.3726,-4.3652,-4.3949,-4.2853,-4.2909,-4.315,-4.3113,-4.2705,-4.237,-4.2705,-4.3039,-4.2649,-4.1999,-4.12,-4.0383,-3.9551,-3.8998,-3.8636,-3.8499,-3.7872,-3.6979,-3.6508,-3.6127,-3.5508,-3.4978,-3.4429,-3.3787,-3.3164,-3.2639,-3.215,-3.18,-3.18,-3.18,-3.1731,-3.1558,-3.1162,-3.1076,-3.1024,-3.1042,-3.1025,-3.0886,-3.0524,-3.0023,-2.9403,-2.8526,-2.7572,-2.6945,-2.6911,-2.6572,-2.6279,-2.6085,-2.5888,-2.5556,-2.525,-2.5114,-2.4942,-2.4619,-2.4451,-2.4364,-2.4343,-2.4281,-2.4281,-2.4251,-2.4051,-2.3697,-2.3135,-2.2604,-2.2026,-2.1401,-2.1169,-2.0889,-2.04,-2.0165,-1.9905,-1.9464,-1.8748,-1.8569,-1.8893,-1.8726,-1.8123,-1.8006,-1.8143,-1.7873,-1.7552,-1.7944,-1.8388,-1.8431,-1.8325,-1.8416,-3.9872,-3.9808,-3.981,-3.9819,-3.9797,-3.9794,-4.0219,-4.056,-3.995,-3.9458,-3.9293,-3.9881,-4.0202,-4.0426,-4.1101,-4.152,-4.199,-4.2638,-4.3074,-4.323,-4.3185,-4.3412,-4.3289,-4.2995,-4.3025,-4.3593,-4.3627,-4.3661,-4.402,-4.35,-4.363,-4.3782,-4.3708,-4.3466,-4.2909,-4.354,-4.3522,-4.2816,-4.2073,-4.1219,-4.0546,-3.9658,-3.9096,-3.8937,-3.8778,-3.8193,-3.7699,-3.733,-3.6957,-3.6384,-3.6061,-3.5396,-3.4465,-3.39,-3.3142,-3.2033,-3.1855,-3.1801,-3.18,-3.18,-3.1714,-3.1627,-3.1524,-3.1576,-3.1679,-3.1662,-3.1455,-3.0989,-3.0489,-2.9765,-2.8972,-2.8165,-2.7635,-2.7261,-2.6927,-2.6708,-2.6521,-2.6401,-2.6067,-2.5758,-2.5556,-2.5351,-2.4942,-2.4639,-2.4492,-2.439,-2.4323,-2.4281,-2.4287,-2.4143,-2.3866,-2.3543,-2.3047,-2.2639,-2.2217,-2.2106,-2.1808,-2.1257,-2.0884,-2.07,-2.048,-2.0065,-2.0056,-2.0307,-1.9838,-1.915,-1.9113,-1.9172,-1.8754,-1.8401,-1.8493,-1.878,-1.8858,-1.8953,-1.9071,-4.0359,-4.0332,-4.0332,-4.0332,-4.029,-3.9984,-4.0059,-4.023,-3.9922,-3.9716,-3.9698,-3.9996,-4.0072,-4.0309,-4.0716,-4.1109,-4.1021,-4.2594,-4.2984,-4.1894,-4.2464,-4.3032,-4.3021,-4.2891,-4.304,-4.3838,-4.3875,-4.3718,-4.4135,-4.3781,-4.3735,-4.3853,-4.3986,-4.3875,-4.3689,-4.3912,-4.3782,-4.3392,-4.2426,-4.1423,-4.1051,-3.9881,-3.9101,-3.9101,-3.8956,-3.8714,-3.8389,-3.8173,-3.7802,-3.7294,-3.6986,-3.6419,-3.5109,-3.428,-3.3741,-3.2546,-3.2038,-3.1856,-3.1818,-3.18,-3.18,-3.18,-3.18,-3.18,-3.18,-3.18,-3.161,-3.1214,-3.0524,-2.9817,-2.9231,-2.8076,-2.7458,-2.7321,-2.7088,-2.7006,-2.6874,-2.6808,-2.6624,-2.6296,-2.605,-2.5744,-2.5389,-2.5079,-2.4883,-2.4699,-2.4619,-2.4426,-2.4349,-2.4323,-2.4112,-2.3912,-2.3574,-2.3251,-2.297,-2.2812,-2.2497,-2.1961,-2.1755,-2.1679,-2.1437,-2.1212,-2.1178,-2.1201,-2.0691,-2.0201,-1.9997,-1.9793,-1.9558,-1.9368,-1.9316,-1.9473,-1.9771,-1.9797,-1.9734,-4.0621,-4.0588,-4.0588,-4.0588,-4.054,-4.0264,-4.0091,-4.0101,-4.032,-4.031,-4.0031,-4.0183,-4.0172,-4.0226,-4.0558,-4.0829,-4.0344,-4.1549,-4.2496,-4.1255,-4.1835,-4.2578,-4.2837,-4.2698,-4.2926,-4.3758,-4.4001,-4.3878,-4.4207,-4.3688,-4.3733,-4.3974,-4.402,-4.3968,-4.3968,-4.3986,-4.3801,-4.3243,-4.2222,-4.1404,-4.0791,-3.9937,-3.9101,-3.9101,-3.9069,-3.9031,-3.9082,-3.8948,-3.8711,-3.8199,-3.7878,-3.7357,-3.5724,-3.4891,-3.4378,-3.3114,-3.2283,-3.2038,-3.1911,-3.1818,-3.18,-3.18,-3.18,-3.18,-3.18,-3.18,-3.18,-3.1386,-3.0489,-2.992,-2.9334,-2.8127,-2.7627,-2.7507,-2.7302,-2.7203,-2.7136,-2.7056,-2.6974,-2.6657,-2.6504,-2.6175,-2.587,-2.5612,-2.5349,-2.5137,-2.4942,-2.4719,-2.4492,-2.4364,-2.4302,-2.4128,-2.4025,-2.3774,-2.3559,-2.3451,-2.3124,-2.2655,-2.2539,-2.2519,-2.2446,-2.2218,-2.2164,-2.2111,-2.187,-2.1468,-2.0731,-2.0378,-2.0287,-2.0099,-1.9915,-2.0177,-2.0633,-2.0491,-2.0255,-4.0661,-4.0602,-4.0614,-4.0621,-4.0614,-4.0574,-4.0512,-4.0441,-4.118,-4.0891,-4.0024,-4.0787,-4.0673,-4.0224,-4.0803,-4.1021,-4.102,-4.1307,-4.1673,-4.1884,-4.1828,-4.2408,-4.2542,-4.2164,-4.2988,-4.3573,-4.3886,-4.3999,-4.4258,-4.4117,-4.4129,-4.4162,-4.4085,-4.4055,-4.4039,-4.3949,-4.3615,-4.2946,-4.2147,-4.1293,-4.0564,-3.9807,-3.9305,-3.9212,-3.9231,-3.9231,-3.9175,-3.9031,-3.8883,-3.873,-3.8767,-3.7622,-3.6658,-3.6047,-3.4742,-3.3512,-3.2586,-3.2248,-3.1984,-3.1874,-3.1819,-3.1819,-3.1801,-3.18,-3.1748,-3.1696,-3.161,-3.1334,-3.0627,-3.0093,-2.9455,-2.8713,-2.7989,-2.7747,-2.7471,-2.7369,-2.7283,-2.7201,-2.7136,-2.7006,-2.6941,-2.6708,-2.6349,-2.6083,-2.5852,-2.5742,-2.554,-2.5256,-2.4962,-2.4426,-2.4364,-2.4281,-2.4204,-2.4235,-2.4097,-2.3902,-2.3743,-2.3303,-2.3293,-2.3273,-2.3217,-2.3193,-2.3158,-2.3113,-2.3175,-2.2753,-2.188,-2.1383,-2.1137,-2.093,-2.0576,-2.046,-2.0774,-2.0699,-2.053,-4.0752,-4.0746,-4.0746,-4.0746,-4.0746,-4.0746,-4.1029,-4.1477,-4.1238,-4.0786,-4.0557,-4.0788,-4.0743,-4.0576,-4.0672,-4.0729,-4.0898,-4.1141,-4.1408,-4.1617,-4.1883,-4.2785,-4.3142,-4.3122,-4.372,-4.4153,-4.4397,-4.4202,-4.4303,-4.4344,-4.43,-4.4237,-4.418,-4.415,-4.4085,-4.4036,-4.3482,-4.2797,-4.1999,-4.133,-4.0657,-4.0081,-3.964,-3.9398,-3.9602,-3.9528,-3.9212,-3.9027,-3.8655,-3.7726,-3.8061,-3.715,-3.4994,-3.5009,-3.448,-3.3073,-3.2587,-3.2386,-3.2091,-3.193,-3.1857,-3.1839,-3.1838,-3.18,-3.1679,-3.1507,-3.1403,-3.1214,-3.0437,-2.9644,-2.9437,-2.8937,-2.8265,-2.7816,-2.7644,-2.7678,-2.7575,-2.7421,-2.7355,-2.7357,-2.7292,-2.699,-2.6674,-2.6606,-2.6401,-2.6331,-2.6138,-2.5817,-2.5389,-2.4823,-2.4472,-2.4426,-2.4281,-2.4281,-2.4281,-2.4128,-2.4112,-2.4035,-2.3948,-2.3871,-2.3846,-2.3851,-2.4035,-2.3924,-2.3666,-2.3341,-2.2892,-2.2406,-2.1921,-2.1557,-2.1232,-2.0993,-2.0837,-2.0826,-2.0725,-4.0797,-4.0797,-4.0797,-4.0965,-4.1177,-4.0926,-4.1255,-4.1757,-4.1145,-4.0797,-4.0797,-4.0803,-4.0797,-4.0752,-4.0698,-4.0656,-4.0714,-4.0954,-4.1168,-4.1352,-4.2007,-4.2669,-4.3273,-4.3876,-4.4181,-4.4599,-4.4782,-4.4561,-4.4472,-4.4383,-4.4325,-4.4344,-4.4274,-4.4248,-4.4184,-4.4064,-4.359,-4.2831,-4.2092,-4.159,-4.1089,-4.0453,-3.9747,-3.9677,-3.9974,-3.9528,-3.9138,-3.8934,-3.8042,-3.7169,-3.7628,-3.6662,-3.4835,-3.4763,-3.4444,-3.3262,-3.2954,-3.2718,-3.2403,-3.2091,-3.1984,-3.1912,-3.1875,-3.1838,-3.1715,-3.1558,-3.1593,-3.1472,-3.0093,-2.9058,-2.9144,-2.9092,-2.8454,-2.7833,-2.792,-2.8006,-2.7851,-2.7677,-2.7661,-2.7679,-2.7493,-2.7172,-2.6989,-2.6957,-2.6876,-2.6674,-2.6418,-2.6104,-2.5652,-2.5102,-2.4799,-2.4675,-2.4446,-2.4281,-2.4281,-2.4281,-2.4235,-2.4204,-2.4174,-2.4158,-2.4281,-2.4281,-2.4214,-2.4069,-2.3909,-2.3595,-2.3319,-2.3001,-2.2549,-2.2278,-2.2073,-2.192,-2.1571,-2.1098,-2.097,-4.0661,-4.0797,-4.0816,-4.1177,-4.1738,-4.1087,-4.1197,-4.1796,-4.1106,-4.0797,-4.0797,-4.0797,-4.0797,-4.079,-4.0765,-4.0765,-4.0759,-4.0867,-4.1233,-4.0978,-4.1631,-4.2513,-4.3579,-4.377,-4.4421,-4.4714,-4.4861,-4.4872,-4.4616,-4.4513,-4.4491,-4.444,-4.4344,-4.4304,-4.424,-4.4199,-4.38,-4.3196,-4.2292,-4.1609,-4.1553,-4.0661,-3.9547,-3.9937,-3.9714,-3.9212,-3.8934,-3.8469,-3.7856,-3.7541,-3.7108,-3.6328,-3.5516,-3.4674,-3.4133,-3.3793,-3.3408,-3.3111,-3.275,-3.2403,-3.2231,-3.2091,-3.1948,-3.1966,-3.1896,-3.1458,-3.1404,-3.1403,-3.0265,-2.9782,-2.9799,-2.9592,-2.9058,-2.8541,-2.8385,-2.8092,-2.7627,-2.7558,-2.7661,-2.7644,-2.7474,-2.7186,-2.7136,-2.7072,-2.699,-2.6876,-2.6708,-2.6418,-2.605,-2.5521,-2.5141,-2.4958,-2.4659,-2.4451,-2.4281,-2.4281,-2.4281,-2.4281,-2.4281,-2.4281,-2.4281,-2.4281,-2.4281,-2.4177,-2.4073,-2.3909,-2.3638,-2.3414,-2.3311,-2.3273,-2.3079,-2.2898,-2.2428,-2.1751,-2.1256,-3.9611,-4.0777,-4.0797,-4.0932,-4.1067,-4.0874,-4.0913,-4.1081,-4.0913,-4.0797,-4.0797,-4.0797,-4.0797,-4.0797,-4.0797,-4.0797,-4.0797,-4.0874,-4.1603,-4.1951,-4.22,-4.3067,-4.4518,-4.453,-4.4836,-4.5159,-4.5314,-4.5133,-4.4836,-4.4738,-4.4701,-4.4624,-4.4495,-4.434,-4.4198,-4.4143,-4.3826,-4.3297,-4.2359,-4.14,-4.0973,-4.1159,-4.0787,-4.016,-3.9491,-3.9491,-3.9101,-3.8358,-3.7634,-3.7058,-3.6866,-3.6272,-3.5535,-3.468,-3.4117,-3.3842,-3.3694,-3.3437,-3.3139,-3.2813,-3.2635,-3.2569,-3.2469,-3.2352,-3.2039,-3.1393,-3.106,-3.1094,-3.0903,-3.0575,-3.0334,-3.0041,-2.9661,-2.923,-2.8765,-2.8092,-2.7437,-2.7506,-2.7643,-2.7575,-2.7421,-2.7302,-2.7234,-2.7152,-2.7104,-2.7023,-2.6975,-2.6792,-2.6623,-2.619,-2.5577,-2.531,-2.4942,-2.4699,-2.4472,-2.4281,-2.4281,-2.4281,-2.4281,-2.4281,-2.4297,-2.4281,-2.4281,-2.4281,-2.4219,-2.4118,-2.4085,-2.4055,-2.4003,-2.4139,-2.388,-2.3626,-2.3146,-2.2495,-2.188,-3.934,-4.0236,-4.0642,-4.0797,-4.0797,-4.0797,-4.0797,-4.0797,-4.0797,-4.0797,-4.0797,-4.0797,-4.0797,-4.0797,-4.0797,-4.0835,-4.0835,-4.0797,-4.1448,-4.2164,-4.2957,-4.3724,-4.4504,-4.5135,-4.5268,-4.5486,-4.5361,-4.5158,-4.481,-4.4798,-4.4707,-4.4429,-4.428,-4.4238,-4.4004,-4.3791,-4.3583,-4.3032,-4.2087,-4.1295,-4.0463,-4.0448,-4.0527,-3.9802,-3.964,-3.9565,-3.9101,-3.8377,-3.7782,-3.7188,-3.6959,-3.629,-3.5659,-3.5101,-3.4525,-3.4109,-3.3837,-3.3721,-3.3465,-3.3243,-3.3063,-3.3001,-3.2939,-3.2765,-3.2682,-3.2115,-3.1812,-3.1725,-3.0939,-3.0559,-3.0662,-3.0489,-2.9834,-2.9299,-2.8834,-2.8265,-2.7799,-2.7627,-2.7833,-2.8006,-2.773,-2.7316,-2.7266,-2.7233,-2.7185,-2.7086,-2.7039,-2.699,-2.6859,-2.6793,-2.6207,-2.5768,-2.5496,-2.5048,-2.4719,-2.4472,-2.4281,-2.4281,-2.4384,-2.4374,-2.4404,-2.4327,-2.4281,-2.4374,-2.4451,-2.4491,-2.447,-2.4526,-2.5001,-2.5311,-2.4858,-2.4303,-2.378,-2.3307,-2.2804,-3.9075,-3.9443,-4.039,-4.0797,-4.0797,-4.0797,-4.0797,-4.0797,-4.0797,-4.0797,-4.0797,-4.0797,-4.0797,-4.0797,-4.0816,-4.0874,-4.099,-4.1164,-4.1648,-4.2512,-4.3034,-4.402,-4.4775,-4.529,-4.541,-4.5373,-4.5234,-4.4767,-4.4279,-4.427,-4.4098,-4.382,-4.3888,-4.4003,-4.346,-4.3147,-4.303,-4.2487,-4.1782,-4.1255,-4.0505,-3.9756,-3.9839,-3.9788,-3.9565,-3.9138,-3.8841,-3.8432,-3.7968,-3.7559,-3.7127,-3.6495,-3.5919,-3.5491,-3.4829,-3.4371,-3.3979,-3.3908,-3.3775,-3.355,-3.3433,-3.3361,-3.3288,-3.3196,-3.3085,-3.2883,-3.2564,-3.2121,-3.1341,-3.0889,-3.0992,-3.0748,-3.0058,-2.9334,-2.8885,-2.8368,-2.8023,-2.7799,-2.8092,-2.8351,-2.8006,-2.7556,-2.7609,-2.7575,-2.7336,-2.7238,-2.7154,-2.7071,-2.7024,-2.701,-2.6742,-2.6475,-2.6297,-2.5791,-2.5158,-2.4995,-2.4839,-2.4673,-2.4777,-2.4642,-2.4574,-2.4697,-2.4733,-2.461,-2.4687,-2.4948,-2.4989,-2.5029,-2.5613,-2.6097,-2.5461,-2.4777,-2.47,-2.4252,-2.3806,-3.7232,-3.8586,-4.0139,-4.0797,-4.0797,-4.0797,-4.0797,-4.0797,-4.0797,-4.0797,-4.0797,-4.0797,-4.0797,-4.0797,-4.0797,-4.0971,-4.1371,-4.1564,-4.2802,-4.4001,-4.3556,-4.4349,-4.5065,-4.5297,-4.5322,-4.5244,-4.5063,-4.4623,-4.386,-4.3537,-4.3617,-4.3867,-4.3715,-4.3718,-4.358,-4.3302,-4.3015,-4.2355,-4.1604,-4.1031,-4.1199,-4.0528,-3.9802,-3.9547,-3.9194,-3.9101,-3.8878,-3.8297,-3.8005,-3.7671,-3.7275,-3.6816,-3.6309,-3.5844,-3.5175,-3.4457,-3.4099,-3.4086,-3.3972,-3.381,-3.3711,-3.3818,-3.3725,-3.349,-3.3415,-3.3343,-3.3087,-3.2952,-3.2241,-3.1566,-3.1429,-3.0941,-3.0283,-2.9506,-2.8886,-2.8334,-2.7851,-2.8092,-2.842,-2.8506,-2.8403,-2.8437,-2.8799,-2.8472,-2.7851,-2.7767,-2.7681,-2.7598,-2.7515,-2.7397,-2.7331,-2.7266,-2.7183,-2.6352,-2.5681,-2.5815,-2.571,-2.544,-2.5248,-2.5265,-2.5302,-2.5287,-2.5256,-2.5195,-2.5379,-2.5687,-2.5687,-2.565,-2.5758,-2.6081,-2.5635,-2.5214,-2.5196,-2.507,-2.4565]},{"header":{"parameterUnit":"m.s-1","parameterCategory":1,"la1":31.0,"la2":29.5877,"lo1":-88.7671,"lo2":-86.6584,"dy":0.0162,"dx":0.0185,"nx":115,"ny":88,"refTime":"2023-02-23T06:00:00:Z","depth":0,"parameterNumber":3,"parameterNumberName":"V-component_of_WINDS"},"data":[0.0,0.0,0.0,0.0,0.0,0.0,0.0,0.0,0.0,0.0,0.0,0.0,0.0,0.0,0.0,0.0,0.0,0.0,0.0,0.0,0.0,0.0,0.0,0.0,0.0,0.0,0.0,0.0,0.0,0.0,0.0,0.0,0.0,0.0,0.0,0.0,0.0,0.0,0.0,0.0,0.0,0.0,0.0,0.0,0.0,0.0,0.0,0.0,0.0,0.0,0.0,0.0,0.0,0.0,0.0,0.0,0.0,0.0,0.0,0.0,0.0,0.0,0.0,0.0,0.0,0.0,0.0,0.0,0.0,0.0,0.0,0.0,0.0,0.0,0.0,0.0,0.0,0.0,0.0,0.0,0.0,0.0,0.0,0.0,0.0,0.0,0.0,0.0,0.0,0.0,0.0,0.0,0.0,0.0,0.0,0.0,0.0,0.0,0.0,0.0,0.0,0.0,0.0,0.0,0.0,0.0,0.0,0.0,0.0,0.0,0.0,0.0,0.0,0.0,0.0,0.0,0.0,0.0,0.0,0.0,0.0,0.0,0.0,0.0,0.0,0.0,0.0,0.0,0.0,0.0,0.0,0.0,0.0,0.0,0.0,0.0,0.0,0.0,0.0,0.0,0.0,0.0,0.0,0.0,0.0,0.0,0.0,0.0,0.0,0.0,0.0,0.0,0.0,0.0,0.0,0.0,0.0,0.0,0.0,0.0,0.0,0.0,0.0,0.0,0.0,0.0,0.0,0.0,0.0,0.0,0.0,0.0,0.0,0.0,0.0,0.0,0.0,0.0,0.0,0.0,0.0,0.0,0.0,0.0,0.0,0.0,0.0,0.0,0.0,0.0,0.0,0.0,0.0,0.0,0.0,0.0,0.0,0.0,0.0,0.0,0.0,0.0,0.0,0.0,0.0,0.0,0.0,0.0,0.0,0.0,0.0,0.0,0.0,0.0,0.0,0.0,0.0,0.0,0.0,0.0,0.0,0.0,0.0,0.0,0.0,0.0,0.0,0.0,0.0,0.0,0.0,0.0,0.0,0.0,0.0,0.0,0.0,0.0,0.0,0.0,0.0,0.0,0.0,0.0,0.0,0.0,0.0,0.0,0.0,0.0,0.0,0.0,0.0,0.0,0.0,0.0,0.0,0.0,0.0,0.0,0.0,0.0,0.0,0.0,0.0,0.0,0.0,0.0,0.0,0.0,0.0,0.0,0.0,0.0,0.0,0.0,0.0,0.0,0.0,0.0,0.0,0.0,0.0,0.0,0.0,0.0,0.0,0.0,0.0,0.0,0.0,0.0,0.0,0.0,0.0,0.0,0.0,0.0,0.0,0.0,0.0,0.0,0.0,0.0,0.0,0.0,0.0,0.0,0.0,0.0,0.0,0.0,0.0,0.0,0.0,0.0,0.0,0.0,0.0,0.0,0.0,0.0,0.0,0.0,0.0,0.0,0.0,0.0,0.0,0.0,0.0,0.0,0.0,0.0,0.0,0.0,0.0,0.0,0.0,0.0,0.0,0.0,0.0,0.0,0.0,0.0,0.0,0.0,0.0,0.0,0.0,0.0,0.0,0.0,0.0,0.0,0.0,0.0,0.0,0.0,0.0,0.0,0.0,0.0,0.0,0.0,0.0,0.0,0.0,0.0,0.0,0.0,0.0,0.0,0.0,0.0,0.0,0.0,0.0,0.0,0.0,0.0,0.0,0.0,0.0,0.0,0.0,0.0,0.0,0.0,0.0,0.0,0.0,0.0,0.0,0.0,0.0,0.0,0.0,0.0,0.0,0.0,0.0,0.0,0.0,0.0,0.0,0.0,0.0,0.0,0.0,0.0,0.0,0.0,0.0,0.0,0.0,0.0,0.0,0.0,0.0,0.0,0.0,0.0,0.0,0.0,0.0,0.0,0.0,0.0,0.0,0.0,0.0,0.0,0.0,0.0,0.0,0.0,0.0,0.0,0.0,0.0,0.0,0.0,0.0,0.0,0.0,0.0,0.0,0.0,0.0,0.0,0.0,0.0,0.0,0.0,0.0,0.0,0.0,0.0,0.0,0.0,0.0,0.0,0.0,0.0,0.0,0.0,0.0,0.0,0.0,0.0,0.0,0.0,0.0,0.0,0.0,0.0,0.0,0.0,0.0,0.0,0.0,0.0,0.0,0.0,0.0,0.0,0.0,0.0,0.0,0.0,0.0,0.0,0.0,0.0,0.0,0.0,0.0,0.0,0.0,0.0,0.0,0.0,0.0,0.0,0.0,0.0,0.0,0.0,0.0,0.0,0.0,0.0,0.0,0.0,0.0,0.0,0.0,0.0,0.0,0.0,0.0,0.0,0.0,0.0,0.0,0.0,0.0,0.0,0.0,0.0,0.0,0.0,0.0,0.0,0.0,0.0,0.0,0.0,0.0,0.0,0.0,0.0,0.0,0.0,0.0,0.0,0.0,0.0,0.0,0.0,0.0,0.0,0.0,0.0,0.0,0.0,0.0,0.0,0.0,0.0,0.0,0.0,0.0,0.0,0.0,0.0,0.0,0.0,0.0,0.0,0.0,0.0,0.0,0.0,0.0,0.0,0.0,0.0,0.0,0.0,0.0,0.0,0.0,0.0,0.0,0.0,0.0,0.0,0.0,0.0,0.0,0.0,0.0,0.0,0.0,0.0,0.0,0.0,0.0,0.0,0.0,0.0,0.0,0.0,0.0,0.0,0.0,0.0,0.0,0.0,0.0,0.0,0.0,0.0,0.0,0.0,0.0,0.0,0.0,0.0,0.0,0.0,0.0,0.0,0.0,0.0,0.0,0.0,0.0,0.0,0.0,0.0,0.0,0.0,0.0,0.0,0.0,0.0,0.0,0.0,0.0,0.0,0.0,0.0,0.0,0.0,0.0,0.0,0.0,0.0,0.0,0.0,0.0,0.0,0.0,0.0,0.0,0.0,0.0,0.0,0.0,0.0,0.0,0.0,0.0,0.0,0.0,0.0,0.0,0.0,0.0,0.0,0.0,0.0,0.0,0.0,0.0,0.0,0.0,0.0,0.0,0.0,0.0,0.0,0.0,0.0,0.0,0.0,0.0,0.0,0.0,0.0,0.0,0.0,0.0,0.0,0.0,0.0,0.0,0.0,0.0,0.0,0.0,0.0,0.0,0.0,0.0,0.0,0.0,0.0,0.0,0.0,0.0,0.0,0.0,0.0,0.0,0.0,0.0,0.0,0.0,0.0,0.0,0.0,0.0,0.0,0.0,0.0,0.0,0.0,0.0,0.0,0.0,0.0,0.0,0.0,0.0,0.0,0.0,0.0,0.0,0.0,0.0,0.0,0.0,0.0,0.0,0.0,0.0,0.0,0.0,0.0,0.0,0.0,0.0,0.0,0.0,0.0,0.0,0.0,0.0,0.0,0.0,0.0,0.0,0.0,0.0,0.0,0.0,0.0,0.0,0.0,0.0,0.0,0.0,0.0,0.0,0.0,0.0,0.0,0.0,0.0,0.0,0.0,0.0,0.0,0.0,0.0,0.0,0.0,0.0,0.0,0.0,0.0,0.0,0.0,0.0,0.0,0.0,0.0,0.0,0.0,0.0,0.0,0.0,0.0,0.0,0.0,0.0,0.0,0.0,0.0,0.0,0.0,0.0,0.0,0.0,0.0,0.0,0.0,0.0,0.0,0.0,0.0,0.0,0.0,0.0,0.0,0.0,0.0,0.0,0.0,0.0,0.0,0.0,0.0,0.0,0.0,0.0,0.0,0.0,0.0,0.0,0.0,0.0,0.0,0.0,0.0,0.0,0.0,0.0,0.0,0.0,0.0,0.0,0.0,0.0,0.0,0.0,0.0,0.0,0.0,0.0,0.0,0.0,0.0,0.0,0.0,0.0,0.0,0.0,0.0,0.0,0.0,0.0,0.0,0.0,0.0,0.0,0.0,0.0,0.0,0.0,0.0,0.0,0.0,0.0,0.0,0.0,0.0,0.0,0.0,0.0,0.0,0.0,0.0,0.0,0.0,0.0,0.0,0.0,0.0,0.0,0.0,0.0,0.0,0.0,0.0,0.0,0.0,0.0,0.0,0.0,0.0,0.0,0.0,0.0,0.0,0.0,0.0,0.0,0.0,0.0,0.0,0.0,0.0,0.0,0.0,0.0,0.0,0.0,0.0,0.0,0.0,0.0,0.0,0.0,0.0,0.0,0.0,0.0,0.0,0.0,0.0,0.0,0.0,0.0,0.0,0.0,0.0,0.0,0.0,0.0,0.0,0.0,0.0,0.0,0.0,0.0,0.0,0.0,0.0,0.0,0.0,-1.4124,0.0,0.0,0.0,0.0,0.0,0.0,0.0,0.0,0.0,0.0,0.0,0.0,0.0,0.0,0.0,0.0,0.0,0.0,0.0,0.0,0.0,0.0,0.0,0.0,0.0,0.0,0.0,0.0,0.0,0.0,0.0,0.0,0.0,0.0,0.0,0.0,0.0,0.0,0.0,0.0,0.0,0.0,0.0,0.0,0.0,0.0,0.0,0.0,0.0,0.0,0.0,0.0,0.0,0.0,0.0,0.0,0.0,0.0,0.0,0.0,0.0,0.0,0.0,0.0,0.0,0.0,0.0,0.0,0.0,0.0,0.0,0.0,0.0,0.0,0.0,0.0,0.0,0.0,0.0,0.0,0.0,0.0,0.0,0.0,0.0,0.0,0.0,0.0,0.0,0.0,0.0,0.0,0.0,0.0,0.0,0.0,0.0,0.0,0.0,0.0,0.0,0.0,0.0,0.0,0.0,0.0,0.0,0.0,0.0,0.0,-1.5332,-1.54,-1.4775,-1.4336,-1.4114,0.0,0.0,0.0,0.0,0.0,0.0,0.0,0.0,0.0,0.0,0.0,0.0,0.0,0.0,0.0,0.0,0.0,0.0,0.0,0.0,0.0,0.0,0.0,0.0,0.0,0.0,0.0,0.0,0.0,0.0,0.0,0.0,0.0,0.0,0.0,0.0,0.0,0.0,0.0,0.0,0.0,0.0,0.0,0.0,0.0,0.0,0.0,0.0,0.0,0.0,0.0,0.0,0.0,0.0,0.0,0.0,0.0,0.0,0.0,0.0,0.0,0.0,0.0,0.0,0.0,0.0,0.0,0.0,0.0,0.0,0.0,0.0,0.0,0.0,0.0,0.0,0.0,0.0,0.0,0.0,0.0,0.0,0.0,0.0,0.0,0.0,0.0,0.0,0.0,0.0,0.0,0.0,0.0,0.0,0.0,0.0,0.0,0.0,0.0,0.0,0.0,0.0,0.0,0.0,0.0,0.0,0.0,0.0,0.0,0.0,0.0,0.0,-1.4601,-1.4277,-1.426,0.0,0.0,0.0,0.0,0.0,0.0,0.0,0.0,0.0,0.0,0.0,0.0,0.0,0.0,0.0,0.0,0.0,0.0,0.0,0.0,0.0,0.0,0.0,0.0,0.0,0.0,0.0,0.0,0.0,0.0,0.0,0.0,0.0,0.0,0.0,0.0,0.0,0.0,0.0,0.0,0.0,0.0,0.0,0.0,0.0,0.0,0.0,0.0,0.0,0.0,0.0,0.0,0.0,0.0,0.0,0.0,0.0,0.0,0.0,0.0,0.0,0.0,0.0,0.0,0.0,0.0,0.0,0.0,0.0,0.0,0.0,0.0,0.0,0.0,0.0,0.0,0.0,0.0,0.0,0.0,0.0,0.0,0.0,0.0,0.0,0.0,0.0,0.0,0.0,0.0,0.0,0.0,0.0,0.0,0.0,0.0,0.0,0.0,0.0,0.0,0.0,0.0,0.0,0.0,0.0,0.0,0.0,0.0,0.0,0.0,-1.4844,-1.4872,-1.4756,0.0,-1.4727,0.0,0.0,0.0,0.0,0.0,0.0,0.0,0.0,0.0,0.0,0.0,0.0,0.0,0.0,0.0,0.0,0.0,0.0,0.0,0.0,0.0,0.0,0.0,0.0,0.0,0.0,0.0,0.0,0.0,0.0,0.0,0.0,0.0,0.0,0.0,0.0,0.0,0.0,0.0,0.0,0.0,0.0,0.0,0.0,0.0,0.0,0.0,0.0,0.0,0.0,0.0,0.0,0.0,0.0,0.0,0.0,0.0,0.0,0.0,0.0,0.0,0.0,0.0,0.0,0.0,0.0,0.0,0.0,0.0,0.0,0.0,0.0,0.0,0.0,0.0,0.0,0.0,0.0,0.0,0.0,0.0,0.0,0.0,0.0,0.0,0.0,0.0,0.0,0.0,0.0,0.0,0.0,0.0,0.0,0.0,0.0,0.0,0.0,0.0,0.0,0.0,0.0,0.0,0.0,0.0,0.0,0.0,0.0,0.0,0.0,-1.4785,-1.4785,-1.4541,-1.4377,0.0,0.0,0.0,0.0,0.0,0.0,0.0,0.0,0.0,0.0,0.0,0.0,0.0,0.0,0.0,0.0,0.0,0.0,0.0,0.0,0.0,0.0,0.0,0.0,0.0,0.0,0.0,0.0,0.0,0.0,0.0,0.0,0.0,0.0,0.0,0.0,0.0,0.0,0.0,0.0,0.0,0.0,0.0,0.0,0.0,0.0,0.0,0.0,0.0,0.0,0.0,0.0,0.0,0.0,0.0,0.0,0.0,0.0,0.0,0.0,0.0,0.0,0.0,0.0,0.0,0.0,0.0,0.0,0.0,0.0,0.0,0.0,0.0,0.0,0.0,0.0,0.0,0.0,0.0,0.0,0.0,0.0,0.0,0.0,0.0,0.0,0.0,0.0,0.0,0.0,0.0,0.0,0.0,0.0,0.0,0.0,0.0,0.0,0.0,0.0,0.0,0.0,0.0,0.0,0.0,0.0,0.0,0.0,0.0,0.0,-1.4385,-1.4686,-1.4793,-1.4338,-1.4114,-1.4114,0.0,0.0,0.0,0.0,0.0,0.0,0.0,0.0,0.0,0.0,0.0,0.0,0.0,0.0,0.0,0.0,0.0,0.0,0.0,0.0,0.0,0.0,0.0,0.0,0.0,0.0,0.0,0.0,0.0,0.0,0.0,0.0,0.0,0.0,0.0,0.0,0.0,0.0,0.0,0.0,0.0,0.0,0.0,0.0,0.0,0.0,0.0,0.0,0.0,0.0,0.0,0.0,0.0,0.0,0.0,0.0,0.0,0.0,0.0,0.0,0.0,0.0,0.0,0.0,0.0,0.0,0.0,0.0,0.0,0.0,0.0,0.0,0.0,0.0,0.0,0.0,0.0,0.0,0.0,0.0,0.0,0.0,0.0,0.0,0.0,0.0,0.0,0.0,0.0,0.0,0.0,0.0,0.0,0.0,0.0,0.0,0.0,0.0,0.0,0.0,0.0,0.0,0.0,0.0,0.0,0.0,0.0,0.0,-1.3545,-1.3919,-1.4328,-1.4774,-1.4365,-1.4104,0.0,0.0,0.0,0.0,0.0,0.0,0.0,0.0,0.0,0.0,0.0,0.0,0.0,0.0,0.0,0.0,0.0,0.0,0.0,0.0,0.0,0.0,0.0,0.0,0.0,0.0,0.0,0.0,0.0,0.0,0.0,0.0,0.0,0.0,0.0,0.0,0.0,0.0,0.0,0.0,0.0,0.0,0.0,0.0,0.0,0.0,0.0,0.0,0.0,0.0,0.0,0.0,0.0,0.0,0.0,0.0,0.0,0.0,0.0,0.0,0.0,0.0,0.0,0.0,0.0,0.0,0.0,0.0,0.0,0.0,0.0,0.0,0.0,0.0,0.0,0.0,0.0,0.0,0.0,0.0,0.0,0.0,0.0,0.0,0.0,0.0,0.0,0.0,0.0,0.0,0.0,0.0,0.0,0.0,0.0,0.0,0.0,0.0,0.0,0.0,0.0,0.0,0.0,0.0,0.0,0.0,0.0,0.0,0.0,-1.3125,-1.3516,-1.3909,-1.4336,-1.3955,-1.3704,0.0,0.0,0.0,0.0,0.0,0.0,0.0,0.0,0.0,0.0,0.0,0.0,0.0,0.0,0.0,0.0,0.0,0.0,0.0,0.0,0.0,0.0,0.0,0.0,0.0,0.0,0.0,0.0,0.0,0.0,0.0,0.0,0.0,0.0,0.0,0.0,0.0,0.0,0.0,0.0,0.0,0.0,0.0,0.0,0.0,0.0,0.0,0.0,0.0,0.0,0.0,0.0,0.0,0.0,0.0,0.0,0.0,0.0,0.0,0.0,0.0,0.0,0.0,0.0,0.0,0.0,0.0,0.0,0.0,0.0,0.0,0.0,0.0,0.0,0.0,0.0,0.0,0.0,0.0,0.0,0.0,0.0,0.0,0.0,0.0,0.0,0.0,0.0,0.0,0.0,0.0,0.0,0.0,0.0,0.0,0.0,0.0,0.0,0.0,0.0,0.0,0.0,0.0,0.0,0.0,0.0,0.0,0.0,0.0,-1.3027,0.0,-1.3429,-1.3827,-1.3575,-1.3396,0.0,0.0,0.0,0.0,0.0,0.0,0.0,0.0,0.0,0.0,0.0,0.0,0.0,0.0,0.0,0.0,0.0,0.0,0.0,0.0,0.0,0.0,0.0,0.0,0.0,0.0,0.0,0.0,0.0,0.0,0.0,0.0,0.0,0.0,0.0,0.0,0.0,0.0,0.0,0.0,0.0,0.0,0.0,0.0,0.0,0.0,0.0,0.0,0.0,0.0,0.0,0.0,0.0,0.0,0.0,0.0,0.0,0.0,0.0,0.0,0.0,0.0,0.0,0.0,0.0,0.0,0.0,0.0,0.0,0.0,0.0,0.0,0.0,0.0,0.0,0.0,0.0,0.0,0.0,0.0,0.0,0.0,0.0,0.0,0.0,0.0,0.0,0.0,0.0,0.0,0.0,0.0,0.0,0.0,0.0,0.0,0.0,0.0,0.0,0.0,0.0,0.0,0.0,0.0,0.0,0.0,0.0,0.0,-1.3017,-1.3269,-1.2912,-1.2932,-1.3282,-1.3317,-1.3175,0.0,0.0,0.0,0.0,0.0,0.0,0.0,0.0,0.0,0.0,0.0,0.0,0.0,0.0,0.0,0.0,0.0,0.0,0.0,0.0,0.0,0.0,0.0,0.0,0.0,0.0,0.0,0.0,0.0,0.0,0.0,0.0,0.0,0.0,0.0,0.0,0.0,0.0,0.0,0.0,0.0,0.0,0.0,0.0,0.0,0.0,0.0,0.0,0.0,0.0,0.0,0.0,0.0,0.0,0.0,0.0,0.0,0.0,0.0,0.0,0.0,0.0,0.0,0.0,0.0,0.0,0.0,0.0,0.0,0.0,0.0,0.0,0.0,0.0,0.0,0.0,0.0,0.0,0.0,0.0,0.0,0.0,0.0,0.0,0.0,0.0,0.0,0.0,0.0,0.0,0.0,0.0,0.0,0.0,0.0,0.0,0.0,0.0,0.0,0.0,0.0,0.0,0.0,0.0,0.0,0.0,0.0,0.0,0.0,-1.3017,-1.29,-1.3027,-1.3426,-1.3173,-1.312,0.0,0.0,0.0,0.0,0.0,0.0,0.0,0.0,0.0,0.0,0.0,0.0,0.0,0.0,0.0,0.0,0.0,0.0,0.0,0.0,0.0,0.0,0.0,0.0,0.0,0.0,0.0,0.0,0.0,0.0,0.0,0.0,0.0,0.0,0.0,0.0,0.0,0.0,0.0,0.0,0.0,0.0,0.0,0.0,0.0,0.0,0.0,0.0,0.0,0.0,0.0,0.0,0.0,0.0,0.0,0.0,0.0,0.0,0.0,0.0,0.0,0.0,0.0,0.0,0.0,0.0,0.0,0.0,0.0,0.0,0.0,0.0,0.0,0.0,0.0,0.0,0.0,0.0,0.0,0.0,0.0,0.0,0.0,0.0,0.0,0.0,0.0,0.0,0.0,0.0,0.0,0.0,0.0,0.0,0.0,0.0,0.0,0.0,0.0,0.0,0.0,0.0,0.0,0.0,0.0,0.0,0.0,0.0,0.0,-1.3115,-1.3066,-1.3192,-1.3429,-1.3177,-1.3182,-1.3486,0.0,0.0,0.0,0.0,0.0,0.0,0.0,0.0,0.0,0.0,0.0,0.0,0.0,0.0,0.0,0.0,0.0,0.0,0.0,0.0,0.0,0.0,0.0,0.0,0.0,0.0,0.0,0.0,0.0,0.0,0.0,0.0,0.0,0.0,0.0,0.0,0.0,0.0,0.0,0.0,0.0,0.0,0.0,0.0,0.0,0.0,0.0,0.0,0.0,0.0,0.0,0.0,0.0,0.0,0.0,0.0,0.0,0.0,0.0,0.0,0.0,0.0,0.0,0.0,0.0,0.0,0.0,0.0,0.0,0.0,0.0,0.0,0.0,0.0,0.0,0.0,0.0,0.0,0.0,0.0,0.0,0.0,0.0,0.0,0.0,0.0,0.0,0.0,0.0,0.0,0.0,0.0,0.0,0.0,0.0,0.0,0.0,0.0,0.0,0.0,0.0,0.0,0.0,0.0,0.0,0.0,0.0,0.0,-1.3545,-1.3436,-1.3359,-1.3365,-1.3327,-1.3378,0.0,0.0,0.0,0.0,0.0,0.0,0.0,0.0,0.0,0.0,0.0,0.0,0.0,0.0,0.0,0.0,0.0,0.0,0.0,0.0,0.0,0.0,0.0,0.0,0.0,0.0,0.0,0.0,0.0,0.0,0.0,0.0,0.0,0.0,0.0,0.0,0.0,0.0,0.0,0.0,0.0,0.0,0.0,0.0,0.0,0.0,0.0,0.0,0.0,0.0,0.0,0.0,0.0,0.0,0.0,0.0,0.0,0.0,0.0,0.0,0.0,0.0,0.0,0.0,0.0,0.0,0.0,0.0,0.0,0.0,0.0,0.0,0.0,0.0,0.0,0.0,0.0,0.0,0.0,0.0,0.0,0.0,0.0,0.0,0.0,0.0,0.0,0.0,0.0,0.0,0.0,0.0,0.0,0.0,0.0,0.0,0.0,0.0,0.0,0.0,0.0,0.0,0.0,0.0,0.0,0.0,0.0,0.0,0.0,-1.3938,-1.426,-1.4233,-1.3895,-1.362,-1.3601,0.0,0.0,0.0,0.0,0.0,0.0,0.0,0.0,0.0,0.0,0.0,0.0,0.0,0.0,0.0,0.0,0.0,0.0,0.0,0.0,0.0,0.0,0.0,0.0,0.0,0.0,0.0,0.0,0.0,0.0,0.0,0.0,0.0,0.0,0.0,0.0,0.0,0.0,0.0,0.0,0.0,0.0,0.0,0.0,0.0,0.0,0.0,0.0,0.0,0.0,0.0,0.0,0.0,0.0,0.0,0.0,0.0,0.0,0.0,0.0,0.0,0.0,0.0,0.0,0.0,0.0,0.0,0.0,0.0,0.0,0.0,0.0,0.0,0.0,0.0,0.0,0.0,0.0,0.0,0.0,0.0,0.0,0.0,0.0,0.0,0.0,0.0,0.0,0.0,0.0,0.0,0.0,0.0,0.0,0.0,0.0,0.0,0.0,0.0,0.0,0.0,0.0,0.0,0.0,0.0,0.0,0.0,0.0,-1.386,-1.4104,-1.4551,-1.4658,-1.4377,-1.417,-1.4284,0.0,0.0,0.0,0.0,0.0,0.0,0.0,0.0,0.0,0.0,0.0,0.0,0.0,0.0,0.0,0.0,0.0,0.0,0.0,0.0,0.0,0.0,0.0,0.0,0.0,0.0,0.0,0.0,0.0,0.0,0.0,0.0,0.0,0.0,0.0,0.0,0.0,0.0,0.0,0.0,0.0,0.0,0.0,0.0,0.0,0.0,0.0,0.0,0.0,0.0,0.0,0.0,0.0,0.0,0.0,0.0,0.0,0.0,0.0,0.0,0.0,0.0,0.0,0.0,0.0,0.0,0.0,0.0,0.0,0.0,0.0,0.0,0.0,0.0,0.0,0.0,0.0,0.0,0.0,0.0,0.0,0.0,0.0,0.0,0.0,0.0,0.0,0.0,0.0,0.0,0.0,0.0,0.0,0.0,0.0,0.0,0.0,0.0,0.0,0.0,0.0,0.0,0.0,0.0,0.0,0.0,0.0,0.0,-1.4114,-1.4114,-1.46,-1.4844,-1.4882,-1.4805,-1.5054,0.0,0.0,0.0,0.0,0.0,0.0,0.0,0.0,0.0,0.0,0.0,0.0,0.0,0.0,0.0,0.0,0.0,0.0,0.0,0.0,0.0,0.0,0.0,0.0,0.0,0.0,0.0,0.0,0.0,0.0,0.0,0.0,0.0,0.0,0.0,0.0,0.0,0.0,0.0,0.0,0.0,0.0,0.0,0.0,0.0,0.0,0.0,0.0,0.0,0.0,0.0,0.0,0.0,0.0,0.0,0.0,0.0,0.0,0.0,0.0,0.0,0.0,0.0,0.0,0.0,0.0,0.0,0.0,0.0,0.0,0.0,0.0,0.0,0.0,0.0,0.0,0.0,0.0,0.0,0.0,0.0,0.0,0.0,0.0,0.0,0.0,0.0,0.0,0.0,0.0,0.0,0.0,0.0,0.0,0.0,0.0,0.0,0.0,0.0,0.0,0.0,0.0,0.0,0.0,0.0,0.0,0.0,0.0,-1.4114,-1.4124,-1.4855,-1.5273,-1.5273,-1.4961,-1.4869,0.0,0.0,0.0,0.0,0.0,0.0,0.0,0.0,0.0,0.0,0.0,0.0,0.0,0.0,0.0,0.0,0.0,0.0,0.0,0.0,0.0,0.0,0.0,0.0,0.0,0.0,0.0,0.0,0.0,0.0,0.0,0.0,0.0,0.0,0.0,0.0,0.0,0.0,0.0,0.0,0.0,0.0,0.0,0.0,0.0,0.0,0.0,0.0,-1.9672,0.0,0.0,0.0,0.0,0.0,0.0,0.0,0.0,0.0,0.0,0.0,0.0,0.0,0.0,0.0,0.0,0.0,0.0,0.0,0.0,0.0,0.0,0.0,0.0,0.0,0.0,0.0,0.0,0.0,0.0,0.0,0.0,0.0,0.0,0.0,0.0,0.0,0.0,0.0,0.0,0.0,0.0,0.0,0.0,0.0,0.0,0.0,0.0,0.0,0.0,0.0,0.0,0.0,0.0,0.0,0.0,0.0,0.0,0.0,-1.4114,-1.4133,-1.4933,-1.542,-1.541,-1.5195,-1.5352,0.0,0.0,0.0,0.0,0.0,0.0,0.0,0.0,0.0,0.0,0.0,0.0,0.0,0.0,0.0,0.0,0.0,0.0,0.0,0.0,0.0,0.0,0.0,0.0,0.0,0.0,0.0,0.0,0.0,0.0,0.0,0.0,0.0,0.0,0.0,0.0,0.0,0.0,0.0,0.0,0.0,0.0,0.0,0.0,0.0,0.0,0.0,0.0,0.0,0.0,0.0,0.0,0.0,0.0,0.0,0.0,0.0,0.0,0.0,0.0,0.0,0.0,0.0,0.0,0.0,0.0,0.0,0.0,0.0,0.0,0.0,0.0,0.0,0.0,0.0,0.0,0.0,0.0,0.0,0.0,0.0,0.0,0.0,0.0,0.0,0.0,0.0,0.0,0.0,0.0,0.0,0.0,0.0,0.0,0.0,0.0,0.0,0.0,0.0,0.0,0.0,0.0,0.0,0.0,0.0,0.0,0.0,-1.4109,-1.4099,-1.424,-1.494,-1.5371,-1.5526,-1.5517,-1.6112,-1.7285,0.0,0.0,0.0,0.0,0.0,0.0,0.0,0.0,0.0,0.0,0.0,0.0,0.0,0.0,0.0,0.0,0.0,0.0,0.0,0.0,0.0,0.0,0.0,0.0,0.0,0.0,0.0,0.0,0.0,0.0,0.0,0.0,0.0,0.0,0.0,0.0,0.0,0.0,-1.9376,-2.0072,0.0,0.0,0.0,0.0,0.0,0.0,0.0,0.0,-1.9723,0.0,0.0,0.0,0.0,0.0,0.0,0.0,0.0,0.0,0.0,0.0,0.0,0.0,0.0,0.0,0.0,0.0,0.0,0.0,0.0,0.0,0.0,0.0,0.0,0.0,0.0,0.0,0.0,0.0,0.0,0.0,0.0,0.0,0.0,0.0,0.0,0.0,0.0,0.0,0.0,0.0,0.0,0.0,0.0,0.0,0.0,0.0,0.0,0.0,0.0,0.0,0.0,0.0,0.0,0.0,0.0,-1.4305,-1.3841,-1.3987,-1.4756,-1.4849,-1.5294,-1.612,-1.614,-1.6726,-1.7847,0.0,0.0,0.0,0.0,0.0,0.0,0.0,0.0,0.0,0.0,0.0,0.0,0.0,0.0,0.0,0.0,0.0,0.0,0.0,0.0,0.0,0.0,0.0,0.0,0.0,0.0,0.0,0.0,0.0,0.0,0.0,0.0,0.0,0.0,0.0,0.0,0.0,0.0,0.0,-2.0124,-2.0441,0.0,0.0,0.0,0.0,0.0,0.0,0.0,0.0,-1.997,0.0,0.0,0.0,0.0,0.0,0.0,0.0,0.0,0.0,0.0,0.0,0.0,0.0,0.0,0.0,0.0,0.0,0.0,0.0,0.0,0.0,0.0,0.0,0.0,0.0,0.0,0.0,0.0,0.0,0.0,0.0,0.0,0.0,0.0,0.0,0.0,0.0,0.0,0.0,0.0,0.0,0.0,0.0,0.0,0.0,0.0,0.0,0.0,0.0,0.0,0.0,0.0,0.0,0.0,0.0,-1.4291,-1.3983,-1.4031,-1.4476,-1.4698,-1.515,-1.5815,-1.5642,-1.6175,0.0,0.0,0.0,0.0,0.0,0.0,0.0,0.0,0.0,0.0,0.0,0.0,0.0,0.0,0.0,0.0,0.0,0.0,0.0,0.0,0.0,0.0,0.0,0.0,0.0,0.0,0.0,0.0,0.0,0.0,0.0,0.0,0.0,0.0,0.0,0.0,0.0,0.0,0.0,0.0,-1.9919,-2.0045,-1.9713,0.0,0.0,0.0,0.0,0.0,0.0,-2.0302,-2.0782,0.0,0.0,0.0,0.0,0.0,0.0,0.0,0.0,0.0,0.0,0.0,0.0,0.0,0.0,0.0,0.0,0.0,0.0,0.0,0.0,0.0,0.0,0.0,0.0,0.0,0.0,0.0,0.0,0.0,0.0,0.0,0.0,0.0,0.0,0.0,0.0,0.0,0.0,0.0,0.0,0.0,0.0,0.0,0.0,0.0,0.0,0.0,0.0,0.0,0.0,0.0,0.0,0.0,0.0,0.0,-1.457,-1.4224,-1.4152,-1.4415,-1.4687,-1.5104,-1.56,-1.5424,-1.597,0.0,0.0,0.0,0.0,0.0,0.0,0.0,0.0,0.0,0.0,0.0,0.0,0.0,0.0,0.0,0.0,0.0,0.0,0.0,0.0,0.0,0.0,0.0,0.0,0.0,0.0,0.0,0.0,0.0,0.0,0.0,0.0,0.0,0.0,0.0,0.0,0.0,0.0,0.0,0.0,0.0,-1.9723,-1.9708,-1.9747,0.0,0.0,0.0,0.0,-2.0187,-2.0921,0.0,0.0,0.0,0.0,0.0,0.0,0.0,0.0,0.0,0.0,0.0,0.0,0.0,0.0,0.0,0.0,0.0,0.0,0.0,0.0,0.0,0.0,0.0,0.0,0.0,0.0,0.0,0.0,0.0,0.0,0.0,0.0,0.0,0.0,0.0,0.0,0.0,0.0,0.0,0.0,0.0,0.0,0.0,0.0,0.0,0.0,0.0,0.0,0.0,0.0,0.0,0.0,0.0,0.0,0.0,0.0,-1.5536,-1.432,-1.4267,-1.5419,-1.5154,-1.5415,-1.6345,-1.6792,-1.7343,0.0,0.0,0.0,0.0,0.0,0.0,0.0,0.0,0.0,0.0,0.0,0.0,0.0,0.0,0.0,0.0,0.0,0.0,0.0,0.0,0.0,0.0,0.0,0.0,0.0,0.0,0.0,0.0,0.0,0.0,0.0,0.0,0.0,0.0,0.0,0.0,0.0,0.0,0.0,0.0,0.0,-1.9723,-1.9723,-1.9962,-2.005,0.0,0.0,0.0,-2.0283,-2.1304,0.0,0.0,0.0,0.0,0.0,0.0,0.0,0.0,0.0,0.0,0.0,0.0,0.0,0.0,0.0,0.0,0.0,0.0,0.0,0.0,0.0,0.0,0.0,0.0,0.0,0.0,0.0,0.0,0.0,0.0,0.0,0.0,0.0,0.0,0.0,0.0,0.0,0.0,0.0,0.0,0.0,0.0,0.0,0.0,0.0,0.0,0.0,0.0,0.0,0.0,0.0,0.0,0.0,0.0,0.0,-1.4823,-1.4915,-1.4291,-1.4111,-1.4422,-1.4268,-1.4762,-1.6007,-1.6016,-1.6681,0.0,0.0,0.0,0.0,0.0,0.0,0.0,0.0,0.0,0.0,0.0,0.0,0.0,0.0,0.0,0.0,0.0,0.0,0.0,0.0,0.0,0.0,0.0,0.0,0.0,0.0,0.0,0.0,0.0,0.0,0.0,0.0,0.0,0.0,0.0,0.0,0.0,0.0,0.0,0.0,0.0,0.0,-1.9945,-2.012,0.0,0.0,0.0,-2.1365,-2.0906,0.0,0.0,0.0,0.0,0.0,0.0,0.0,0.0,0.0,0.0,0.0,0.0,0.0,0.0,0.0,0.0,0.0,0.0,0.0,0.0,0.0,0.0,0.0,0.0,0.0,0.0,0.0,0.0,0.0,0.0,0.0,0.0,0.0,0.0,0.0,0.0,0.0,0.0,0.0,0.0,0.0,0.0,0.0,0.0,0.0,0.0,0.0,0.0,0.0,0.0,0.0,0.0,0.0,0.0,0.0,0.0,0.0,-1.4686,-1.451,-1.4391,-1.4293,-1.4268,-1.487,-1.6073,-1.5763,0.0,0.0,0.0,0.0,0.0,0.0,0.0,0.0,0.0,0.0,0.0,0.0,0.0,0.0,0.0,0.0,0.0,0.0,0.0,0.0,0.0,0.0,0.0,0.0,0.0,0.0,0.0,0.0,0.0,0.0,0.0,0.0,0.0,0.0,0.0,0.0,0.0,0.0,0.0,0.0,0.0,0.0,-2.0038,-2.0292,-2.0333,-2.0311,0.0,0.0,-2.1773,-2.1359,-2.2524,-2.347,0.0,0.0,0.0,0.0,0.0,0.0,0.0,0.0,0.0,0.0,0.0,0.0,0.0,0.0,0.0,0.0,0.0,0.0,0.0,0.0,0.0,0.0,0.0,0.0,0.0,0.0,0.0,0.0,0.0,0.0,0.0,0.0,0.0,0.0,0.0,0.0,0.0,0.0,0.0,0.0,0.0,0.0,0.0,0.0,0.0,0.0,0.0,0.0,0.0,0.0,0.0,0.0,0.0,0.0,0.0,-1.5693,-1.5267,-1.5464,-1.6338,-1.6408,-1.6705,-1.7277,-1.7199,-1.7479,0.0,0.0,0.0,0.0,0.0,0.0,0.0,0.0,0.0,0.0,0.0,0.0,0.0,0.0,0.0,0.0,0.0,0.0,0.0,0.0,0.0,0.0,0.0,0.0,0.0,0.0,0.0,0.0,0.0,0.0,0.0,0.0,0.0,0.0,0.0,0.0,0.0,0.0,0.0,0.0,0.0,-2.0632,-2.0666,-2.0707,-2.0629,0.0,0.0,-2.2053,-2.1391,-2.249,-2.3077,-2.2101,0.0,0.0,0.0,0.0,0.0,0.0,0.0,0.0,0.0,0.0,0.0,0.0,0.0,0.0,0.0,0.0,0.0,0.0,0.0,0.0,0.0,0.0,0.0,0.0,0.0,0.0,0.0,0.0,0.0,0.0,0.0,0.0,0.0,0.0,0.0,0.0,0.0,0.0,0.0,0.0,0.0,0.0,0.0,0.0,0.0,0.0,0.0,0.0,0.0,0.0,0.0,0.0,0.0,-1.6009,-1.5402,-1.551,-1.5635,-1.5664,-1.5984,-1.6593,-1.7441,-1.7436,-1.7821,0.0,0.0,0.0,0.0,0.0,0.0,0.0,0.0,0.0,0.0,0.0,0.0,0.0,0.0,0.0,0.0,0.0,0.0,0.0,0.0,0.0,0.0,0.0,0.0,0.0,0.0,0.0,0.0,-1.9321,-1.9812,-2.0808,0.0,0.0,0.0,0.0,0.0,0.0,0.0,0.0,0.0,0.0,-2.0633,-2.0433,-2.041,0.0,0.0,-2.1598,-2.2199,-2.167,-2.2456,-2.3095,-2.3141,-2.3868,0.0,0.0,0.0,0.0,0.0,0.0,0.0,0.0,0.0,0.0,0.0,0.0,0.0,0.0,0.0,0.0,0.0,0.0,0.0,0.0,0.0,0.0,0.0,0.0,0.0,0.0,0.0,0.0,0.0,0.0,0.0,0.0,0.0,0.0,0.0,0.0,0.0,0.0,0.0,0.0,0.0,0.0,0.0,0.0,0.0,0.0,0.0,0.0,0.0,0.0,0.0,0.0,-1.6563,-1.5578,-1.6091,-1.6169,-1.577,-1.6305,-1.694,-1.7658,-1.7691,-1.8093,0.0,0.0,0.0,0.0,0.0,0.0,0.0,0.0,0.0,0.0,0.0,0.0,0.0,0.0,0.0,0.0,0.0,0.0,0.0,0.0,0.0,0.0,0.0,0.0,0.0,0.0,0.0,0.0,-1.9494,-1.9916,-2.0991,0.0,0.0,0.0,0.0,0.0,0.0,0.0,0.0,0.0,0.0,-2.0621,-2.0378,-2.0362,-2.0479,-2.0761,-2.1585,-2.2129,-2.1865,-2.2426,-2.3089,-2.3586,0.0,0.0,0.0,0.0,0.0,0.0,0.0,0.0,0.0,0.0,0.0,0.0,0.0,0.0,0.0,0.0,0.0,0.0,0.0,0.0,0.0,0.0,0.0,0.0,0.0,0.0,0.0,0.0,0.0,0.0,0.0,0.0,0.0,0.0,0.0,0.0,0.0,0.0,0.0,0.0,0.0,0.0,0.0,0.0,0.0,0.0,0.0,0.0,0.0,0.0,0.0,0.0,0.0,0.0,-1.6596,-1.7087,-1.7351,-1.7363,-1.7855,-1.8142,-1.8178,-1.8122,-1.839,-1.8987,0.0,0.0,0.0,0.0,0.0,0.0,0.0,0.0,0.0,0.0,0.0,0.0,0.0,0.0,0.0,0.0,0.0,0.0,0.0,0.0,0.0,0.0,0.0,0.0,0.0,0.0,-2.0337,-1.9968,-1.9735,0.0,0.0,0.0,0.0,0.0,0.0,0.0,0.0,0.0,0.0,-2.1792,-2.0688,-2.0681,-2.074,-2.0745,-2.0794,-2.1371,-2.1814,-2.1814,-2.241,-2.2891,0.0,0.0,0.0,0.0,0.0,0.0,0.0,0.0,0.0,0.0,0.0,0.0,0.0,0.0,0.0,0.0,0.0,0.0,0.0,0.0,0.0,0.0,0.0,0.0,0.0,0.0,0.0,0.0,-1.7573,0.0,0.0,0.0,0.0,0.0,0.0,0.0,0.0,0.0,0.0,0.0,-1.7765,-1.7396,0.0,0.0,0.0,0.0,0.0,0.0,0.0,0.0,0.0,0.0,0.0,0.0,-1.7857,-1.7183,-1.7676,-1.7941,-1.7953,-1.8458,-1.8734,-1.8722,-1.8705,-1.8789,-1.8999,0.0,0.0,0.0,0.0,0.0,0.0,0.0,0.0,0.0,0.0,0.0,0.0,0.0,0.0,0.0,0.0,0.0,0.0,0.0,0.0,0.0,0.0,0.0,0.0,0.0,-2.0604,0.0,0.0,0.0,0.0,0.0,0.0,0.0,0.0,0.0,0.0,0.0,-2.3145,-2.2698,-2.1519,-2.0603,-2.039,-2.0377,-2.058,0.0,0.0,0.0,0.0,0.0,0.0,0.0,0.0,0.0,0.0,0.0,0.0,0.0,0.0,-2.458,-2.4041,-2.4153,-2.4027,-2.305,0.0,0.0,0.0,0.0,0.0,0.0,0.0,0.0,0.0,0.0,0.0,0.0,0.0,0.0,0.0,0.0,-1.8017,0.0,0.0,0.0,0.0,0.0,0.0,0.0,0.0,-1.7781,-1.7883,-1.8052,-1.7855,-1.8171,0.0,-1.926,-1.9071,0.0,0.0,0.0,0.0,0.0,0.0,0.0,0.0,-1.8205,-1.7736,-1.8205,-1.8386,-1.8229,-1.8722,-1.8903,-1.8734,-1.8891,-1.9013,-1.9013,-1.9013,-1.9013,0.0,0.0,0.0,0.0,0.0,0.0,0.0,0.0,0.0,0.0,0.0,0.0,0.0,0.0,0.0,0.0,0.0,0.0,0.0,0.0,0.0,0.0,0.0,-2.1254,0.0,0.0,0.0,0.0,0.0,0.0,0.0,0.0,0.0,-2.4679,-2.399,-2.3301,-2.2717,-2.185,-2.1178,-2.0975,0.0,0.0,0.0,0.0,0.0,0.0,0.0,-2.3984,-2.4944,-2.5308,-2.5556,-2.5772,-2.5425,-2.5027,-2.4762,0.0,0.0,-2.3541,-2.3737,-2.373,-2.3175,-2.3369,-2.3582,-2.3457,-2.3463,-2.355,0.0,0.0,0.0,0.0,0.0,0.0,0.0,0.0,-1.6755,-1.6797,0.0,-1.686,0.0,0.0,0.0,0.0,0.0,0.0,0.0,0.0,-1.8822,-1.8552,-1.8133,-1.8574,-1.8846,-1.8857,-1.8838,-1.8881,-1.8981,-1.9555,0.0,0.0,0.0,0.0,0.0,0.0,-1.8734,-1.8253,-1.8722,-1.8734,-1.8277,-1.8722,-1.8746,-1.8277,-1.8734,-1.9013,-1.9013,-1.9013,-1.9013,-1.9013,-1.9013,0.0,0.0,0.0,0.0,0.0,0.0,0.0,0.0,0.0,0.0,0.0,0.0,0.0,0.0,0.0,0.0,0.0,0.0,0.0,0.0,-2.2168,0.0,0.0,0.0,0.0,0.0,0.0,0.0,0.0,0.0,0.0,-2.4219,-2.4006,-2.3742,-2.3339,0.0,0.0,0.0,0.0,-2.2217,-2.2259,-2.2918,-2.3429,-2.3461,-2.4375,-2.5094,-2.5126,0.0,0.0,-2.5259,-2.5143,-2.4878,-2.415,-2.3503,-2.3156,-2.3884,-2.3483,-2.3356,-2.4206,-2.3834,-2.368,-2.4509,-2.4355,-2.4121,-1.7101,0.0,0.0,0.0,0.0,-1.7288,-1.7302,-1.7427,-1.7417,-1.774,-1.8344,-1.8334,0.0,0.0,0.0,0.0,0.0,0.0,-1.9372,-1.9483,-1.9456,-1.9356,-1.9208,-1.9356,-1.9672,-2.0077,-2.0452,-2.0447,-2.0125,-2.0284,-1.9901,-1.8999,0.0,0.0,0.0,0.0,-1.8915,-1.8782,-1.8915,-1.8927,-1.877,-1.8903,-1.8915,-1.877,-1.8903,-1.9013,-1.9013,-1.9013,-1.9013,-1.9013,-1.9013,0.0,0.0,0.0,0.0,0.0,0.0,0.0,0.0,0.0,0.0,0.0,0.0,0.0,0.0,0.0,0.0,0.0,0.0,0.0,-2.2062,-2.2155,-2.2152,0.0,0.0,0.0,0.0,0.0,0.0,0.0,0.0,0.0,-2.3809,-2.3354,-2.3091,0.0,0.0,-2.2194,-2.303,-2.2851,-2.2833,-2.3397,0.0,0.0,0.0,-2.4893,-2.5292,-2.5788,-2.6053,-2.6119,-2.5921,-2.5441,-2.5044,-2.4812,-2.4183,-2.3752,-2.3901,-2.3547,-2.3487,-2.4165,-2.3857,-2.3752,-2.466,-2.4448,-2.4082,-1.7304,-1.733,-1.7467,-1.7495,-1.7514,-1.7675,-1.7777,-1.7862,-1.7896,-1.8232,-1.8702,-1.8623,-1.8988,-1.9672,-1.9689,0.0,0.0,0.0,-2.0299,-2.0381,-2.061,-2.0686,-2.0716,-2.0674,-2.1003,-2.1548,-2.1452,-2.1235,-2.0911,-2.049,-1.9961,-1.9338,0.0,0.0,-1.9013,-1.9013,-1.9013,-1.9013,-1.9013,-1.9013,-1.9013,-1.9013,-1.9013,-1.9013,-1.9013,-1.9013,-1.9013,-1.9013,-1.9013,-1.9013,-1.9013,-1.9013,0.0,0.0,0.0,0.0,0.0,0.0,0.0,0.0,0.0,0.0,0.0,-2.1554,0.0,0.0,0.0,0.0,-2.2548,-2.249,-2.2381,-2.2469,0.0,0.0,0.0,0.0,0.0,0.0,0.0,-2.3128,-2.3625,-2.3909,-2.3623,-2.3302,-2.323,-2.3651,-2.3277,-2.3231,-2.3948,0.0,-2.3803,-2.4291,-2.4485,-2.4754,-2.5197,-2.5419,-2.5689,-2.6103,-2.5938,-2.5887,-2.6119,-2.5374,-2.4812,-2.4928,-2.4265,-2.3653,-2.3951,-2.3563,-2.3522,-2.4444,-2.4438,-2.4443,-2.5018,-2.477,-2.4462,-1.7513,-1.754,-1.7514,-1.7483,-1.7511,-1.7889,-1.805,-1.8124,-1.8276,-1.8356,-1.8353,-1.8177,-1.8446,-1.906,-1.9819,0.0,0.0,-2.1296,-2.1302,-2.1398,-2.1938,-2.2197,-2.2197,-2.2185,-2.245,-2.2927,-2.1933,-2.144,-2.1344,-2.0358,-1.9856,-1.9796,-1.9278,-1.9013,-1.9013,-1.9013,-1.9013,-1.9013,-1.9013,-1.9013,-1.9013,-1.9013,-1.9013,-1.9013,-1.9013,-1.9013,-1.9013,-1.9013,-1.9013,-1.9013,-1.9013,-1.9013,-1.9013,0.0,0.0,0.0,0.0,0.0,0.0,0.0,0.0,0.0,0.0,0.0,0.0,0.0,0.0,0.0,-2.2062,0.0,-2.2844,-2.3,0.0,0.0,0.0,-2.3341,-2.3444,-2.3487,-2.3516,-2.3573,0.0,0.0,0.0,0.0,-2.3745,-2.4213,-2.4558,-2.4823,-2.4926,-2.4875,-2.4906,-2.4999,-2.5332,-2.5542,-2.5568,-2.5888,-2.6136,-2.6152,-2.5607,-2.5392,-2.5838,-2.4978,-2.4398,-2.4845,-2.3901,-2.3205,-2.3884,-2.3597,-2.3627,-2.4763,-2.5063,-2.5178,-2.5226,-2.5129,-2.4851,-1.7688,-1.7935,-1.764,-1.7491,-1.7509,-1.7602,-1.7896,-1.833,-1.8376,-1.855,-1.8805,-1.8781,-1.8948,-1.9231,-1.9062,-1.9406,-2.0124,-2.0323,-2.0667,-2.1225,-2.1865,-2.2197,-2.2197,-2.2197,-2.2258,-2.2366,-2.2125,-2.1801,-2.138,-2.073,-2.0201,-1.9796,-1.9251,-1.9013,-1.9013,-1.9013,-1.9013,-1.9013,-1.9013,-1.9013,-1.9013,-1.9013,-1.9013,-1.9013,-1.9013,-1.9013,-1.9013,-1.9013,-1.9013,-1.9013,-1.9013,-1.9013,-1.9013,-1.9013,0.0,0.0,0.0,0.0,0.0,0.0,0.0,0.0,0.0,-2.2693,-2.2707,0.0,-2.2844,0.0,-2.2678,-2.2743,-2.2888,-2.3037,0.0,0.0,-2.3142,-2.3275,-2.3216,-2.3356,-2.3509,-2.3531,-2.3566,-2.3595,-2.3595,-2.3595,-2.3638,-2.376,-2.3852,-2.4277,-2.5179,-2.5098,-2.5137,-2.5752,-2.5936,-2.6025,-2.6043,-2.6132,-2.6185,-2.6185,-2.559,-2.5176,-2.5308,-2.463,-2.4067,-2.4216,-2.4017,-2.3818,-2.3934,-2.39,-2.3883,-2.4231,-2.4106,-2.4133,-2.4868,-2.4623,-2.4242,-1.8174,-1.8301,-1.7743,-1.7697,-1.8036,-1.8036,-1.8239,-1.8526,-1.861,-1.8845,-1.9125,-1.9128,-1.9252,-1.9449,-1.9389,-1.9532,-1.9899,-2.0567,-2.0955,-2.1135,-2.1851,-2.2318,-2.2534,-2.2337,-2.2318,-2.2534,-2.2306,-2.1921,-2.1392,-2.0846,-2.0322,-1.9808,-1.9278,-1.9013,-1.9013,-1.9013,-1.9013,-1.9013,-1.9013,-1.9013,-1.9013,-1.9013,-1.9013,-1.9013,-1.9013,-1.9013,-1.9013,-1.9013,-1.9013,-1.9013,-1.9013,-1.9013,-1.9013,-1.9013,-1.9013,0.0,0.0,0.0,0.0,0.0,0.0,0.0,0.0,0.0,0.0,0.0,-2.2888,0.0,0.0,0.0,-2.2888,-2.297,-2.2992,-2.2925,-2.3023,-2.312,-2.3194,-2.3334,-2.3451,-2.3538,-2.3588,-2.3595,-2.3595,-2.3595,-2.3595,-2.3595,-2.3595,-2.4006,-2.5005,-2.5179,-2.5406,-2.6061,-2.6185,-2.6185,-2.6185,-2.6185,-2.6185,-2.612,-2.5309,-2.4713,-2.4977,-2.3934,-2.3106,-2.3404,-2.3238,-2.3023,-2.3023,-2.3038,-2.3085,-2.3111,-2.3013,-2.3238,-2.404,-2.4024,-2.3869,-1.8742,-1.8724,-1.7963,-1.8091,-1.8788,-1.8788,-1.8749,-1.8788,-1.896,-1.9153,-1.9345,-1.9359,-1.9518,-1.9737,-2.0063,-2.0087,-1.9995,-2.1008,-2.1247,-2.1008,-2.1694,-2.2344,-2.2859,-2.2414,-2.2426,-2.2891,-2.2426,-2.1921,-2.1404,-2.0935,-2.0442,-1.9916,-1.9348,-1.9083,-1.9095,-1.9122,-1.9059,-1.9025,-1.9013,-1.9013,-1.9013,-1.9013,-1.9013,-1.9013,-1.9013,-1.9013,-1.9013,-1.9013,-1.9013,-1.9013,-1.9013,-1.9013,-1.9013,-1.9013,-1.9013,0.0,-1.9013,0.0,0.0,0.0,0.0,0.0,0.0,0.0,0.0,-2.2661,-2.2888,-2.2888,-2.2888,-2.2888,-2.2888,-2.2888,-2.2888,-2.2888,-2.2888,-2.3,-2.3223,-2.3253,-2.3341,-2.3545,-2.3588,-2.3588,-2.3595,-2.3595,-2.3595,-2.3595,-2.3595,-2.39,-2.4664,-2.5079,-2.546,-2.6025,-2.6168,-2.6185,-2.6185,-2.6185,-2.6136,-2.5937,-2.4944,-2.4216,-2.4646,-2.3156,-2.2044,-2.2543,-2.2294,-2.1895,-2.1796,-2.1905,-2.1976,-2.2116,-2.2221,-2.2464,-2.3045,-2.3366,-2.3467,-1.8898,-1.9136,-1.8678,-1.8751,-1.9191,-1.9191,-1.9191,-1.9191,-1.9231,-1.9358,-1.9564,-1.9704,-1.9822,-1.9832,-1.962,-1.93,-1.9004,-1.9413,-1.9752,-2.0063,-2.0782,-2.1572,-2.2299,-2.2234,-2.2277,-2.2342,-2.2246,-2.1921,-2.1404,-2.1308,-2.0983,-2.0454,-1.9901,-1.9664,0.0,0.0,0.0,0.0,-1.9013,-1.9013,-1.9013,-1.9013,-1.9013,-1.9013,-1.9013,0.0,-1.9013,-1.9013,-1.9013,-1.9013,-1.9013,0.0,0.0,0.0,0.0,0.0,0.0,0.0,0.0,0.0,0.0,0.0,-2.129,-2.2347,-2.2729,-2.2857,-2.2888,-2.2888,-2.2888,-2.2888,-2.2888,-2.2888,-2.2888,-2.2888,-2.2888,-2.291,-2.2978,-2.3068,-2.3201,-2.3341,-2.3451,-2.3538,-2.3595,-2.3595,-2.3595,-2.3595,-2.3595,-2.3809,-2.4328,-2.4513,-2.4819,-2.5481,-2.5936,-2.6151,-2.6185,-2.6169,-2.5987,-2.5374,-2.4613,-2.3884,-2.3404,-2.2608,-2.1829,-2.2029,-2.1895,-2.1811,-2.1869,-2.1899,-2.1943,-2.2123,-2.2183,-2.2247,-2.2437,-2.2542,-2.2544,-1.9127,0.0,-1.888,-1.8935,0.0,-1.9091,-1.9127,-1.9292,-1.9292,-1.9429,-1.9606,-1.9794,-1.9798,-1.96,-1.96,-1.9175,-1.8461,-1.9094,-1.932,-1.9233,-2.0354,-2.108,-2.142,-2.1956,-2.2166,-2.2061,-2.2166,-2.1921,-2.1416,-2.1404,-2.0995,-2.0201,-2.0189,-2.0057,-1.982,-1.9808,-1.9648,-1.9384,-1.9119,-1.9013,-1.9013,-1.9013,-1.9013,-1.9013,0.0,0.0,0.0,0.0,0.0,0.0,0.0,0.0,0.0,0.0,0.0,-1.9013,-1.9052,-1.9117,-1.9117,-1.9422,-1.9669,-1.9824,-2.0919,-2.1969,-2.2834,-2.2888,-2.2888,-2.2888,-2.2888,-2.2888,-2.2888,-2.2888,-2.2888,-2.2888,-2.2888,-2.291,-2.2992,-2.306,-2.3157,-2.3363,-2.3466,-2.3516,-2.3573,-2.3595,-2.3595,-2.3595,-2.3595,-2.3681,-2.3909,-2.4141,-2.4533,-2.5102,-2.5572,-2.583,-2.5866,-2.6063,-2.5954,-2.5209,-2.4497,-2.3752,-2.3023,-2.2293,-2.1781,-2.1781,-2.1781,-2.1811,-2.184,-2.1855,-2.1884,-2.202,-2.2077,-2.2152,-2.2225,-2.2268,-2.2335,-1.9292,-1.9274,-1.8953,-1.8999,-1.9274,-1.8914,-1.8999,-1.9292,0.0,0.0,0.0,-1.964,-1.9531,-1.9305,-1.9493,-1.9052,-1.8296,-1.9039,-1.9142,-1.8741,-2.015,-2.0848,-2.0892,-2.1808,-2.2142,-2.2005,-2.2078,-2.1889,-2.147,-2.1458,-2.1015,-2.0224,-2.05,-2.0457,-2.0053,-1.9973,-2.0001,-2.0061,-1.9348,-1.9013,-1.9013,-1.9013,-1.8934,-1.8854,-1.896,-1.896,-1.8854,-1.8934,-1.9013,-1.9013,-1.9013,-1.9013,-1.9013,-1.9013,-1.9013,-1.9013,-1.9013,-1.9013,-1.9013,-1.9013,-1.9291,-1.9991,-2.0658,-2.1551,-2.2684,-2.2775,-2.282,-2.2888,-2.2888,-2.2888,-2.2888,-2.2888,-2.2888,-2.2888,-2.2888,-2.2947,-2.3037,-2.306,-2.3171,-2.34,-2.3444,-2.3494,-2.3588,-2.3595,-2.3595,-2.3595,-2.3595,-2.3595,-2.3653,-2.4015,-2.4426,-2.4759,-2.5137,-2.5389,-2.5446,-2.5756,-2.5781,-2.5071,-2.4414,-2.3752,-2.3023,-2.2294,-2.1847,-2.1781,-2.1781,-2.1796,-2.1811,-2.1842,-2.184,-2.1913,-2.1953,-2.2044,-2.2135,-2.2225,-2.2352,-1.9292,-1.9292,-1.9237,-1.9246,-1.9292,-1.9237,-1.9246,-1.9292,-1.9292,-1.9301,-1.9323,-1.8983,-1.9031,-1.9261,-1.8653,-1.8422,-1.8598,-1.8425,-1.8653,0.0,-2.0228,-2.1066,-2.1822,-2.2194,-2.2365,-2.2298,-2.1941,-2.1726,-2.1667,-2.1643,-2.1561,-2.1372,-2.1042,-2.0884,-2.089,-2.0632,-2.0718,-2.1127,-1.9732,-1.9013,-1.9013,-1.9013,-1.8762,-1.8282,-1.8735,-1.8762,-1.8267,-1.8735,-1.9013,-1.9013,-1.9013,-1.9013,-1.9013,-1.9013,-1.9013,-1.9013,-1.9013,-1.9013,-1.9013,-1.9013,-1.9344,-2.008,-2.0371,-2.1031,-2.217,-2.2301,-2.2463,-2.2843,-2.2888,-2.2888,-2.2888,-2.2888,-2.2888,-2.2888,-2.2888,-2.291,-2.2933,-2.2947,-2.3045,-2.3275,-2.3319,-2.3407,-2.3545,-2.3573,-2.3595,-2.3595,-2.3595,-2.3595,-2.3659,-2.4009,-2.4297,-2.4426,-2.4719,-2.4942,-2.502,-2.5349,-2.5267,-2.4686,-2.4246,-2.367,-2.2877,-2.2261,-2.1814,-2.1781,-2.1781,-2.1811,-2.1869,-2.1899,-2.1913,-2.1955,-2.1984,-2.2013,-2.2044,-2.212,-2.2223,-1.9292,-1.9292,-1.9292,-1.9292,-1.9292,-1.9292,-1.9292,-1.9292,-1.9292,-1.9292,-1.9283,-1.9118,-1.9136,-1.9256,-1.8926,-1.8733,-1.8705,-1.8522,-1.8536,-1.8756,-1.9564,-2.0042,-2.0202,-2.0826,-2.0986,-2.0709,-2.0596,-2.0516,-2.0537,-2.0912,-2.0744,-2.0147,-2.0234,-2.068,-2.1337,-2.0997,-2.0682,-2.0495,-1.9816,-1.9435,-1.9435,-1.917,-1.8709,-1.812,-1.8375,-1.839,-1.812,-1.8375,-1.8655,-1.8987,-1.9013,-1.9013,-1.9013,-1.9013,-1.9013,-1.9013,-1.9013,-1.9013,-1.9013,-1.9013,-1.9172,-1.9618,-1.9785,-2.0245,-2.1153,-2.1841,-2.2394,-2.2843,-2.2888,-2.2888,-2.2888,-2.2888,-2.2888,-2.2888,-2.2888,-2.2888,-2.2888,-2.2888,-2.2992,-2.3157,-2.3201,-2.3268,-2.3414,-2.3501,-2.3538,-2.356,-2.3581,-2.3595,-2.3595,-2.3767,-2.3931,-2.3937,-2.4287,-2.4553,-2.4599,-2.4906,-2.471,-2.3754,-2.3657,-2.3177,-2.2327,-2.1812,-2.1816,-2.1781,-2.1781,-2.1796,-2.184,-2.184,-2.1869,-2.1884,-2.1926,-2.194,-2.1955,-2.2032,-2.2135,-1.9366,-1.9439,-1.9347,-1.9292,-1.9292,-1.9292,-1.9292,-1.9292,-1.9292,-1.9292,-1.9283,-1.921,-1.9219,-1.9283,-1.9118,-1.8962,-1.8843,-1.8751,-1.8586,-1.8478,-1.9245,-1.9438,-1.9125,-1.9825,-1.9962,-1.959,-1.9531,-1.9472,-1.9464,-2.0074,-1.9825,-1.8923,-1.9391,-2.02,-2.1115,-2.0776,-2.0279,-1.9776,-1.9613,-1.945,-1.9284,-1.8807,-1.8267,-1.7754,-1.782,-1.782,-1.7727,-1.7945,-1.8321,-1.8774,-1.8934,-1.9013,-1.9013,-1.9013,-1.9013,-1.9013,-1.9013,-1.9013,-1.9013,-1.9013,-1.9052,-1.917,-1.9328,-1.9694,-2.0372,-2.1275,-2.21,-2.2638,-2.2715,-2.2775,-2.2865,-2.2888,-2.2888,-2.2888,-2.2888,-2.2888,-2.2888,-2.2888,-2.2933,-2.3074,-2.3097,-2.3149,-2.329,-2.34,-2.3451,-2.3509,-2.356,-2.3595,-2.3595,-2.3595,-2.3595,-2.3659,-2.3894,-2.4099,-2.4147,-2.4311,-2.4049,-2.3019,-2.2964,-2.2548,-2.1762,-2.1581,-2.1586,-2.1616,-2.1661,-2.1706,-2.1751,-2.1781,-2.1796,-2.1811,-2.1855,-2.1884,-2.1897,-2.1957,-2.2044,-1.9512,-1.9747,-1.9457,-1.9292,-1.9292,-1.9292,-1.9292,-1.9292,-1.9292,-1.9292,-1.9265,-1.8935,-1.8999,-1.9173,-1.8548,-1.8641,-1.9182,-1.8871,-1.888,-1.9233,-2.0033,-2.0352,-2.0215,-2.0301,-2.0367,-2.0137,-1.9751,-1.9312,-1.9047,-1.9448,-1.944,-1.9067,-1.9236,-1.9411,-1.9552,-1.9619,-1.9597,-1.9521,-1.903,-1.8491,-1.781,-1.7379,-1.6944,-1.6472,-1.7006,-1.7034,-1.6616,-1.7545,-1.812,-1.8201,-1.8709,-1.8987,-1.8987,-1.8999,-1.9013,-1.9013,-1.9013,-1.9013,-1.9013,-1.9013,-1.9052,-1.9196,-1.9316,-1.9681,-2.0296,-2.0598,-2.1202,-2.201,-2.2268,-2.2463,-2.2834,-2.2888,-2.2888,-2.2888,-2.2888,-2.2888,-2.2888,-2.2888,-2.2947,-2.3097,-2.3097,-2.3149,-2.3231,-2.3312,-2.3378,-2.3466,-2.3538,-2.3551,-2.3573,-2.3573,-2.3588,-2.3595,-2.3659,-2.3651,-2.364,-2.3514,-2.3346,-2.3111,-2.2475,-2.1916,-2.1558,-2.1211,-2.099,-2.1309,-2.134,-2.1417,-2.1663,-2.1781,-2.1783,-2.1781,-2.1811,-2.1825,-2.1884,-2.1913,-2.1972,-1.9402,-1.9531,-1.9375,-1.9292,-1.9292,-1.9292,-1.9292,-1.9292,-1.9292,-1.9292,-1.932,-1.9344,-1.9384,-1.9283,-1.8953,-1.9008,-1.9301,-1.9353,-1.9375,-1.9405,-2.0143,-2.0123,-1.9505,-1.9669,-1.9494,-1.9068,-1.8829,-1.8629,-1.8475,-1.8415,-1.8552,-1.8918,-1.87,-1.8744,-1.9067,-1.9199,-1.9013,-1.8613,-1.8165,-1.7622,-1.7072,-1.7387,-1.7338,-1.6859,-1.686,-1.6813,-1.6597,-1.6885,-1.7202,-1.7562,-1.8159,-1.8456,-1.8471,-1.8789,-1.9013,-1.9013,-1.9013,-1.9013,-1.9013,-1.9013,-1.9025,-1.9078,-1.9196,-1.942,-1.9797,-2.0255,-2.0875,-2.1598,-2.2024,-2.2301,-2.2477,-2.2729,-2.2888,-2.2888,-2.2888,-2.2888,-2.2888,-2.2888,-2.2947,-2.2992,-2.2992,-2.2978,-2.3045,-2.3135,-2.3223,-2.3341,-2.3407,-2.3436,-2.3501,-2.3538,-2.3545,-2.3528,-2.331,-2.3092,-2.3062,-2.3007,-2.2622,-2.1987,-2.1606,-2.1377,-2.0931,-2.0931,-2.086,-2.099,-2.1006,-2.1135,-2.1433,-2.151,-2.1541,-2.1661,-2.1781,-2.1796,-2.1857,-2.184,-2.1899,-1.9375,-1.9448,-1.9347,-1.9356,-1.9467,-1.9347,-1.9292,-1.9292,-1.9292,-1.9292,-1.9338,-1.9701,-1.9719,-1.9512,-1.9577,-1.9586,-1.9522,-1.9747,-1.9729,-1.9531,-1.9989,-1.9705,-1.8953,-1.9036,-1.8843,-1.8338,-1.8293,-1.8284,-1.82,-1.7871,-1.7984,-1.8443,-1.811,-1.8042,-1.8385,-1.8432,-1.8206,-1.7711,-1.7398,-1.7054,-1.6773,-1.7327,-1.7411,-1.6898,-1.6684,-1.6567,-1.6617,-1.6565,-1.6728,-1.7127,-1.7885,-1.8242,-1.812,-1.8682,-1.9013,-1.9013,-1.9013,-1.9013,-1.9013,-1.9013,-1.9013,-1.9037,-1.9226,-1.9368,-1.9476,-2.0032,-2.0552,-2.0849,-2.1419,-2.1835,-2.2409,-2.26,-2.2729,-2.2865,-2.2888,-2.2888,-2.2888,-2.2888,-2.2888,-2.2888,-2.291,-2.2888,-2.291,-2.3,-2.3149,-2.3223,-2.3275,-2.3334,-2.3407,-2.3429,-2.3428,-2.3306,-2.2894,-2.2706,-2.2658,-2.2274,-2.168,-2.1135,-2.0837,-2.0571,-2.0144,-2.0357,-2.0579,-2.0562,-2.0613,-2.0778,-2.1103,-2.1214,-2.1402,-2.1661,-2.1783,-2.1783,-2.1796,-2.1796,-2.184,-1.9531,-1.9806,-1.9467,-1.954,-1.9829,-1.9476,-1.9301,-1.9338,-1.932,-1.9311,-1.9412,-1.9797,-1.9893,-1.9893,-2.0292,-2.0223,-1.9902,-1.993,-1.993,-1.9838,-1.9632,-1.9375,-1.9256,-1.8916,-1.876,-1.876,-1.8751,-1.8667,-1.865,-1.8284,-1.788,-1.7611,-1.7574,-1.7372,-1.7162,-1.7141,-1.7012,-1.7028,-1.6982,-1.6932,-1.6888,-1.6938,-1.6786,-1.6372,-1.6252,-1.631,-1.6471,-1.6944,-1.7144,-1.6993,-1.8041,-1.8503,-1.8162,-1.8617,-1.896,-1.8987,-1.9013,-1.9013,-1.9013,-1.9013,-1.9013,-1.9074,-1.9492,-1.9718,-1.932,-1.9939,-2.0225,-1.978,-2.0463,-2.1309,-2.2491,-2.2442,-2.2454,-2.2812,-2.2902,-2.2888,-2.2888,-2.2888,-2.2888,-2.2888,-2.2888,-2.2888,-2.2925,-2.3015,-2.3074,-2.3127,-2.3223,-2.3297,-2.3297,-2.3297,-2.3126,-2.2746,-2.2536,-2.2533,-2.2512,-2.1844,-2.1066,-2.0561,-2.0197,-1.987,-1.9789,-1.9782,-1.9962,-2.012,-2.0206,-2.041,-2.0745,-2.1071,-2.134,-2.157,-2.1693,-2.1723,-2.1783,-2.1781,-2.1825,-1.954,-1.9866,-1.9729,-1.9756,-1.9838,-1.9476,-1.9457,-1.9655,-1.9696,-1.9852,-2.0118,-2.0503,-2.0539,-2.0347,-2.0964,-2.0891,-2.0323,-2.0567,-2.0549,-2.0383,-2.0634,-2.0585,-2.0108,-2.0173,-1.9952,-1.9549,-1.9445,-1.921,-1.8733,-1.8521,-1.8155,-1.7587,-1.7495,-1.7303,-1.6972,-1.6908,-1.6908,-1.6908,-1.6908,-1.6908,-1.6908,-1.6908,-1.6787,-1.6655,-1.6477,-1.6478,-1.6632,-1.6728,-1.6619,-1.6427,-1.7242,-1.7446,-1.7099,-1.7902,-1.8602,-1.896,-1.9013,-1.9013,-1.9013,-1.9013,-1.9013,-1.9037,-1.9209,-1.9395,-1.9318,-1.9753,-2.0094,-2.0069,-2.0298,-2.0991,-2.1635,-2.2031,-2.224,-2.2454,-2.2706,-2.2865,-2.2888,-2.2888,-2.2888,-2.2888,-2.2888,-2.2888,-2.2888,-2.2947,-2.297,-2.297,-2.3015,-2.309,-2.3157,-2.3179,-2.2988,-2.2463,-2.2052,-2.1713,-2.1282,-2.1057,-2.0598,-2.0183,-1.9828,-1.9786,-1.9723,-1.9708,-1.9871,-1.9907,-1.9942,-2.0085,-2.0444,-2.0729,-2.1055,-2.1356,-2.148,-2.1648,-2.1768,-2.1768,-2.1796,-1.9824,-2.0214,-2.0131,-2.0076,-2.0072,-1.9687,-1.9668,-1.9884,-1.9893,-2.0104,-2.0539,-2.0934,-2.0952,-2.0851,-2.1394,-2.1421,-2.0909,-2.1062,-2.097,-2.075,-2.1154,-2.101,-2.0649,-2.0796,-2.0598,-2.0113,-1.9948,-1.9527,-1.8981,-1.8898,-1.854,-1.7935,-1.7779,-1.7495,-1.7156,-1.6972,-1.6908,-1.6908,-1.6908,-1.6908,-1.6908,-1.6908,-1.6908,-1.6862,-1.6726,-1.6713,-1.6934,-1.6826,-1.6558,-1.6336,-1.684,-1.7002,-1.6754,-1.7545,-1.8255,-1.8655,-1.8907,-1.9013,-1.9013,-1.9013,-1.9059,-1.9251,-1.9444,-1.9582,-1.97,-2.0034,-2.0186,-2.0186,-2.0143,-2.0362,-2.0668,-2.1244,-2.1746,-2.1959,-2.237,-2.2684,-2.2669,-2.2783,-2.2888,-2.2888,-2.2888,-2.2888,-2.2888,-2.2888,-2.2888,-2.2888,-2.2888,-2.2947,-2.3015,-2.3023,-2.2732,-2.2064,-2.1648,-2.106,-2.0522,-2.0194,-2.0217,-1.9863,-1.9779,-1.972,-1.9723,-1.9723,-1.9723,-1.9723,-1.978,-1.9907,-2.0102,-2.0395,-2.0729,-2.1039,-2.1277,-2.1449,-2.1587,-2.1738,-2.1783,-2.03,-2.0823,-2.0634,-2.0409,-2.0369,-1.9994,-1.9866,-1.993,-1.9939,-2.0237,-2.0653,-2.0989,-2.1163,-2.12,-2.1513,-2.1659,-2.154,-2.131,-2.1163,-2.1108,-2.0842,-2.0704,-2.064,-2.0695,-2.0616,-2.0493,-2.0118,-1.9701,-1.9384,-1.9283,-1.9026,-1.8678,-1.8293,-1.7917,-1.7504,-1.7165,-1.6945,-1.6945,-1.6945,-1.6908,-1.6908,-1.6908,-1.6908,-1.6908,-1.6872,-1.6948,-1.7173,-1.7335,-1.7045,-1.6545,-1.7068,-1.7423,-1.7168,-1.7683,-1.8093,-1.824,-1.8655,-1.8987,-1.9013,-1.9062,-1.9314,-1.9688,-2.0225,-2.0406,-2.0326,-2.0495,-2.0422,-1.9964,-1.9738,-1.9614,-1.9665,-2.0195,-2.082,-2.1358,-2.1898,-2.2278,-2.2324,-2.2638,-2.2888,-2.2888,-2.2888,-2.2888,-2.2888,-2.2888,-2.2888,-2.2888,-2.2888,-2.2888,-2.2896,-2.286,-2.236,-2.1587,-2.1114,-2.0661,-2.0009,-1.9443,-1.9571,-1.965,-1.9687,-1.969,-1.9723,-1.9723,-1.9723,-1.9723,-1.9723,-1.9833,-1.9927,-2.0206,-2.0378,-2.0663,-2.0926,-2.1214,-2.1418,-2.1572,-2.1723,-1.9069,-1.9834,-1.9931,-2.0161,-2.0442,-2.0058,-2.0031,-2.0287,-2.0296,-2.068,-2.1248,-2.1484,-2.1495,-2.1513,-2.1641,-2.1687,-2.1678,-2.1549,-2.1485,-2.1458,-2.1348,-2.1284,-2.1293,-2.1302,-2.1165,-2.0851,-2.0195,-1.9976,-1.9976,-1.9586,-1.9228,-1.9063,-1.8724,-1.832,-1.7926,-1.7532,-1.7312,-1.7275,-1.7037,-1.6908,-1.6908,-1.6908,-1.6908,-1.6908,-1.6908,-1.6943,-1.7003,-1.7176,-1.6934,-1.6303,-1.6573,-1.6728,-1.6709,-1.7146,-1.7683,-1.812,-1.8655,-1.9013,-1.9062,-1.9312,-1.9591,-1.9868,-2.0286,-2.0358,-2.0105,-2.0113,-1.9912,-1.9441,-1.9334,-1.9302,-1.9354,-1.9539,-2.0067,-2.0673,-2.1602,-2.2147,-2.2194,-2.2592,-2.2865,-2.2888,-2.2888,-2.2888,-2.2888,-2.2888,-2.2888,-2.2888,-2.2888,-2.2888,-2.2844,-2.2562,-2.2019,-2.1233,-2.0828,-2.0357,-1.9694,-1.9339,-1.9413,-1.9541,-1.9596,-1.9669,-1.9687,-1.9723,-1.9723,-1.9723,-1.9723,-1.9744,-1.9854,-1.9945,-2.012,-2.0258,-2.0481,-2.0812,-2.1182,-2.1387,-2.1495,-1.8105,-1.8702,-1.8983,-1.9098,-1.9187,-1.9041,-1.9246,-1.9717,-1.9849,-2.0462,-2.1236,-2.1543,-2.1642,-2.1696,-2.1687,-2.1687,-2.1687,-2.1687,-2.1687,-2.1687,-2.1687,-2.1687,-2.1687,-2.1687,-2.1476,-2.1108,-2.0604,-2.0369,-2.0475,-2.0026,-1.9687,-1.9503,-1.9127,-1.8733,-1.8339,-1.7944,-1.7734,-1.7688,-1.7495,-1.7284,-1.7165,-1.7128,-1.7055,-1.6936,-1.6908,-1.6908,-1.6908,-1.7047,-1.6834,-1.6397,-1.6249,-1.6182,-1.6262,-1.6644,-1.7146,-1.7738,-1.8333,-1.8807,-1.9225,-1.9423,-1.9708,-2.0009,-2.0242,-2.029,-2.0057,-1.9977,-1.9627,-1.9387,-1.9252,-1.9208,-1.917,-1.9289,-1.9577,-1.9926,-2.0858,-2.1589,-2.1874,-2.2333,-2.2601,-2.2646,-2.2775,-2.2865,-2.2888,-2.2888,-2.2888,-2.2888,-2.2888,-2.2888,-2.2757,-2.2374,-2.1743,-2.1125,-2.0578,-2.0036,-1.9418,-1.9265,-1.9288,-1.9395,-1.952,-1.9593,-1.9647,-1.9687,-1.9723,-1.9723,-1.9723,-1.9723,-1.9782,-1.978,-1.9869,-1.9962,-2.012,-2.0413,-2.0763,-2.1006,-2.1167,-1.7342,-1.753,-1.7796,-1.7644,-1.7272,-1.7472,-1.7937,-1.8355,-1.8663,-1.9428,-2.043,-2.0783,-2.1105,-2.132,-2.1087,-2.1087,-2.141,-2.1186,-2.123,-2.132,-2.1419,-2.1463,-2.1642,-2.1687,-2.1495,-2.1236,-2.108,-2.0906,-2.0732,-2.0484,-2.0328,-1.9943,-1.954,-1.9136,-1.8742,-1.831,-1.8081,-1.8054,-1.7981,-1.7761,-1.7422,-1.7403,-1.7266,-1.6927,-1.6908,-1.6908,-1.6908,-1.6844,-1.6745,-1.6434,-1.5965,-1.5803,-1.6038,-1.6222,-1.6624,-1.7222,-1.7772,-1.853,-1.9277,-1.9248,-1.9461,-2.0233,-2.0153,-1.9997,-2.0298,-1.9997,-1.9736,-1.9579,-1.9335,-1.9143,-1.9078,-1.921,-1.9316,-1.9316,-2.0093,-2.0784,-2.1358,-2.1874,-2.21,-2.2217,-2.2532,-2.2783,-2.2669,-2.2715,-2.2783,-2.2806,-2.2843,-2.2888,-2.2736,-2.2301,-2.1699,-2.1061,-2.0413,-1.9808,-1.9186,-1.9172,-1.9195,-1.925,-1.9409,-1.952,-1.9611,-1.9669,-1.9723,-1.9723,-1.9723,-1.9723,-1.9723,-1.9723,-1.9723,-1.9815,-1.996,-2.012,-2.0344,-2.0629,-2.0925,-1.567,-1.6553,-1.6825,-1.7047,-1.7281,-1.7394,-1.7468,-1.7675,-1.7745,-1.8173,-1.8742,-1.887,-1.9055,-1.901,-1.9047,-1.8956,-1.9147,-1.9101,-1.9476,-1.9985,-2.0093,-2.0772,-2.1508,-2.1696,-2.1587,-2.1441,-2.1238,-2.1209,-2.1302,-2.079,-2.0461,-2.0356,-1.9962,-1.9549,-1.9146,-1.8751,-1.8403,-1.8109,-1.7816,-1.7532,-1.7202,-1.7119,-1.7018,-1.6936,-1.6908,-1.6908,-1.6872,-1.6624,-1.6342,-1.603,-1.5352,-1.5283,-1.5824,-1.6057,-1.638,-1.6943,-1.7286,-1.7755,-1.8432,-1.8783,-1.9258,-1.9945,-2.0153,-2.0245,-1.9997,-1.9877,-1.9615,-1.9338,-1.91,-1.9052,-1.9013,-1.9078,-1.9131,-1.9302,-1.9875,-2.0535,-2.1053,-2.1455,-2.1623,-2.1623,-2.1752,-2.186,-2.1969,-2.217,-2.2356,-2.2426,-2.2623,-2.2828,-2.2632,-2.1968,-2.1235,-2.0799,-2.0224,-1.9599,-1.9163,-1.9116,-1.912,-1.9157,-1.9269,-1.9431,-1.9541,-1.965,-1.9705,-1.9723,-1.9723,-1.9723,-1.9723,-1.9723,-1.9723,-1.9723,-1.978,-1.9942,-2.012,-2.0361,-2.068,-1.4653,-1.5249,-1.5509,-1.5712,-1.5929,-1.6072,-1.6243,-1.6485,-1.6677,-1.7057,-1.7528,-1.7795,-1.794,-1.7994,-1.8041,-1.8041,-1.7994,-1.7994,-1.8357,-1.8734,-1.888,-1.9621,-2.0538,-2.0862,-2.0952,-2.1024,-2.1219,-2.1476,-2.1577,-2.1193,-2.0927,-2.068,-2.0332,-1.993,-1.9567,-1.9155,-1.8861,-1.8632,-1.8357,-1.8064,-1.7697,-1.7495,-1.7303,-1.7174,-1.7018,-1.6908,-1.6844,-1.6367,-1.6057,-1.5974,-1.548,-1.5188,-1.5642,-1.581,-1.6097,-1.661,-1.6843,-1.7405,-1.8237,-1.8545,-1.8939,-1.9598,-1.9961,-1.9756,-1.9528,-1.9444,-1.929,-1.9059,-1.9025,-1.9013,-1.9013,-1.9013,-1.904,-1.9158,-1.9591,-2.0055,-2.0497,-2.0795,-2.0993,-2.1091,-2.1248,-2.1393,-2.1393,-2.1694,-2.1827,-2.1945,-2.2287,-2.2463,-2.2449,-2.1578,-2.0924,-2.0608,-2.0083,-1.9449,-1.9159,-1.9116,-1.9116,-1.912,-1.9195,-1.9358,-1.9487,-1.9614,-1.9669,-1.9705,-1.9705,-1.9723,-1.9723,-1.9723,-1.9723,-1.9723,-1.9723,-1.9762,-1.9942,-2.0067,-2.0395,-1.4165,-1.396,-1.4201,-1.4159,-1.4096,-1.4231,-1.4757,-1.5132,-1.5483,-1.6066,-1.6643,-1.7125,-1.7088,-1.7615,-1.7149,-1.7522,-1.7483,-1.7242,-1.7529,-1.7662,-1.7755,-1.8226,-1.8872,-1.9521,-1.9658,-1.9795,-2.0862,-2.1024,-2.0926,-2.1087,-2.1148,-2.0697,-2.0413,-2.0227,-1.977,-1.9427,-1.9292,-1.9118,-1.8999,-1.8742,-1.8385,-1.8054,-1.7752,-1.7413,-1.7064,-1.6917,-1.6734,-1.6309,-1.6034,-1.6518,-1.5728,-1.538,-1.5555,-1.5673,-1.5806,-1.6108,-1.6485,-1.7108,-1.817,-1.7952,-1.837,-1.9164,-1.9105,-1.8972,-1.902,-1.911,-1.9074,-1.9025,-1.9013,-1.9013,-1.9013,-1.9013,-1.9013,-1.9052,-1.9158,-1.9316,-1.9591,-1.9991,-2.0346,-2.0485,-2.0906,-2.1151,-2.1248,-2.1296,-2.1334,-2.1358,-2.1732,-2.2016,-2.2006,-2.1494,-2.1005,-2.0723,-2.0065,-1.93,-1.9174,-1.9116,-1.9116,-1.9101,-1.9157,-1.9288,-1.9446,-1.9556,-1.9614,-1.9669,-1.9687,-1.9705,-1.9723,-1.9723,-1.9723,-1.9723,-1.9723,-1.9723,-1.9744,-1.9833,-2.0065,-1.4262,-1.4214,-1.4274,-1.4268,-1.4226,-1.4274,-1.4358,-1.4541,-1.4597,-1.4864,-1.4927,-1.5067,-1.514,-1.5188,-1.5324,-1.5092,-1.533,-1.5371,-1.5473,-1.6264,-1.6264,-1.6358,-1.6868,-1.7755,-1.8357,-1.8495,-1.8634,-1.8872,-1.901,-1.967,-1.9791,-1.956,-1.9868,-2.0096,-1.9674,-1.933,-1.9097,-1.8916,-1.8871,-1.8685,-1.8402,-1.821,-1.7954,-1.7513,-1.711,-1.6927,-1.6826,-1.6441,-1.6239,-1.6061,-1.544,-1.5173,-1.566,-1.5576,-1.5669,-1.5963,-1.6022,-1.6258,-1.6626,-1.6878,-1.7207,-1.8281,-1.8437,-1.8483,-1.8987,-1.896,-1.8987,-1.8987,-1.9013,-1.9013,-1.9013,-1.9013,-1.9013,-1.9013,-1.9025,-1.9105,-1.9263,-1.9486,-1.972,-1.9862,-1.9952,-2.0042,-2.0194,-2.0597,-2.0734,-2.0833,-2.1115,-2.1503,-2.1411,-2.1239,-2.0892,-2.0543,-2.0075,-1.9343,-1.9046,-1.9026,-1.9116,-1.9116,-1.9139,-1.9195,-1.9339,-1.9483,-1.9541,-1.9614,-1.9654,-1.9672,-1.9669,-1.9705,-1.9705,-1.9705,-1.9723,-1.9723,-1.9723,-1.9723,-1.9744,-1.4298,-1.4298,-1.4298,-1.4298,-1.4298,-1.4298,-1.4298,-1.4298,-1.4298,-1.4298,-1.4298,-1.4298,-1.4298,-1.4298,-1.4298,-1.4346,-1.4298,-1.4298,-1.458,-1.5045,-1.5092,-1.5092,-1.514,-1.5886,-1.6492,-1.7095,-1.7848,-1.7987,-1.818,-1.8488,-1.8967,-1.9048,-1.8966,-1.9127,-1.938,-1.8836,-1.8554,-1.8728,-1.8804,-1.8725,-1.8552,-1.841,-1.8073,-1.755,-1.7138,-1.6908,-1.6872,-1.6498,-1.6315,-1.6077,-1.5542,-1.5293,-1.5762,-1.5799,-1.5817,-1.5723,-1.5883,-1.5864,-1.6016,-1.6179,-1.6624,-1.7501,-1.7655,-1.8011,-1.8402,-1.8563,-1.8735,-1.8934,-1.9013,-1.9013,-1.9013,-1.9013,-1.9013,-1.9013,-1.9013,-1.9025,-1.9117,-1.9223,-1.9368,-1.946,-1.9539,-1.963,-1.9785,-2.0067,-2.0156,-2.0283,-2.066,-2.1004,-2.0979,-2.0785,-2.0443,-2.0119,-1.9858,-1.9453,-1.9022,-1.8931,-1.9097,-1.9116,-1.9116,-1.9139,-1.9209,-1.9339,-1.945,-1.9505,-1.956,-1.9596,-1.9596,-1.9632,-1.9672,-1.969,-1.9708,-1.9708,-1.9723,-1.9723,-1.9726,-1.4238,-1.4238,-1.4238,-1.4238,-1.4244,-1.428,-1.4298,-1.4298,-1.4298,-1.4262,-1.4238,-1.4238,-1.4171,-1.4171,-1.4208,-1.4244,-1.4292,-1.4298,-1.4442,-1.4442,-1.4484,-1.449,-1.4532,-1.4669,-1.5092,-1.5974,-1.6673,-1.7149,-1.7242,-1.76,-1.7826,-1.8444,-1.7747,-1.7762,-1.8591,-1.8028,-1.7577,-1.8252,-1.8483,-1.8731,-1.8845,-1.874,-1.8346,-1.7734,-1.7275,-1.7,-1.689,-1.6633,-1.6398,-1.6352,-1.6065,-1.5909,-1.5945,-1.6046,-1.6052,-1.5442,-1.5728,-1.574,-1.5655,-1.5816,-1.6161,-1.6786,-1.6933,-1.7313,-1.7754,-1.7984,-1.8267,-1.8655,-1.8881,-1.9013,-1.9013,-1.9013,-1.9013,-1.9013,-1.9013,-1.9013,-1.9025,-1.9117,-1.9237,-1.9342,-1.9368,-1.942,-1.9525,-1.9694,-1.9694,-1.9785,-2.0182,-2.0446,-2.044,-2.0413,-2.0144,-1.984,-1.9588,-1.9282,-1.8857,-1.8707,-1.8893,-1.9064,-1.9064,-1.9082,-1.9101,-1.9195,-1.9321,-1.9376,-1.9446,-1.9483,-1.9538,-1.9578,-1.9632,-1.9672,-1.969,-1.9708,-1.9723,-1.9723,-1.9726,-1.3972,-1.3972,-1.3972,-1.3972,-1.4008,-1.4189,-1.4274,-1.4298,-1.4268,-1.4165,-1.3984,-1.3966,-1.3851,-1.3779,-1.39,-1.4081,-1.4256,-1.4298,-1.4298,-1.4298,-1.4298,-1.4298,-1.4298,-1.4298,-1.449,-1.4532,-1.5045,-1.5235,-1.5371,-1.5744,-1.6355,-1.6299,-1.6439,-1.6862,-1.6916,-1.6482,-1.6642,-1.7399,-1.7602,-1.7934,-1.8487,-1.8752,-1.8634,-1.7971,-1.7623,-1.7275,-1.6991,-1.6862,-1.6807,-1.6773,-1.6743,-1.6688,-1.6587,-1.6416,-1.6111,-1.5818,-1.5785,-1.5645,-1.5229,-1.5137,-1.5517,-1.5931,-1.6208,-1.6549,-1.7028,-1.7285,-1.7617,-1.817,-1.8652,-1.8958,-1.9025,-1.8967,-1.8999,-1.8999,-1.9013,-1.9013,-1.9013,-1.9052,-1.9105,-1.9223,-1.9249,-1.9302,-1.938,-1.9447,-1.9499,-1.9565,-1.9759,-1.9965,-1.9965,-2.0051,-2.0035,-1.9704,-1.9342,-1.9023,-1.8666,-1.8584,-1.8616,-1.8931,-1.9007,-1.9045,-1.9064,-1.9101,-1.9176,-1.9265,-1.9321,-1.9391,-1.9465,-1.952,-1.9541,-1.9578,-1.965,-1.9705,-1.9705,-1.9687,-1.969,-1.3701,-1.3707,-1.3707,-1.3785,-1.3894,-1.3882,-1.3972,-1.4063,-1.3948,-1.3821,-1.3731,-1.3707,-1.3725,-1.3743,-1.3833,-1.4051,-1.4238,-1.4298,-1.4298,-1.4298,-1.4298,-1.4298,-1.4298,-1.4298,-1.4298,-1.4346,-1.4346,-1.4298,-1.4346,-1.4765,-1.524,-1.5485,-1.5384,-1.542,-1.5893,-1.5452,-1.5624,-1.6165,-1.6486,-1.6944,-1.7836,-1.8325,-1.8452,-1.8268,-1.7953,-1.7596,-1.7293,-1.7211,-1.7101,-1.6945,-1.6899,-1.6908,-1.6853,-1.6716,-1.6441,-1.6074,-1.5882,-1.5586,-1.5016,-1.4913,-1.501,-1.5245,-1.5459,-1.5855,-1.6332,-1.6662,-1.695,-1.7551,-1.8086,-1.8462,-1.8503,-1.8721,-1.8904,-1.8994,-1.9013,-1.9013,-1.9013,-1.9013,-1.9052,-1.9117,-1.9105,-1.9158,-1.9275,-1.9328,-1.9342,-1.9394,-1.9447,-1.9512,-1.9565,-1.9698,-1.9836,-1.9298,-1.8891,-1.8551,-1.8268,-1.821,-1.8305,-1.863,-1.8893,-1.8917,-1.9026,-1.9064,-1.9101,-1.9176,-1.9246,-1.9284,-1.9339,-1.9395,-1.945,-1.9487,-1.9523,-1.956,-1.9629,-1.9665,-1.9672,-1.3435,-1.3435,-1.3435,-1.3562,-1.3713,-1.3652,-1.3725,-1.3839,-1.3713,-1.3598,-1.3507,-1.3471,-1.355,-1.3725,-1.387,-1.4026,-1.4226,-1.4256,-1.4298,-1.4298,-1.4298,-1.4298,-1.4298,-1.4298,-1.4298,-1.4298,-1.4298,-1.4298,-1.4298,-1.4394,-1.4787,-1.4829,-1.4059,-1.4122,-1.5024,-1.4405,-1.4501,-1.4887,-1.5289,-1.5827,-1.6749,-1.763,-1.813,-1.8175,-1.8129,-1.7935,-1.7513,-1.744,-1.7248,-1.7018,-1.6908,-1.6908,-1.6908,-1.6908,-1.6762,-1.6441,-1.6037,-1.5643,-1.5289,-1.5075,-1.5011,-1.499,-1.5023,-1.538,-1.5681,-1.6046,-1.6389,-1.6913,-1.7481,-1.7913,-1.8157,-1.8449,-1.874,-1.897,-1.9013,-1.9013,-1.9013,-1.9013,-1.9013,-1.9025,-1.9013,-1.9052,-1.9158,-1.9158,-1.9184,-1.9249,-1.9289,-1.938,-1.942,-1.9525,-1.9471,-1.8841,-1.8364,-1.7983,-1.7775,-1.772,-1.7908,-1.8226,-1.8533,-1.8707,-1.8874,-1.9026,-1.9064,-1.912,-1.912,-1.9191,-1.9232,-1.9288,-1.9358,-1.9409,-1.9409,-1.9465,-1.9574,-1.9629,-1.965,-1.3169,-1.3125,-1.3125,-1.3188,-1.3296,-1.3606,-1.3851,-1.3863,-1.3815,-1.3719,-1.3429,-1.3227,-1.3194,-1.335,-1.3749,-1.3912,-1.402,-1.4201,-1.4298,-1.4298,-1.4298,-1.4298,-1.4298,-1.4298,-1.4298,-1.4298,-1.4298,-1.4298,-1.4298,-1.4298,-1.4219,-1.4166,-1.4037,-1.3817,-1.3787,-1.3555,-1.3547,-1.4059,-1.4223,-1.4803,-1.5771,-1.6716,-1.7143,-1.7504,-1.7854,-1.8076,-1.7661,-1.7559,-1.7358,-1.6972,-1.6908,-1.6908,-1.6908,-1.6908,-1.6899,-1.6743,-1.6468,-1.6065,-1.5698,-1.55,-1.5348,-1.5158,-1.5176,-1.5091,-1.528,-1.5693,-1.6099,-1.62,-1.6857,-1.74,-1.775,-1.8114,-1.846,-1.8718,-1.8907,-1.8934,-1.896,-1.9013,-1.9013,-1.9013,-1.9013,-1.9013,-1.9052,-1.9052,-1.9025,-1.9078,-1.9143,-1.9235,-1.9253,-1.9308,-1.9105,-1.8509,-1.7964,-1.758,-1.7299,-1.7246,-1.7482,-1.7828,-1.8147,-1.8456,-1.8707,-1.8912,-1.9064,-1.9101,-1.9116,-1.9101,-1.9157,-1.9213,-1.9284,-1.9302,-1.9302,-1.9428,-1.9589,-1.9593,-1.9578,-1.2886,-1.288,-1.2886,-1.2982,-1.3145,-1.3336,-1.3465,-1.3459,-1.3459,-1.3308,-1.3073,-1.2952,-1.2964,-1.3155,-1.367,-1.39,-1.3966,-1.4177,-1.4292,-1.4298,-1.4298,-1.4298,-1.4298,-1.4298,-1.4298,-1.4298,-1.4298,-1.4298,-1.4298,-1.4274,-1.4159,-1.3924,-1.3755,-1.3495,-1.3188,-1.3089,-1.323,-1.3572,-1.3952,-1.4365,-1.4922,-1.5696,-1.6578,-1.7199,-1.7718,-1.7831,-1.7814,-1.7844,-1.7513,-1.7082,-1.6908,-1.6908,-1.6908,-1.6908,-1.6899,-1.6855,-1.6727,-1.6459,-1.6092,-1.5845,-1.5634,-1.5464,-1.5311,-1.5124,-1.5158,-1.5482,-1.5841,-1.5851,-1.6397,-1.6829,-1.7144,-1.7616,-1.7835,-1.8125,-1.8521,-1.8629,-1.8709,-1.896,-1.9013,-1.9013,-1.9013,-1.9013,-1.9013,-1.9013,-1.9013,-1.9052,-1.9078,-1.9143,-1.9078,-1.8987,-1.8659,-1.8187,-1.7672,-1.7219,-1.695,-1.6786,-1.706,-1.74,-1.7821,-1.8141,-1.8533,-1.8779,-1.895,-1.9082,-1.9116,-1.9101,-1.9101,-1.9139,-1.9191,-1.9209,-1.9195,-1.9321,-1.9446,-1.9446,-1.945,-1.2705,-1.2705,-1.2705,-1.2825,-1.3025,-1.3091,-1.3095,-1.3089,-1.3101,-1.2975,-1.2862,-1.2837,-1.2952,-1.3161,-1.3634,-1.39,-1.3924,-1.4171,-1.4274,-1.4298,-1.4298,-1.4298,-1.4298,-1.4298,-1.4298,-1.4298,-1.4298,-1.4298,-1.4298,-1.4274,-1.4165,-1.3912,-1.3773,-1.3507,-1.3326,-1.3326,-1.3383,-1.3351,-1.3724,-1.3894,-1.4038,-1.4748,-1.567,-1.647,-1.7187,-1.7607,-1.7683,-1.7952,-1.7606,-1.7248,-1.6945,-1.6954,-1.7064,-1.6982,-1.6917,-1.6908,-1.6853,-1.6752,-1.6468,-1.6239,-1.5982,-1.5753,-1.5537,-1.5348,-1.5423,-1.5582,-1.5572,-1.5557,-1.5913,-1.6096,-1.6253,-1.6969,-1.7216,-1.7523,-1.7957,-1.8077,-1.824,-1.8494,-1.8827,-1.9013,-1.9013,-1.9013,-1.9013,-1.9013,-1.9013,-1.9013,-1.9025,-1.9052,-1.8988,-1.8848,-1.8448,-1.8043,-1.7706,-1.7192,-1.6729,-1.6599,-1.6791,-1.6976,-1.7413,-1.7801,-1.8167,-1.8572,-1.886,-1.8969,-1.9064,-1.9101,-1.9101,-1.9101,-1.9116,-1.912,-1.9157,-1.9209,-1.9265,-1.9313,-1.9398,-1.2705,-1.2705,-1.2662,-1.2674,-1.2765,-1.3019,-1.3077,-1.3047,-1.3071,-1.3097,-1.3012,-1.3023,-1.3037,-1.323,-1.3574,-1.3857,-1.3888,-1.4171,-1.425,-1.428,-1.4298,-1.4298,-1.4298,-1.4298,-1.4298,-1.4298,-1.4298,-1.4298,-1.4268,-1.4183,-1.4087,-1.393,-1.3839,-1.3694,-1.3604,-1.3604,-1.3622,-1.3477,-1.3513,-1.336,-1.3424,-1.3825,-1.4371,-1.4991,-1.6103,-1.6949,-1.6695,-1.7247,-1.7565,-1.7225,-1.6981,-1.7084,-1.724,-1.7128,-1.7018,-1.6917,-1.6908,-1.6853,-1.6725,-1.6679,-1.6578,-1.6266,-1.5927,-1.5684,-1.5725,-1.5822,-1.5728,-1.5517,-1.5804,-1.5792,-1.593,-1.6163,-1.6576,-1.6772,-1.7157,-1.7518,-1.771,-1.7984,-1.8321,-1.8827,-1.896,-1.8881,-1.9013,-1.9013,-1.9013,-1.9013,-1.9013,-1.9052,-1.8992,-1.8829,-1.8431,-1.8056,-1.7799,-1.7291,-1.6632,-1.6529,-1.6577,-1.6757,-1.7081,-1.7421,-1.7767,-1.8187,-1.8745,-1.8898,-1.9007,-1.9045,-1.9116,-1.9116,-1.9116,-1.9116,-1.9192,-1.9448,-1.9564,-1.965,-1.9658,-1.0966,-1.0966,-1.1009,-1.166,-1.2723,-1.2957,-1.2981,-1.2873,-1.3043,-1.3019,-1.2874,-1.2868,-1.2868,-1.3025,-1.3387,-1.3568,-1.3538,-1.4069,-1.4141,-1.4159,-1.4189,-1.428,-1.4298,-1.4286,-1.4298,-1.4298,-1.4298,-1.4298,-1.4286,-1.4081,-1.3948,-1.3863,-1.3924,-1.3731,-1.3682,-1.3785,-1.3815,-1.3725,-1.3489,-1.3308,-1.3117,-1.3114,-1.3578,-1.449,-1.4782,-1.5594,-1.5811,-1.6085,-1.6491,-1.673,-1.67,-1.6943,-1.7288,-1.7223,-1.7093,-1.6954,-1.6908,-1.6908,-1.6908,-1.689,-1.6725,-1.6404,-1.6156,-1.6074,-1.6074,-1.6116,-1.6094,-1.5965,-1.5802,-1.5806,-1.5546,-1.5772,-1.6056,-1.6075,-1.6322,-1.6793,-1.7129,-1.7341,-1.7793,-1.824,-1.8494,-1.8548,-1.8774,-1.9013,-1.9013,-1.9013,-1.9013,-1.9013,-1.8953,-1.8845,-1.8463,-1.809,-1.7837,-1.7506,-1.686,-1.6571,-1.6368,-1.6581,-1.6829,-1.7172,-1.7587,-1.8127,-1.8611,-1.8765,-1.9013,-1.9185,-1.9243,-1.9155,-1.9159,-1.9261,-1.958,-1.9963,-2.0007,-2.0026,-2.006,-0.984,-0.9879,-0.9879,-1.0616,-1.1817,-1.2072,-1.2101,-1.2027,-1.2362,-1.2681,-1.2711,-1.2777,-1.2825,-1.297,-1.3284,-1.3525,-1.3528,-1.3812,-1.4009,-1.4058,-1.4046,-1.4184,-1.422,-1.4159,-1.4087,-1.4214,-1.4208,-1.4183,-1.428,-1.3924,-1.3942,-1.402,-1.4008,-1.3876,-1.3767,-1.3876,-1.3984,-1.3857,-1.3646,-1.3387,-1.3121,-1.2899,-1.2954,-1.3824,-1.4203,-1.4538,-1.494,-1.5262,-1.5708,-1.5949,-1.6125,-1.6422,-1.6846,-1.7081,-1.6991,-1.6915,-1.6908,-1.6908,-1.6908,-1.6872,-1.678,-1.6569,-1.6523,-1.6496,-1.6462,-1.6453,-1.6422,-1.623,-1.609,-1.5799,-1.5368,-1.5481,-1.5478,-1.5459,-1.573,-1.6104,-1.6379,-1.6652,-1.7157,-1.7639,-1.7831,-1.8038,-1.8509,-1.8762,-1.8907,-1.8934,-1.9013,-1.9013,-1.8989,-1.8833,-1.8556,-1.8197,-1.786,-1.752,-1.7176,-1.7028,-1.6878,-1.6705,-1.6958,-1.7113,-1.7525,-1.8065,-1.8609,-1.8976,-1.9223,-1.9392,-1.9607,-1.98,-1.9676,-1.9493,-1.9928,-2.0422,-2.0515,-2.0531,-2.0633,-0.9618,-0.9879,-0.9788,-0.9836,-0.9923,-1.0014,-1.0168,-1.049,-1.1032,-1.1688,-1.2295,-1.2574,-1.2724,-1.2795,-1.2861,-1.3091,-1.329,-1.3444,-1.3684,-1.3838,-1.372,-1.3844,-1.3909,-1.3866,-1.3772,-1.4112,-1.407,-1.4028,-1.425,-1.4082,-1.4124,-1.4226,-1.4201,-1.4123,-1.3942,-1.4147,-1.4141,-1.3912,-1.367,-1.3393,-1.3125,-1.2886,-1.2845,-1.3075,-1.3542,-1.3901,-1.4001,-1.4423,-1.4838,-1.5257,-1.5168,-1.5528,-1.6209,-1.626,-1.6344,-1.6675,-1.6804,-1.6864,-1.6908,-1.6908,-1.6862,-1.6817,-1.6762,-1.6789,-1.6844,-1.6835,-1.6725,-1.6477,-1.6211,-1.5868,-1.5486,-1.5173,-1.5004,-1.4995,-1.5234,-1.542,-1.57,-1.5902,-1.6407,-1.6888,-1.7157,-1.7424,-1.8038,-1.8483,-1.8709,-1.8842,-1.896,-1.9013,-1.8975,-1.8905,-1.8688,-1.8435,-1.8087,-1.7847,-1.7593,-1.7545,-1.7386,-1.7137,-1.7101,-1.7293,-1.7492,-1.7909,-1.8499,-1.9061,-1.941,-1.9573,-2.0097,-2.0604,-2.0512,-2.0436,-2.0538,-2.0857,-2.0944,-2.1096,-2.1227,-0.7526,-0.7566,-0.7566,-0.7566,-0.7786,-0.9139,-0.9756,-0.9798,-0.9907,-1.0086,-1.0313,-1.0484,-1.0503,-1.0754,-1.1483,-1.1885,-1.1908,-1.3124,-1.345,-1.3008,-1.3084,-1.3362,-1.3461,-1.3421,-1.3467,-1.3664,-1.3676,-1.3784,-1.4022,-1.3909,-1.4052,-1.4196,-1.4292,-1.4256,-1.4195,-1.4268,-1.4226,-1.4099,-1.3785,-1.3459,-1.3338,-1.2958,-1.2705,-1.2705,-1.3082,-1.3189,-1.3172,-1.3612,-1.3946,-1.4409,-1.4337,-1.4761,-1.5357,-1.5442,-1.5958,-1.6183,-1.628,-1.676,-1.6874,-1.6908,-1.6908,-1.6908,-1.6908,-1.6908,-1.6908,-1.6908,-1.6807,-1.6597,-1.623,-1.5854,-1.5583,-1.4967,-1.4715,-1.468,-1.4823,-1.4893,-1.5089,-1.5245,-1.5565,-1.6075,-1.6397,-1.6838,-1.7368,-1.7847,-1.812,-1.8402,-1.8509,-1.8827,-1.8895,-1.896,-1.8881,-1.8724,-1.8459,-1.8207,-1.8027,-1.7943,-1.7775,-1.7508,-1.7421,-1.7516,-1.775,-1.7958,-1.8329,-1.8923,-1.9337,-1.9765,-2.0438,-2.104,-2.1391,-2.1511,-2.1452,-2.1627,-2.191,-2.1939,-2.1917,-0.6343,-0.6428,-0.6428,-0.6428,-0.6602,-0.7918,-0.8659,-0.889,-0.8893,-0.8937,-0.9196,-0.9323,-0.9367,-0.9565,-1.0018,-1.0464,-1.0387,-1.1182,-1.1935,-1.1587,-1.2046,-1.236,-1.2587,-1.2851,-1.3175,-1.3326,-1.34,-1.3467,-1.3727,-1.3618,-1.3737,-1.4076,-1.425,-1.4286,-1.4286,-1.4292,-1.4232,-1.4051,-1.3719,-1.3453,-1.3254,-1.2976,-1.2705,-1.2705,-1.2741,-1.2729,-1.2699,-1.2796,-1.2952,-1.348,-1.374,-1.3967,-1.4343,-1.4676,-1.5127,-1.5222,-1.5745,-1.6324,-1.6656,-1.6874,-1.6908,-1.6908,-1.6908,-1.6908,-1.6908,-1.6908,-1.6908,-1.6688,-1.6211,-1.5909,-1.5597,-1.4955,-1.4689,-1.4664,-1.4593,-1.4693,-1.4695,-1.4882,-1.499,-1.5468,-1.5729,-1.6197,-1.668,-1.7073,-1.7462,-1.7765,-1.8038,-1.8375,-1.8709,-1.8907,-1.8987,-1.8893,-1.877,-1.8616,-1.8447,-1.8363,-1.8148,-1.7859,-1.7848,-1.7873,-1.7934,-1.8153,-1.8434,-1.8801,-1.9435,-2.0107,-2.0867,-2.1427,-2.1755,-2.1982,-2.2069,-2.2359,-2.2815,-2.2707,-2.2446,-0.6213,-0.634,-0.6387,-0.6343,-0.6387,-0.6517,-0.7007,-0.7724,-0.7911,-0.8366,-0.8965,-0.9042,-0.8831,-0.8964,-0.9326,-0.9423,-0.9517,-0.9489,-0.9813,-1.0104,-1.0575,-1.1066,-1.1549,-1.1891,-1.2276,-1.2855,-1.3104,-1.2929,-1.3426,-1.3488,-1.365,-1.3871,-1.4112,-1.4208,-1.4256,-1.428,-1.4171,-1.3954,-1.3694,-1.3417,-1.3131,-1.2934,-1.2771,-1.2741,-1.2747,-1.2747,-1.2729,-1.2729,-1.2681,-1.2771,-1.2783,-1.3,-1.3207,-1.3343,-1.3641,-1.4225,-1.5108,-1.5816,-1.6473,-1.6726,-1.683,-1.683,-1.6864,-1.6908,-1.6881,-1.6853,-1.6807,-1.6661,-1.6285,-1.6001,-1.5661,-1.5267,-1.4882,-1.4753,-1.4607,-1.4591,-1.4545,-1.4616,-1.4695,-1.4893,-1.5049,-1.542,-1.5989,-1.6418,-1.6708,-1.6877,-1.7146,-1.7562,-1.8011,-1.8827,-1.8907,-1.9013,-1.8953,-1.8977,-1.8869,-1.8674,-1.8592,-1.833,-1.828,-1.8306,-1.8344,-1.8407,-1.8669,-1.9095,-1.975,-2.0352,-2.0809,-2.143,-2.208,-2.2249,-2.2259,-2.2525,-2.282,-2.2888,-2.2751,-0.5863,-0.5908,-0.5908,-0.5908,-0.5908,-0.5908,-0.6132,-0.643,-0.6439,-0.6551,-0.6741,-0.678,-0.7047,-0.6745,-0.7446,-0.7779,-0.8135,-0.851,-0.8943,-0.9179,-0.9333,-0.9681,-0.996,-1.0303,-1.0901,-1.1573,-1.1948,-1.2362,-1.3071,-1.3346,-1.3491,-1.363,-1.3877,-1.3973,-1.4112,-1.4202,-1.4076,-1.3906,-1.3646,-1.3429,-1.3161,-1.2975,-1.288,-1.2801,-1.2868,-1.2843,-1.2741,-1.2681,-1.256,-1.2258,-1.2367,-1.2385,-1.1751,-1.2483,-1.3236,-1.4552,-1.5152,-1.5621,-1.6263,-1.6577,-1.6716,-1.6751,-1.6795,-1.6908,-1.6844,-1.6752,-1.6697,-1.6597,-1.6184,-1.5762,-1.5652,-1.5386,-1.5029,-1.479,-1.4698,-1.4717,-1.4662,-1.4618,-1.466,-1.4738,-1.4857,-1.4961,-1.5478,-1.5633,-1.5902,-1.6017,-1.6293,-1.6726,-1.7368,-1.8201,-1.8735,-1.8827,-1.9013,-1.9013,-1.9013,-1.8893,-1.8881,-1.8821,-1.871,-1.865,-1.8714,-1.8803,-1.8948,-1.9244,-1.9683,-2.0067,-2.0432,-2.1077,-2.1636,-2.2081,-2.2179,-2.2512,-2.2789,-2.2878,-2.2917,-0.5688,-0.5688,-0.5688,-0.5757,-0.5787,-0.5752,-0.5798,-0.5869,-0.5737,-0.5688,-0.5688,-0.578,-0.5688,-0.5863,-0.6355,-0.6621,-0.6631,-0.7083,-0.7444,-0.7524,-0.8165,-0.8439,-0.8608,-0.9076,-1.0149,-1.0759,-1.1321,-1.194,-1.27,-1.3147,-1.334,-1.3346,-1.3642,-1.3792,-1.3931,-1.4052,-1.4058,-1.3865,-1.3676,-1.3513,-1.335,-1.3095,-1.2867,-1.2892,-1.2988,-1.2843,-1.2717,-1.265,-1.2361,-1.2077,-1.2181,-1.1868,-1.1361,-1.1885,-1.2494,-1.3608,-1.4286,-1.4867,-1.5586,-1.6219,-1.6429,-1.6612,-1.6682,-1.6795,-1.6819,-1.678,-1.6798,-1.6734,-1.6001,-1.545,-1.5496,-1.5469,-1.5129,-1.4799,-1.4845,-1.4891,-1.4808,-1.4677,-1.4708,-1.4756,-1.4773,-1.4792,-1.4922,-1.502,-1.5205,-1.5517,-1.5874,-1.6312,-1.6978,-1.7781,-1.8267,-1.8467,-1.8801,-1.9013,-1.9013,-1.9013,-1.8977,-1.8953,-1.8929,-1.8917,-1.9013,-1.9013,-1.9004,-1.9188,-1.9448,-1.9798,-2.0093,-2.0485,-2.0981,-2.1467,-2.2121,-2.26,-2.288,-2.2974,-2.2985,-0.5669,-0.5688,-0.5691,-0.5787,-0.5866,-0.5729,-0.579,-0.5874,-0.5731,-0.5688,-0.5688,-0.5688,-0.5688,-0.5733,-0.5911,-0.5911,-0.5955,-0.6153,-0.6346,-0.5805,-0.6827,-0.7353,-0.7831,-0.8508,-0.9139,-1.0272,-1.0925,-1.0877,-1.2111,-1.2554,-1.2705,-1.2953,-1.3346,-1.3545,-1.3684,-1.3883,-1.3915,-1.3879,-1.3691,-1.3519,-1.3501,-1.3212,-1.285,-1.2976,-1.2904,-1.2741,-1.265,-1.2499,-1.23,-1.2198,-1.2012,-1.176,-1.154,-1.135,-1.1795,-1.2342,-1.3244,-1.397,-1.4796,-1.5542,-1.5895,-1.6175,-1.6499,-1.6508,-1.6472,-1.6595,-1.6654,-1.6697,-1.6092,-1.5835,-1.5845,-1.5735,-1.545,-1.5175,-1.5093,-1.4937,-1.4689,-1.4653,-1.4708,-1.4698,-1.4685,-1.4684,-1.4695,-1.4852,-1.4961,-1.5205,-1.5459,-1.5874,-1.6397,-1.7174,-1.7727,-1.805,-1.8456,-1.8762,-1.9013,-1.9013,-1.9013,-1.9013,-1.9013,-1.9013,-1.9013,-1.9013,-1.9013,-1.9146,-1.9277,-1.9448,-1.9747,-2.0042,-2.0488,-2.1233,-2.1901,-2.2649,-2.2923,-2.2871,-2.3146,-0.5567,-0.5686,-0.5688,-0.5707,-0.5726,-0.5699,-0.5704,-0.5773,-0.5704,-0.5688,-0.5688,-0.5688,-0.5688,-0.5688,-0.5688,-0.5688,-0.5688,-0.5699,-0.5847,-0.5896,-0.6354,-0.6629,-0.6703,-0.7252,-0.7906,-0.8421,-0.8962,-0.9645,-1.0609,-1.1258,-1.1717,-1.1853,-1.2549,-1.3292,-1.3355,-1.3601,-1.3766,-1.3755,-1.361,-1.3402,-1.3264,-1.3324,-1.3203,-1.3049,-1.2831,-1.2831,-1.2705,-1.2463,-1.2228,-1.2041,-1.1934,-1.1742,-1.1546,-1.1268,-1.154,-1.215,-1.2556,-1.3171,-1.3854,-1.4609,-1.5002,-1.5144,-1.5357,-1.5692,-1.5974,-1.6255,-1.6428,-1.6446,-1.6431,-1.6257,-1.6129,-1.5973,-1.5771,-1.5542,-1.5294,-1.4937,-1.4588,-1.4625,-1.4659,-1.4662,-1.4618,-1.4593,-1.4595,-1.4666,-1.4754,-1.4902,-1.5029,-1.5313,-1.5604,-1.6247,-1.709,-1.7518,-1.8038,-1.8402,-1.8735,-1.9013,-1.9013,-1.9013,-1.9013,-1.9013,-1.9025,-1.9013,-1.9013,-1.9013,-1.9093,-1.9314,-1.9417,-1.9393,-1.9919,-2.0846,-2.1407,-2.2032,-2.2255,-2.2251,-2.2856,-0.5529,-0.561,-0.5667,-0.5688,-0.5688,-0.5688,-0.5688,-0.5688,-0.5688,-0.5688,-0.5688,-0.5688,-0.5688,-0.5688,-0.5688,-0.5694,-0.5694,-0.5688,-0.5825,-0.5926,-0.6037,-0.6194,-0.6255,-0.6394,-0.722,-0.7816,-0.851,-0.9239,-0.9474,-1.06,-1.1302,-1.1284,-1.2228,-1.2947,-1.2982,-1.3284,-1.3429,-1.3362,-1.3371,-1.3219,-1.3001,-1.3045,-1.3119,-1.2885,-1.288,-1.2856,-1.2705,-1.2469,-1.2276,-1.2083,-1.1964,-1.1748,-1.1543,-1.1363,-1.1427,-1.1745,-1.2107,-1.2482,-1.3098,-1.36,-1.4034,-1.4178,-1.4322,-1.4716,-1.4851,-1.5146,-1.5861,-1.5947,-1.6321,-1.6206,-1.6303,-1.6211,-1.5863,-1.5579,-1.5331,-1.5029,-1.4781,-1.4689,-1.4799,-1.4891,-1.4744,-1.4524,-1.4536,-1.4556,-1.4645,-1.4745,-1.4872,-1.4961,-1.5196,-1.543,-1.6257,-1.7015,-1.7523,-1.7991,-1.8375,-1.8735,-1.9013,-1.9013,-1.9008,-1.9086,-1.911,-1.9049,-1.9013,-1.9086,-1.9146,-1.9221,-1.9247,-1.9335,-1.9709,-2.0634,-2.0997,-2.1313,-2.1459,-2.1687,-2.2215,-0.5448,-0.5499,-0.5632,-0.5688,-0.5688,-0.5688,-0.5688,-0.5688,-0.5688,-0.5688,-0.5688,-0.5688,-0.5688,-0.5688,-0.5691,-0.5699,-0.5715,-0.5739,-0.5807,-0.5975,-0.6048,-0.6187,-0.6293,-0.6415,-0.6939,-0.7542,-0.8231,-0.8499,-0.8657,-0.9663,-1.0333,-1.0824,-1.1657,-1.2566,-1.2616,-1.2781,-1.2899,-1.2939,-1.2974,-1.2958,-1.2868,-1.2774,-1.2897,-1.2928,-1.2856,-1.2717,-1.262,-1.2487,-1.2337,-1.2204,-1.2018,-1.1814,-1.1627,-1.1489,-1.1317,-1.1459,-1.17,-1.1966,-1.2335,-1.2879,-1.3127,-1.331,-1.3491,-1.3665,-1.3831,-1.4255,-1.4969,-1.5407,-1.5754,-1.6165,-1.6263,-1.6349,-1.5982,-1.5638,-1.5359,-1.5084,-1.49,-1.4781,-1.4937,-1.5074,-1.4891,-1.4613,-1.468,-1.4662,-1.4611,-1.4712,-1.4743,-1.4813,-1.4941,-1.5126,-1.5595,-1.6343,-1.6955,-1.7437,-1.7904,-1.8495,-1.8931,-1.9018,-1.9012,-1.9123,-1.9242,-1.9338,-1.9324,-1.9227,-1.9287,-1.9492,-1.9567,-1.9643,-2.0101,-2.0527,-2.048,-2.0698,-2.1002,-2.1222,-2.1576,-0.5233,-0.5423,-0.5597,-0.5688,-0.5688,-0.5688,-0.5688,-0.5688,-0.5688,-0.5688,-0.5688,-0.5688,-0.5688,-0.5688,-0.5688,-0.5712,-0.5814,-0.5841,-0.6015,-0.6184,-0.6121,-0.6233,-0.6333,-0.6366,-0.647,-0.6863,-0.7137,-0.6918,-0.7586,-0.8167,-0.8478,-0.8726,-1.0596,-1.1306,-1.1372,-1.1806,-1.2538,-1.2496,-1.2621,-1.2691,-1.2941,-1.2924,-1.2885,-1.285,-1.2735,-1.2705,-1.2632,-1.2397,-1.2349,-1.224,-1.2067,-1.1962,-1.1754,-1.1603,-1.1387,-1.1196,-1.1409,-1.1446,-1.1781,-1.2181,-1.2395,-1.21,-1.2358,-1.2981,-1.312,-1.3302,-1.3875,-1.4243,-1.4736,-1.5566,-1.5841,-1.6193,-1.6059,-1.5689,-1.5399,-1.5065,-1.4808,-1.4937,-1.5111,-1.5157,-1.5102,-1.512,-1.5313,-1.5139,-1.4808,-1.4842,-1.4796,-1.4868,-1.4978,-1.4992,-1.5072,-1.5742,-1.6495,-1.6869,-1.7322,-1.8329,-1.8808,-1.8911,-1.9199,-1.9562,-1.9768,-1.9756,-1.9732,-1.9684,-1.9829,-2.0069,-2.0069,-2.0085,-2.0169,-2.0422,-2.0073,-2.0101,-2.0404,-2.0712,-2.098]}]]